[[{"header":{"parameterUnit":"m.s-1","parameterCategory":1,"la1":30.6,"la2":29.2853,"lo1":-89.7004,"lo2":-87.6739,"dy":0.0162,"dx":0.0183,"nx":112,"ny":82,"refTime":"2024-05-01T00:00:00:Z","depth":0,"parameterNumber":2,"parameterNumberName":"U-component_of_WINDS"},"data":[0.0,0.0,0.0,0.0,0.0,0.0,0.0,0.0,0.0,0.0,0.0,0.0,0.0,0.0,0.0,0.0,0.0,0.0,0.0,0.0,0.0,0.0,0.0,0.0,0.0,0.0,0.0,0.0,0.0,0.0,0.0,0.0,0.0,0.0,0.0,0.0,0.0,0.0,0.0,0.0,0.0,0.0,0.0,0.0,0.0,0.0,0.0,0.0,0.0,0.0,0.0,0.0,0.0,0.0,0.0,0.0,0.0,0.0,0.0,0.0,0.0,0.0,0.0,0.0,0.0,0.0,0.0,0.0,0.0,0.0,0.0,0.0,0.0,0.0,0.0,0.0,0.0,0.0,0.0,0.0,0.0,0.0,0.0,0.0,0.0,0.0,0.0,0.0,0.0,0.0,-5.0551,-5.2995,-5.6516,-5.8396,-5.7662,-5.6998,-5.3978,-4.7795,0.0,0.0,0.0,0.0,0.0,0.0,0.0,0.0,0.0,0.0,0.0,0.0,0.0,0.0,0.0,0.0,0.0,0.0,0.0,0.0,0.0,0.0,0.0,0.0,0.0,0.0,0.0,0.0,0.0,0.0,0.0,0.0,0.0,0.0,0.0,0.0,0.0,0.0,0.0,0.0,0.0,0.0,0.0,0.0,0.0,0.0,0.0,0.0,0.0,0.0,0.0,0.0,0.0,0.0,0.0,0.0,0.0,0.0,0.0,0.0,0.0,0.0,0.0,0.0,0.0,0.0,0.0,0.0,0.0,0.0,0.0,0.0,0.0,0.0,0.0,0.0,0.0,0.0,0.0,0.0,0.0,0.0,0.0,0.0,0.0,0.0,0.0,0.0,0.0,0.0,0.0,0.0,0.0,0.0,0.0,0.0,0.0,0.0,0.0,0.0,0.0,0.0,0.0,0.0,-5.0914,-5.6479,-5.8058,-5.8649,-5.8512,-5.6283,-5.3,-4.8585,0.0,0.0,0.0,0.0,0.0,0.0,0.0,0.0,0.0,0.0,0.0,0.0,0.0,0.0,0.0,0.0,0.0,0.0,0.0,0.0,0.0,0.0,0.0,0.0,0.0,0.0,0.0,0.0,0.0,0.0,0.0,0.0,0.0,0.0,0.0,0.0,0.0,0.0,0.0,0.0,0.0,0.0,0.0,0.0,0.0,0.0,0.0,0.0,0.0,0.0,0.0,0.0,0.0,0.0,0.0,0.0,0.0,0.0,0.0,0.0,0.0,0.0,0.0,0.0,0.0,0.0,0.0,0.0,0.0,0.0,0.0,0.0,0.0,0.0,0.0,0.0,0.0,0.0,0.0,0.0,0.0,0.0,0.0,0.0,0.0,0.0,0.0,0.0,0.0,0.0,0.0,0.0,0.0,0.0,0.0,0.0,0.0,0.0,0.0,0.0,0.0,0.0,0.0,-4.9168,-5.1718,-5.6035,-5.6586,-5.645,-5.5977,-5.4186,-5.1379,-4.734,-4.5136,0.0,0.0,0.0,0.0,0.0,0.0,0.0,0.0,0.0,0.0,0.0,0.0,0.0,0.0,0.0,0.0,0.0,0.0,0.0,0.0,0.0,0.0,0.0,0.0,0.0,0.0,0.0,0.0,0.0,0.0,0.0,0.0,0.0,0.0,0.0,0.0,0.0,0.0,0.0,0.0,0.0,0.0,0.0,0.0,0.0,0.0,0.0,0.0,0.0,0.0,0.0,0.0,0.0,0.0,0.0,0.0,0.0,0.0,0.0,0.0,0.0,0.0,0.0,0.0,0.0,0.0,0.0,0.0,0.0,0.0,0.0,0.0,0.0,0.0,0.0,0.0,0.0,0.0,0.0,0.0,0.0,0.0,0.0,0.0,0.0,0.0,0.0,0.0,0.0,0.0,0.0,0.0,0.0,0.0,0.0,0.0,0.0,0.0,0.0,0.0,0.0,0.0,-5.1112,-5.2223,-5.4726,-5.4577,-5.4095,-5.3643,-5.2,-4.9569,-4.622,-4.3284,0.0,0.0,0.0,0.0,0.0,0.0,0.0,0.0,0.0,0.0,0.0,0.0,0.0,0.0,0.0,0.0,0.0,0.0,0.0,0.0,0.0,0.0,0.0,0.0,0.0,0.0,0.0,0.0,0.0,0.0,0.0,0.0,0.0,0.0,0.0,0.0,0.0,0.0,0.0,0.0,0.0,0.0,0.0,0.0,0.0,0.0,0.0,0.0,0.0,0.0,0.0,0.0,0.0,0.0,0.0,0.0,0.0,0.0,0.0,0.0,0.0,0.0,0.0,0.0,0.0,0.0,0.0,0.0,0.0,0.0,0.0,0.0,0.0,0.0,0.0,0.0,0.0,0.0,0.0,0.0,0.0,0.0,0.0,0.0,0.0,0.0,0.0,0.0,0.0,0.0,0.0,0.0,0.0,0.0,0.0,0.0,0.0,0.0,0.0,0.0,0.0,0.0,-4.9223,-5.1947,-5.3886,-5.3133,-5.2792,-5.3545,-5.0384,-4.7789,-4.6448,-4.2283,0.0,0.0,0.0,0.0,0.0,0.0,0.0,0.0,0.0,0.0,0.0,0.0,0.0,0.0,0.0,0.0,0.0,0.0,0.0,0.0,0.0,0.0,0.0,0.0,0.0,0.0,0.0,0.0,0.0,0.0,0.0,0.0,0.0,0.0,0.0,0.0,0.0,0.0,0.0,0.0,0.0,0.0,0.0,0.0,0.0,0.0,0.0,0.0,0.0,0.0,0.0,0.0,0.0,0.0,0.0,0.0,0.0,0.0,0.0,0.0,0.0,0.0,0.0,0.0,0.0,0.0,0.0,0.0,0.0,0.0,0.0,0.0,0.0,0.0,0.0,0.0,0.0,0.0,0.0,0.0,0.0,0.0,0.0,0.0,0.0,0.0,0.0,0.0,0.0,0.0,0.0,0.0,0.0,0.0,0.0,0.0,0.0,0.0,0.0,0.0,0.0,0.0,-4.7927,-5.0214,-5.1374,-5.106,-5.0621,-5.0312,-4.8952,-4.7165,-4.497,0.0,0.0,0.0,0.0,0.0,0.0,0.0,0.0,0.0,0.0,0.0,0.0,0.0,0.0,0.0,0.0,0.0,0.0,0.0,0.0,0.0,0.0,0.0,0.0,0.0,0.0,0.0,0.0,0.0,0.0,0.0,0.0,0.0,0.0,0.0,0.0,0.0,0.0,0.0,0.0,0.0,0.0,0.0,0.0,0.0,0.0,0.0,0.0,0.0,0.0,0.0,0.0,0.0,0.0,0.0,0.0,0.0,0.0,0.0,0.0,0.0,0.0,0.0,0.0,0.0,0.0,0.0,0.0,0.0,0.0,0.0,0.0,0.0,0.0,0.0,0.0,0.0,0.0,0.0,0.0,0.0,0.0,0.0,0.0,0.0,0.0,0.0,0.0,0.0,0.0,0.0,0.0,0.0,0.0,0.0,0.0,0.0,0.0,0.0,0.0,0.0,0.0,-4.3814,-4.6655,-4.8767,-4.9517,-4.9227,-4.8798,-4.8334,-4.7204,-4.5696,-4.3781,0.0,0.0,0.0,0.0,0.0,0.0,0.0,0.0,0.0,0.0,0.0,0.0,0.0,0.0,0.0,0.0,0.0,0.0,0.0,0.0,0.0,0.0,0.0,0.0,0.0,0.0,0.0,0.0,0.0,0.0,0.0,0.0,0.0,0.0,0.0,0.0,0.0,0.0,0.0,0.0,0.0,0.0,0.0,0.0,0.0,0.0,0.0,0.0,0.0,0.0,0.0,0.0,0.0,0.0,0.0,0.0,0.0,0.0,0.0,0.0,0.0,0.0,0.0,0.0,0.0,0.0,0.0,0.0,0.0,0.0,0.0,0.0,0.0,0.0,0.0,0.0,0.0,0.0,0.0,0.0,0.0,0.0,0.0,0.0,0.0,0.0,0.0,0.0,0.0,0.0,0.0,0.0,0.0,0.0,0.0,0.0,0.0,0.0,0.0,0.0,0.0,0.0,-4.2178,-4.5386,-4.7868,-4.8597,-4.7781,-4.749,-4.8218,-4.511,-4.3104,0.0,0.0,0.0,0.0,0.0,0.0,0.0,0.0,0.0,0.0,0.0,0.0,0.0,0.0,0.0,0.0,0.0,0.0,0.0,0.0,0.0,0.0,0.0,0.0,0.0,0.0,0.0,0.0,0.0,0.0,0.0,0.0,0.0,0.0,0.0,0.0,0.0,0.0,0.0,0.0,0.0,0.0,0.0,0.0,0.0,0.0,0.0,0.0,0.0,0.0,0.0,0.0,0.0,0.0,0.0,0.0,0.0,0.0,0.0,0.0,0.0,0.0,0.0,0.0,0.0,0.0,0.0,0.0,0.0,0.0,0.0,0.0,0.0,0.0,0.0,0.0,0.0,0.0,0.0,0.0,0.0,0.0,0.0,0.0,0.0,0.0,0.0,0.0,0.0,0.0,0.0,0.0,0.0,0.0,0.0,0.0,0.0,0.0,0.0,0.0,0.0,0.0,0.0,-4.1482,-4.4468,-4.6581,-4.6702,-4.6411,-4.6255,-4.6386,-4.4878,-4.3431,-4.2258,0.0,0.0,0.0,0.0,0.0,0.0,0.0,0.0,0.0,0.0,0.0,0.0,0.0,0.0,0.0,0.0,0.0,0.0,0.0,0.0,0.0,0.0,0.0,0.0,0.0,0.0,0.0,0.0,0.0,0.0,0.0,0.0,0.0,0.0,0.0,0.0,0.0,0.0,0.0,0.0,0.0,0.0,0.0,0.0,0.0,0.0,0.0,0.0,0.0,0.0,0.0,0.0,0.0,0.0,0.0,0.0,0.0,0.0,0.0,0.0,0.0,0.0,0.0,0.0,0.0,0.0,0.0,0.0,0.0,0.0,0.0,0.0,0.0,0.0,0.0,0.0,0.0,0.0,0.0,0.0,0.0,0.0,0.0,0.0,0.0,0.0,0.0,0.0,0.0,0.0,0.0,0.0,0.0,0.0,0.0,0.0,0.0,0.0,0.0,0.0,0.0,0.0,-4.1152,-4.3753,-4.5538,-4.5429,-4.5337,-4.5109,-4.465,-4.3797,-4.2585,-4.0912,0.0,0.0,0.0,0.0,0.0,0.0,0.0,0.0,0.0,0.0,0.0,0.0,0.0,0.0,0.0,0.0,0.0,0.0,0.0,0.0,0.0,0.0,0.0,0.0,0.0,0.0,0.0,0.0,0.0,0.0,0.0,0.0,0.0,0.0,0.0,0.0,0.0,0.0,0.0,0.0,0.0,0.0,0.0,0.0,0.0,0.0,0.0,0.0,0.0,0.0,0.0,0.0,0.0,0.0,0.0,0.0,0.0,0.0,0.0,0.0,0.0,0.0,0.0,0.0,0.0,0.0,0.0,0.0,0.0,0.0,0.0,0.0,0.0,0.0,0.0,0.0,0.0,0.0,0.0,0.0,0.0,0.0,0.0,0.0,0.0,0.0,0.0,0.0,0.0,0.0,0.0,0.0,0.0,0.0,0.0,0.0,0.0,0.0,0.0,0.0,0.0,0.0,-4.0957,-4.3163,-4.4649,-4.456,-4.4447,-4.4025,-4.3159,-4.2297,-4.1085,-3.9419,0.0,0.0,0.0,0.0,0.0,0.0,0.0,0.0,0.0,0.0,0.0,0.0,0.0,0.0,0.0,0.0,0.0,0.0,0.0,0.0,0.0,0.0,0.0,0.0,0.0,0.0,0.0,0.0,0.0,0.0,0.0,0.0,0.0,0.0,0.0,0.0,0.0,0.0,0.0,0.0,0.0,0.0,0.0,0.0,0.0,0.0,0.0,0.0,0.0,0.0,0.0,0.0,0.0,0.0,0.0,0.0,0.0,0.0,0.0,0.0,-4.5932,-4.5547,0.0,0.0,0.0,0.0,0.0,0.0,0.0,0.0,0.0,0.0,0.0,0.0,0.0,0.0,0.0,0.0,0.0,0.0,0.0,0.0,0.0,0.0,0.0,0.0,0.0,0.0,0.0,0.0,0.0,0.0,0.0,0.0,0.0,0.0,0.0,0.0,0.0,0.0,0.0,0.0,-4.0018,-4.2167,-4.3657,-4.353,-4.3457,-4.3315,-4.3132,-4.2297,-4.1085,-3.9419,-3.8007,0.0,0.0,0.0,0.0,0.0,0.0,0.0,0.0,0.0,0.0,0.0,0.0,0.0,0.0,0.0,0.0,0.0,0.0,0.0,0.0,0.0,0.0,0.0,0.0,0.0,0.0,0.0,0.0,0.0,0.0,0.0,0.0,0.0,0.0,0.0,0.0,0.0,0.0,0.0,0.0,0.0,0.0,0.0,0.0,0.0,0.0,0.0,0.0,0.0,0.0,0.0,0.0,0.0,0.0,0.0,0.0,0.0,0.0,0.0,-4.6599,-4.622,0.0,0.0,0.0,0.0,0.0,0.0,0.0,0.0,0.0,0.0,0.0,0.0,0.0,0.0,0.0,0.0,0.0,0.0,0.0,0.0,0.0,0.0,0.0,0.0,0.0,0.0,0.0,0.0,0.0,0.0,0.0,0.0,0.0,0.0,0.0,0.0,0.0,0.0,0.0,0.0,-4.0265,-4.1421,-4.227,-4.2626,-4.2555,-4.2316,-4.1893,-4.1431,-4.0642,-3.9381,-3.8065,0.0,0.0,0.0,0.0,0.0,0.0,0.0,0.0,0.0,0.0,0.0,0.0,0.0,0.0,0.0,0.0,0.0,0.0,0.0,0.0,0.0,0.0,0.0,0.0,0.0,0.0,0.0,0.0,0.0,0.0,0.0,0.0,0.0,0.0,0.0,0.0,0.0,0.0,0.0,0.0,0.0,0.0,0.0,0.0,0.0,0.0,0.0,0.0,0.0,0.0,0.0,0.0,0.0,-4.8232,-4.8342,-4.7467,-4.8617,-4.8956,-4.8597,-4.7865,-4.7433,-4.7213,-4.6887,0.0,0.0,0.0,0.0,0.0,0.0,0.0,0.0,0.0,0.0,0.0,0.0,0.0,0.0,0.0,0.0,0.0,0.0,0.0,0.0,0.0,0.0,-4.1614,-4.1788,-4.2343,-4.2461,-4.1094,0.0,0.0,0.0,0.0,0.0,0.0,0.0,0.0,0.0,0.0,0.0,-4.0428,-4.0501,-4.0684,-4.1539,-4.1338,-4.0866,-4.0131,-4.0208,-3.9938,-3.913,-3.8392,-3.7603,0.0,0.0,0.0,0.0,0.0,0.0,0.0,0.0,0.0,0.0,0.0,0.0,0.0,0.0,0.0,0.0,0.0,0.0,0.0,0.0,0.0,0.0,0.0,0.0,0.0,0.0,0.0,0.0,0.0,0.0,0.0,0.0,-4.6137,-4.6886,0.0,0.0,0.0,0.0,0.0,0.0,0.0,0.0,0.0,0.0,0.0,0.0,0.0,-4.7359,-4.7309,-4.9237,-4.98,-4.9025,-5.064,-5.0598,-4.9118,-5.004,-5.0417,-5.0354,-5.025,0.0,-4.8433,-4.6927,0.0,0.0,0.0,0.0,0.0,0.0,0.0,0.0,0.0,0.0,0.0,0.0,0.0,0.0,0.0,0.0,0.0,0.0,0.0,0.0,0.0,0.0,-4.4215,-4.4307,-4.4504,-4.4609,-4.4375,-4.2676,-4.0879,-3.9766,-3.9746,-3.9551,0.0,0.0,0.0,0.0,0.0,0.0,-3.8718,-3.8697,-3.8913,-3.9674,-3.9071,-3.8517,-3.8349,-3.9008,-3.9092,-3.8238,-3.8065,-3.7603,-3.6731,-3.5084,0.0,0.0,0.0,0.0,0.0,0.0,0.0,0.0,0.0,0.0,0.0,0.0,0.0,0.0,0.0,0.0,0.0,0.0,0.0,0.0,0.0,0.0,0.0,0.0,0.0,0.0,0.0,0.0,0.0,-4.3676,-4.5217,-4.5371,-4.6049,-4.5962,0.0,0.0,0.0,0.0,0.0,0.0,0.0,0.0,0.0,-4.7241,-4.82,-4.8716,-4.8716,-5.0064,-5.0544,-5.021,-5.1379,-5.1323,-5.0228,-5.1253,-5.161,-5.1453,-5.1645,-5.1136,-5.0086,-4.8612,-4.7148,-4.5713,0.0,0.0,0.0,0.0,-4.3104,-4.3162,-4.3624,-4.3528,-4.3156,-4.287,0.0,0.0,0.0,0.0,0.0,0.0,0.0,-4.1574,-4.1332,-4.2228,-4.3224,-4.3353,-4.3805,-4.4211,-4.4257,-4.3398,-4.2344,-4.1465,-4.1308,-4.0879,-3.9551,-3.8926,0.0,0.0,0.0,-3.7571,-3.9055,-3.8298,-3.8127,-3.9422,-3.9185,-3.8704,-3.8112,-3.9297,-3.97,-3.8784,-3.8277,-3.7834,-3.745,-3.5849,-3.486,0.0,0.0,0.0,0.0,0.0,0.0,0.0,0.0,0.0,0.0,0.0,0.0,0.0,0.0,0.0,0.0,0.0,0.0,0.0,0.0,0.0,0.0,0.0,0.0,0.0,0.0,0.0,0.0,-4.4076,-4.5057,-4.4656,-4.6199,-4.6532,0.0,0.0,0.0,0.0,0.0,0.0,-4.8012,-4.8618,-4.9132,-4.9554,-5.0325,-5.0655,-5.0453,-5.1298,-5.1628,-5.1426,-5.2013,-5.1995,-5.1426,-5.2284,-5.243,-5.1997,-5.2247,-5.1807,-5.0786,-4.9931,-4.8144,-4.5929,-4.549,-4.4823,-4.4047,-4.3816,-4.3739,-4.3835,-4.4412,-4.4489,-4.4194,-4.3503,-4.2764,-4.1901,-4.0712,0.0,0.0,0.0,0.0,-4.0854,-4.0971,-4.1647,-4.2341,-4.2496,-4.3085,-4.3604,-4.3667,-4.3515,-4.3183,-4.2539,-4.2402,-4.1875,-4.0195,-3.9355,0.0,-3.832,-3.7148,-3.701,-3.8984,-3.7818,-3.7381,-3.8906,-3.8823,-3.8424,-3.7843,-3.9168,-3.9818,-3.933,-3.8681,-3.8241,-3.8033,-3.6687,-3.5502,-3.4604,0.0,0.0,0.0,0.0,0.0,0.0,0.0,0.0,0.0,0.0,0.0,0.0,0.0,0.0,0.0,0.0,0.0,0.0,0.0,0.0,0.0,0.0,0.0,0.0,0.0,0.0,0.0,0.0,0.0,-4.6665,-4.9047,0.0,0.0,0.0,0.0,-4.8084,-4.8196,-4.893,-5.0527,-5.0655,-5.1371,-5.2913,-5.3739,-5.3794,-5.3023,-5.383,-5.3849,-5.3096,-5.3112,-5.3112,-5.3096,-5.3136,-5.2732,-5.1995,-5.2036,-5.1136,-4.9725,-4.9952,-4.9495,-4.8448,-4.6866,-4.644,-4.6605,-4.5778,-4.5479,-4.5479,-4.5518,-4.4998,-4.4432,-4.5192,-4.4346,-4.2813,-4.16,-4.0889,0.0,0.0,-4.1104,-4.1739,-4.1747,-4.2444,-4.3142,-4.3154,-4.3389,-4.3597,-4.3599,-4.3,-4.2441,-4.2402,-4.2402,-4.1875,-4.0195,0.0,-3.9277,-3.7617,-3.7236,-3.7209,-3.7402,-3.6569,-3.6311,-3.723,-3.6583,-3.6315,-3.6904,-3.773,-3.8536,-3.9253,-3.9265,-3.8895,-3.8139,-3.7284,-3.6459,-3.5631,-3.4062,0.0,0.0,0.0,0.0,0.0,0.0,0.0,0.0,0.0,0.0,0.0,0.0,0.0,0.0,0.0,0.0,0.0,0.0,0.0,0.0,0.0,0.0,0.0,0.0,0.0,0.0,0.0,0.0,-4.6721,-4.9191,0.0,-4.8347,-4.9011,-4.9636,-4.9894,-5.1362,-5.2491,-5.3078,-5.361,-5.4142,-5.473,-5.5023,-5.4785,-5.3977,-5.4252,-5.4014,-5.3185,-5.3185,-5.3185,-5.3185,-5.3185,-5.2766,-5.1995,-5.1995,-5.1098,-4.9612,-4.9729,-4.9112,-4.8037,-4.7421,-4.6795,-4.6147,-4.5843,-4.5399,-4.4954,-4.4954,-4.4745,-4.4365,-4.3596,-4.2713,-4.1753,-4.0816,-4.0506,-4.0496,-4.0496,-4.0727,-4.095,-4.095,-4.1204,-4.1484,-4.157,-4.1659,-4.177,-4.1898,-4.1693,-4.1512,-4.1601,-4.1621,-4.1269,-4.0098,-3.9434,-3.8652,-3.748,-3.6795,-3.6638,-3.7226,-3.6522,-3.6304,-3.7164,-3.6988,-3.6612,-3.6173,-3.7935,-3.8644,-3.7702,-3.8189,-3.8181,-3.7362,-3.6643,-3.5846,-3.4951,-3.4379,-3.3634,0.0,0.0,0.0,0.0,0.0,0.0,0.0,0.0,0.0,0.0,0.0,0.0,0.0,0.0,0.0,0.0,0.0,0.0,0.0,0.0,0.0,0.0,0.0,0.0,0.0,-4.665,-4.8493,-4.7135,-4.9632,-5.0826,-4.9186,-5.0424,-5.1411,-5.1611,-5.3373,-5.4547,-5.4821,-5.5573,-5.6124,-5.64,-5.64,-5.5886,-5.4821,-5.4803,-5.4252,-5.3185,-5.3185,-5.3078,-5.2803,-5.3096,-5.2472,-5.1226,-5.1481,-5.0655,-4.915,-4.915,-4.8661,-4.7897,-4.7754,-4.7086,-4.6156,-4.5911,-4.5349,-4.4776,-4.4776,-4.4506,-4.3919,-4.2415,-4.1572,-4.1005,-4.0169,-4.0129,-4.0381,-4.0473,-4.0496,-4.0496,-4.0496,-4.0496,-4.0527,-4.061,-4.0681,-4.0745,-4.0896,-4.0962,-4.0873,-4.0409,-4.0801,-4.082,-3.9668,-3.8984,-3.8203,-3.7031,-3.6367,-3.6211,-3.6797,-3.6094,-3.5898,-3.6777,-3.6601,-3.6341,-3.6184,-3.7764,-3.8315,-3.7305,-3.7558,-3.7506,-3.6984,-3.6287,-3.5623,-3.5026,-3.4188,-3.3466,-3.2861,0.0,0.0,0.0,0.0,0.0,0.0,0.0,0.0,0.0,0.0,0.0,0.0,0.0,0.0,0.0,0.0,0.0,0.0,0.0,0.0,0.0,0.0,0.0,-4.5872,-4.7699,-4.8849,-4.8108,-5.0591,-5.1792,-5.0351,-5.1528,-5.2637,-5.3311,-5.4068,-5.4871,-5.5653,-5.6398,-5.7166,-5.7937,-5.7997,-5.7226,-5.5611,-5.5614,-5.4785,-5.317,-5.317,-5.2747,-5.1977,-5.2766,-5.1848,-4.9647,-5.0417,-4.9829,-4.8306,-4.8269,-4.8269,-4.8216,-4.7821,-4.7389,-4.6859,-4.6072,-4.5452,-4.5052,-4.5014,-4.4234,-4.3057,-4.1922,-4.1233,-4.071,-3.9856,-3.9829,-4.0158,-4.0414,-4.0496,-4.0496,-4.0496,-4.0496,-4.0496,-4.0496,-4.0596,-4.0713,-4.0749,-4.0866,-4.0499,-3.8905,-3.9961,-4.0566,-3.8828,-3.8535,-3.7988,-3.6269,-3.5976,0.0,-3.5957,-3.5215,-3.5019,-3.5879,-3.5234,-3.5367,-3.6934,-3.7086,-3.7427,-3.8179,-3.7428,-3.6982,-3.7026,-3.6272,-3.5883,-3.5957,-3.3469,-3.2199,-3.2207,0.0,0.0,0.0,0.0,0.0,0.0,0.0,0.0,0.0,0.0,0.0,0.0,0.0,0.0,0.0,0.0,0.0,0.0,0.0,0.0,0.0,-4.6007,-4.7547,-4.7314,-4.9661,-5.1319,-5.1116,-5.2334,-5.3025,-5.2594,-5.3404,-5.4057,-5.4221,-5.4945,-5.547,-5.5684,-5.6449,-5.6967,-5.7209,-5.7726,-5.7226,-5.5611,-5.5614,-5.4491,-5.2325,-5.2325,-5.1903,-5.1132,-5.1371,-5.0784,-4.961,-4.9831,-4.9297,-4.8251,-4.7663,-4.7424,-4.7425,-4.7316,-4.6833,-4.6104,-4.5292,-4.4541,-4.3853,-4.3274,-4.2634,-4.1866,-4.074,-4.0183,-3.9913,-3.9656,-3.9829,-4.0158,-4.0414,-4.0496,-4.0496,-4.0496,-4.0496,-4.0496,-4.0496,-4.0534,-4.0416,-3.9904,-3.9894,-3.9672,-3.8647,-3.8922,-3.8769,-3.7012,-3.7246,-3.7285,-3.6172,-3.5469,-3.5059,-3.5059,-3.4844,-3.4785,-3.5039,-3.541,-3.5798,-3.6196,-3.6756,-3.6906,-3.6443,-3.6276,-3.5938,-3.5313,-3.5126,-3.5038,-3.5059,-3.4355,-3.3398,0.0,0.0,0.0,0.0,0.0,0.0,0.0,0.0,0.0,0.0,0.0,0.0,0.0,0.0,0.0,0.0,0.0,0.0,0.0,0.0,0.0,0.0,-4.8054,-4.9407,-4.9712,-5.1234,-5.2435,-5.2756,-5.3213,-5.3501,-5.3501,-5.3881,-5.4139,-5.4139,-5.4818,-5.5232,-5.5232,-5.5966,-5.6545,-5.6887,-5.7327,-5.6917,-5.5592,-5.5262,-5.4051,-5.1995,-5.1665,-5.1077,-5.0306,-5.0655,-5.016,-4.9077,-4.9445,-4.8912,-4.7755,-4.7278,-4.6892,-4.6599,0.0,0.0,0.0,0.0,-4.4019,-4.3403,-4.274,-4.2023,-4.1243,-4.0218,-3.9593,-3.9281,-3.9517,-3.9742,-3.9973,-4.0389,-4.0496,-4.0496,-4.0496,-4.0496,-4.0496,-4.0496,-4.0246,-3.9894,-3.9499,-3.9204,-3.8781,-3.7965,-3.7925,0.0,-3.6205,-3.6698,-3.6992,-3.6133,-3.5566,-3.5234,-3.5234,-3.4609,-3.4297,-3.4668,-3.4824,-3.5038,-3.5379,-3.6158,0.0,0.0,0.0,-3.5162,-3.4655,-3.4686,0.0,0.0,0.0,-3.3164,-3.2207,-3.1836,0.0,0.0,-3.3633,-3.4609,0.0,0.0,0.0,0.0,0.0,0.0,0.0,0.0,0.0,0.0,0.0,0.0,0.0,0.0,0.0,0.0,-5.0371,-5.1589,-5.2334,-5.2435,-5.2706,-5.3416,-5.3501,-5.3501,-5.3501,-5.3501,-5.3501,-5.3501,-5.4106,-5.4482,-5.4482,-5.5191,0.0,0.0,0.0,-5.6382,-5.5611,-5.4711,-5.3463,-5.1848,-5.1041,-5.0233,-4.9482,-5.0105,-4.9572,-4.8214,-4.8875,-4.8343,-4.6947,-4.6874,-4.6361,-4.5645,-4.5736,-4.5278,-4.4505,-4.4096,-4.3684,-4.329,-4.2773,0.0,0.0,-4.0029,-3.9276,-3.8807,-3.9358,-3.9534,-3.9649,-4.0248,-4.0422,-4.0419,-4.0323,-4.0346,-4.0342,-4.0246,-3.9669,-3.9136,-3.9108,-3.8554,-3.7773,-3.6868,-3.6793,-3.6659,-3.5882,-3.6537,-3.6894,-3.6113,-3.582,-3.5742,-3.584,-3.4414,-3.373,-3.4609,-3.4004,0.0,-3.4629,-3.5312,-3.5371,-3.4609,-3.4551,-3.4609,-3.4707,-3.4609,-3.4551,-3.4551,-3.3008,-3.2148,-3.2051,-3.1289,-3.1719,-3.3262,-3.3359,-3.4336,0.0,0.0,0.0,0.0,0.0,0.0,0.0,0.0,0.0,0.0,0.0,0.0,0.0,0.0,0.0,-4.9695,-5.1116,-5.2367,-5.3162,-5.3264,-5.3331,-5.3484,-5.3501,-5.3501,-5.3501,-5.3501,-5.3501,-5.3501,-5.3634,-5.3717,-5.3717,-5.4405,-5.5161,-5.592,-5.5917,-5.5843,-5.5592,-5.4161,-5.2619,-5.1022,-5.0215,0.0,-4.8526,-4.803,-4.7645,-4.7314,-4.6819,-4.6434,-4.6085,-4.5443,-4.469,-4.403,-4.469,-4.4433,-4.3717,-4.3618,-4.3142,-4.2431,-4.1687,-4.0845,-3.9992,-3.9184,-3.8836,-3.8762,-3.909,-3.9205,0.0,-3.9679,-3.9973,-4.0024,-3.9308,-3.9333,-3.9361,-3.8642,-3.8354,-3.806,-3.7364,-3.7191,-3.6686,-3.5127,-3.4936,-3.4998,-3.4869,-3.5639,-3.6191,-3.6035,-3.4805,-3.416,-3.4863,-3.4043,-3.373,-3.4609,-3.4551,-3.4512,-3.4687,-3.4219,-3.3828,-3.3652,-3.3652,-3.3965,-3.4668,-3.4023,-3.3652,-3.3652,-3.2695,-3.1855,-3.1152,-3.0976,-3.1426,-3.2441,-3.3105,-3.4336,0.0,0.0,0.0,0.0,0.0,0.0,0.0,0.0,0.0,0.0,0.0,-4.3952,-4.6018,0.0,-5.0393,-5.2082,-5.2959,-5.345,-5.3501,-5.3501,-5.3501,-5.3501,-5.3501,-5.3501,-5.3501,-5.3501,-5.3501,-5.3501,-5.3501,-5.3501,-5.3501,-5.3865,-5.4371,-5.5073,-5.5097,-5.5058,-5.5005,-5.339,-5.1995,-5.0784,-4.9536,-4.8728,-4.8306,-4.7865,-4.77,-4.7681,-4.7278,-4.6636,-4.581,-4.4599,-4.3864,-4.3551,-4.3938,-4.3846,-4.3515,-4.3515,-4.2983,-4.2249,-4.1846,-4.091,-3.9827,-3.9423,-3.9038,-3.8747,-3.9027,-3.9112,-3.916,-3.9517,-3.9731,-3.9796,-3.9518,-3.925,-3.8988,-3.8716,-3.7988,-3.7123,-3.6269,-3.5804,-3.5158,-3.3845,-3.3713,-3.3817,-3.3845,-3.4278,-3.4769,-3.5273,-3.4238,-3.3555,-3.3984,-3.332,-3.2969,-3.3398,-3.3457,-3.3457,-3.3457,-3.3047,-3.2793,-3.2793,-3.2793,-3.2988,-3.3437,-3.3027,-3.2793,-3.2793,-3.1973,-3.1348,-3.0898,-3.0898,-3.1348,-3.2207,-3.2617,-3.3476,0.0,0.0,0.0,0.0,0.0,0.0,0.0,-3.7234,-3.8484,-4.071,-4.2978,-4.5412,-4.8227,-5.016,-5.2035,-5.4132,-5.4564,-5.438,-5.3805,-5.3602,-5.3501,-5.3501,-5.3501,-5.3501,-5.3501,-5.3501,-5.3501,-5.3501,-5.3501,-5.3501,-5.3501,-5.3501,-5.3749,-5.4299,-5.4285,-5.4177,-5.3991,-5.266,-5.1532,-5.0566,-4.9201,-4.8471,-4.8306,-4.8141,-4.8086,-4.8048,-4.7755,-4.6783,-4.5333,-4.403,-4.3515,-4.3515,-4.3515,-4.3515,-4.3515,-4.3515,-4.2983,-4.2286,-4.2121,-4.1111,-3.9863,-3.9717,-3.9239,-3.8713,-3.8776,-3.878,-3.8848,-3.9121,-3.9112,-3.9104,-3.9374,-3.887,-3.8345,-3.8454,-3.744,-3.6231,-3.5423,-3.4699,-3.3898,-3.2872,-3.2753,-3.2832,-3.286,-3.2745,-3.3078,-3.4229,-3.3689,-3.3183,-3.3358,-3.2695,-3.2266,-3.2422,-3.2285,-3.2129,-3.1953,-3.1953,-3.2012,-3.2187,-3.2207,-3.2266,-3.2422,-3.2285,-3.2207,-3.2207,-3.1348,-3.082,-3.0644,-3.082,-3.1172,-3.1699,-3.1875,-3.2461,-2.8662,-2.8968,-2.9995,-3.25,-3.3791,-3.518,0.0,-3.9778,-4.1504,-4.3531,-4.6236,-4.85,-4.946,-5.1825,-5.375,-5.4026,-5.4376,-5.4566,-5.4482,-5.3907,-5.3501,-5.3501,-5.3501,-5.3501,-5.3501,-5.3501,-5.3501,-5.3501,-5.3501,-5.3501,-5.3501,-5.3501,-5.3524,-5.3619,-5.3482,-5.3149,-5.2535,-5.2172,-5.1268,-4.9816,-4.9569,-4.904,-4.8288,-4.7553,-4.7223,-4.7149,-4.5718,-4.4599,-4.3736,-4.357,-4.3515,-4.3515,-4.3515,-4.3515,-4.3515,-4.3515,-4.2983,-4.2194,-4.148,-4.0653,-3.9772,-3.9074,-3.8781,-3.856,-3.7886,-3.7676,-3.7695,-3.772,-3.7381,-3.7032,-3.7082,-3.6839,-3.641,-3.573,-3.5607,-3.5404,-3.4526,-3.4263,-3.3725,-3.2141,-3.1851,-3.1871,-3.1936,-3.1319,-3.1387,-3.3106,-3.2672,-3.244,-3.3202,-3.2653,-3.2461,-3.3184,-3.2637,-3.1894,-3.1113,-3.1055,-3.1387,-3.2148,-3.2207,-3.2519,-3.3242,-3.2578,-3.2207,-3.2207,-3.1348,-3.0527,-2.9746,-3.0527,-3.0547,-2.9902,-3.0684,-3.1894,-2.7643,-2.8496,-2.972,-3.1962,-3.3236,-3.4731,-3.7743,-3.9289,-4.0886,-4.3811,-4.6314,-4.8503,-5.0148,-5.2558,-5.441,-5.4602,-5.4991,-5.5091,-5.4651,-5.3957,-5.3501,-5.3501,-5.3501,-5.3501,-5.3501,-5.3501,-5.3501,-5.3501,-5.3501,-5.3501,-5.3501,-5.3061,-5.281,-5.2809,-5.2335,-5.1916,-5.1608,-5.1052,-5.0241,-4.918,-4.9039,-4.8538,-4.7797,-4.7785,-4.7535,-4.6984,-4.5074,-4.4218,-4.4158,-4.3681,-4.3515,-4.3515,-4.3515,-4.3515,-4.3515,-4.3515,-4.2983,-4.2249,-4.1919,-4.0965,-3.9827,-3.9515,-3.9074,-3.8634,-3.8303,-3.8193,-3.8102,-3.7621,-3.7333,-3.7096,-3.6775,-3.6274,-3.5786,-3.5608,-3.5022,-3.4259,-3.3398,-3.2973,-3.2391,-3.1173,-3.0942,-3.0947,-3.0981,-3.0678,-3.0698,-3.1463,-3.1355,-3.1328,-3.1728,-3.1527,-3.1499,-3.1894,-3.1641,-3.1309,-3.0937,-3.0898,-3.1055,-3.1426,-3.1445,-3.1367,-3.1191,-3.1348,-3.0976,-2.9941,-3.0078,-2.9961,-2.9609,-2.9961,-3.0215,-3.0371,-3.0723,-3.1289,-2.6869,-2.7936,-2.9235,-3.1368,-3.2936,-3.4643,-3.7128,-3.8786,-4.0663,-4.3776,-4.5881,-4.7804,-5.0049,-5.2316,-5.4042,-5.4593,-5.5169,-5.5398,-5.4971,-5.4262,-5.3737,-5.3518,-5.3501,-5.3501,-5.3501,-5.3501,-5.3501,-5.3501,-5.3501,-5.3399,-5.3179,-5.2621,-5.2117,-5.1718,-5.1388,-5.0869,-5.022,-5.0012,-4.9339,-4.8199,-4.8259,-4.7878,-4.7132,-4.7379,-4.7113,-4.6409,-4.4658,-4.4086,-4.4306,-4.3577,-4.3268,-4.3268,-4.3268,-4.3268,-4.3286,-4.3444,-4.313,-4.2561,-4.2121,-4.1203,-4.0157,-3.9698,-3.9166,-3.867,-3.8432,-3.8212,-3.7918,-3.7327,-3.685,-3.643,-3.6279,-3.5702,-3.5191,-3.5375,-3.4528,-3.3466,-3.267,-3.2025,-3.1354,-3.0546,-3.0404,-3.0404,-3.0404,-3.0404,-3.0404,-3.0404,-3.0482,-3.0565,-3.0645,-3.068,-3.0743,-3.0837,-3.0879,-3.0898,-3.0898,-3.0898,-3.0898,-3.0898,-3.0664,-3.0254,-2.9629,-2.998,-2.959,-2.832,-2.8926,-2.9238,-2.9238,-2.9452,-2.99,-3.0525,-3.0716,-3.0811,-2.5905,-2.6571,-2.7664,-3.0579,-3.3235,-3.5437,-3.6474,-3.9209,-4.2065,-4.4077,-4.5548,-4.7047,-4.8984,-5.0793,-5.2367,-5.3451,-5.4479,-5.5243,-5.5626,-5.504,-5.4296,-5.3602,-5.3501,-5.3501,-5.3501,-5.3501,-5.3501,-5.3501,-5.3501,-5.3162,-5.2384,-5.2317,-5.1623,-5.02,-5.0832,-5.0187,-4.8013,-4.9334,-4.887,-4.6681,-4.7389,-4.7257,-4.6395,-4.5703,-4.5271,-4.5021,-4.4229,-4.3759,-4.3481,-4.2957,-4.2713,-4.2713,-4.2713,-4.2713,-4.2788,-4.3322,-4.3478,-4.3239,-4.168,-4.1095,-4.0802,-3.9239,-3.8726,-3.856,-3.7768,-3.6997,-3.6376,-3.634,-3.5165,-3.4082,-3.4853,-3.4646,-3.4237,-3.4249,-3.3821,-3.3251,-3.2627,-3.1863,-3.1128,-3.0528,-3.0404,-3.0404,-3.0404,-3.0404,-3.0404,-3.0404,-3.039,-3.0433,-3.0494,-3.0611,-3.0696,-3.0716,-3.0816,-3.0898,-3.0898,-3.0898,-3.0898,-3.0898,-3.0117,-2.9629,-2.9609,-2.8809,-2.8359,-2.8301,-2.832,-2.834,-2.834,-2.9128,-2.9524,-2.9562,-3.0273,-3.0611,-2.4031,-2.4888,-2.6323,-2.9903,-3.1856,-3.3626,-3.6201,-3.7858,-3.9471,-4.1608,-4.2634,-4.3613,-4.5214,-4.761,-4.9723,-5.0928,-5.2388,-5.3425,-5.3563,-5.394,-5.3764,-5.2584,-5.3496,-5.4042,-5.3551,-5.3501,-5.3501,-5.3501,-5.301,-5.2587,-5.2317,-5.1369,-5.0608,-5.0101,-4.9872,-4.9158,-4.7889,-4.8384,-4.7712,-4.5987,-4.6161,-4.6302,-4.633,-4.4705,-4.4126,-4.4306,-4.2639,-4.2087,-4.2346,-4.2183,-4.2101,-4.2142,-4.2539,-4.246,-4.2162,-4.277,-4.2595,-4.2014,-4.1325,-4.1095,-4.082,-3.9205,-3.8707,-3.8652,-3.8377,-3.7716,-3.7107,-3.7107,-3.5881,-3.4656,-3.4931,-3.4475,-3.3923,-3.3923,-3.3125,-3.2285,-3.2076,-3.1187,-3.0371,-3.0161,-3.0273,-3.0404,-3.0404,-3.0404,-3.0404,-3.0404,-3.0436,-3.0472,-3.0494,-3.0115,-2.9849,-2.9849,-2.9885,-2.9895,-2.9895,-3.04,-3.0476,-2.9934,-2.9622,-2.8939,-2.7794,-2.8028,-2.7618,-2.6463,-2.7571,-2.7885,-2.7305,-2.8682,-2.9392,-2.9457,-3.0247,-3.0603,-2.3389,-2.4229,-2.5605,-2.9094,-3.0755,-3.2148,-3.4475,-3.6016,-3.7515,-3.9396,-4.0094,-4.0952,-4.2897,-4.4864,-4.6788,-4.8587,-5.0203,-5.1462,-5.2061,-5.2495,-5.2486,-5.1813,-5.284,-5.3459,-5.2955,-5.328,-5.3382,-5.3095,-5.2587,-5.2063,-5.1539,-5.0608,-4.9847,-4.9323,-4.8849,-4.8139,-4.7111,-4.7094,-4.6515,-4.5297,-4.492,-4.5105,-4.568,-4.3809,-4.3249,-4.3676,-4.1725,-4.1246,-4.1771,-4.1556,-4.149,-4.1512,-4.1916,-4.1832,-4.1556,-4.2162,-4.196,-4.1341,-4.0922,-4.0725,-4.0451,-3.9129,-3.8707,-3.8707,-3.8707,-3.8138,-3.7437,-3.7144,-3.6083,-3.4931,-3.4656,-3.4192,-3.3807,-3.3807,-3.2693,-3.167,-3.1771,-3.0734,-2.9804,-2.9885,-3.0095,-3.0254,-3.0254,-3.0349,-3.0404,-3.0404,-3.043,-3.0453,-3.0453,-2.9804,-2.9324,-2.9324,-2.9082,-2.8943,-2.8943,-2.9697,-2.9811,-2.8982,-2.8938,-2.8296,-2.6863,-2.7041,-2.6646,-2.551,-2.6906,-2.7509,-2.7267,-2.8317,-2.9175,-2.9807,-2.9985,-3.0234,-2.3989,-2.4602,-2.5523,-2.8186,-2.9941,-3.1126,-3.1674,-3.387,-3.6206,-3.743,-3.7919,-3.8965,-4.1739,-4.249,-4.3643,-4.6398,-4.8069,-4.9575,-5.1152,-5.0941,-5.0749,-5.1207,-5.1647,-5.1846,-5.1849,-5.2784,-5.3078,-5.2234,-5.2199,-5.1623,-5.0168,-5.005,-4.9373,-4.7939,-4.7889,-4.7179,-4.572,-4.5669,-4.5263,-4.453,-4.3775,-4.3809,-4.4496,-4.2946,-4.2569,-4.3005,-4.1507,-4.1178,-4.1664,-4.1087,-4.0839,-4.0804,-4.0862,-4.0845,-4.0822,-4.1464,-4.1477,-4.1084,-4.0327,-3.9999,-3.9753,-3.8933,-3.8692,-3.8692,-3.8676,-3.8086,-3.7309,-3.6597,-3.5701,-3.4784,-3.41,-3.3862,-3.3788,-3.3752,-3.254,-3.1452,-3.1678,-3.0509,-2.9464,-2.9643,-2.9845,-2.9991,-2.9999,-3.0209,-3.0373,-3.0346,-3.0327,-3.0327,-3.0327,-2.9622,-2.9119,-2.9061,-2.8443,-2.8028,-2.8028,-2.8855,-2.901,-2.8087,-2.8071,-2.7696,-2.6831,-2.595,-2.552,-2.5559,-2.6365,-2.7198,-2.8024,-2.8051,-2.8855,-3.0354,-2.9499,-2.9544,-2.4703,-2.5374,-2.6198,-2.7974,-2.8942,-2.9786,-3.0997,-3.2584,-3.3917,-3.451,-3.5052,-3.582,-3.6938,-3.9113,-4.1657,-4.4524,-4.7344,-4.9395,-4.9794,-5.0816,-5.1012,-4.9637,-5.0706,-5.1381,-5.0843,-5.1704,-5.1781,-5.0453,-5.1061,-5.1082,-5.0135,-4.9576,-4.8866,-4.7922,-4.7889,-4.7179,-4.572,-4.5145,-4.4485,-4.3707,-4.3494,-4.3521,-4.3673,-4.2168,-4.1553,-4.1665,-4.0695,-4.0392,-4.0514,-4.0385,-3.9988,-3.9593,-4.0526,-3.9984,-3.8815,-3.9903,-3.953,-3.8467,-3.8254,-3.8939,-3.9706,-3.8505,-3.8382,-3.8627,-3.8234,-3.7398,-3.6798,-3.7808,-3.6174,-3.4357,-3.5385,-3.4743,-3.3642,-3.3041,-3.2137,-3.1244,-3.0709,-2.9979,-2.9423,-2.9474,-2.9634,-2.9821,-2.9977,-3.0061,-2.9953,-2.9508,-2.9429,-2.9429,-2.9429,-2.8736,-2.7986,-2.733,-2.7093,-2.6981,-2.6981,-2.8328,-2.8541,-2.7078,-2.759,-2.7571,-2.6682,-2.5809,-2.5655,-2.6311,-2.6538,-2.6751,-2.6987,-2.8227,-2.8732,-2.8564,-2.8931,-2.9223,-2.5218,-2.5728,-2.6436,-2.795,-2.8467,-2.875,-2.9191,-3.0702,-3.1926,-3.1747,-3.2479,-3.3439,-3.4457,-3.6995,-3.9675,-4.2019,-4.5278,-4.7728,-4.8327,-4.8988,-4.9237,-4.8645,-4.9624,-5.0144,-4.9726,-5.0359,-5.0322,-4.918,-5.0409,-5.0744,-4.9661,-4.8934,-4.8189,-4.7445,-4.7107,-4.6397,-4.5229,-4.4451,-4.3859,-4.3392,-4.3081,-4.2929,-4.2878,-4.1728,-4.1204,-4.117,-4.0434,-4.0096,-4.0079,-3.9757,-3.9385,-3.9054,-3.9433,-3.8877,-3.8004,-3.8698,-3.8338,-3.7482,-3.7482,-3.8035,-3.8594,-3.7846,-3.7557,-3.7562,-3.782,-3.7245,-3.6632,-3.7179,-3.6168,-3.4899,-3.4925,-3.4375,-3.3605,-3.2784,-3.199,-3.1182,-3.0375,-2.9694,-2.9257,-2.9382,-2.9484,-2.9625,-2.9829,-2.9581,-2.9228,-2.8885,-2.8542,-2.8166,-2.7797,-2.7511,-2.714,-2.6659,-2.625,-2.6173,-2.6563,-2.7813,-2.8165,-2.7236,-2.7621,-2.7505,-2.664,-2.5769,-2.5538,-2.6019,-2.6409,-2.6601,-2.6601,-2.7544,-2.7972,-2.7895,-2.7967,-2.8203,-2.6349,-2.6714,-2.722,-2.8509,-2.8754,-2.8505,-2.769,-2.9183,-3.0487,-2.9601,-3.0419,-3.1752,-3.3185,-3.5397,-3.7714,-3.9765,-4.2939,-4.5672,-4.7234,-4.695,-4.698,-4.8027,-4.8347,-4.8471,-4.8471,-4.8828,-4.8749,-4.7893,-4.9501,-4.995,-4.8572,-4.7978,-4.7393,-4.6667,-4.5838,-4.5043,-4.431,-4.3606,-4.3189,-4.3088,-4.2455,-4.2151,-4.2117,-4.139,-4.1052,-4.1018,-4.0383,-4.0096,-4.0045,-3.9419,-3.9022,-3.8802,-3.8261,-3.7872,-3.7618,-3.7719,-3.7553,-3.7236,-3.7236,-3.7123,-3.7001,-3.7058,-3.6675,-3.6344,-3.7399,-3.7215,-3.6544,-3.5842,-3.5838,-3.5612,-3.3753,-3.3419,-3.3373,-3.2554,-3.1761,-3.0962,-3.0198,-2.9482,-2.9067,-2.9299,-2.9351,-2.9414,-2.9616,-2.9075,-2.8592,-2.8512,-2.781,-2.6979,-2.6106,-2.6301,-2.6491,-2.6376,-2.5695,-2.5571,-2.6326,-2.7206,-2.7678,-2.7563,-2.7659,-2.739,-2.664,-2.5769,-2.5346,-2.5462,-2.6096,-2.6486,-2.6601,-2.6601,-2.6986,-2.7717,-2.6948,-2.7005,-3.1034,-3.1167,-3.1294,-3.152,-3.1276,-3.0788,-3.0182,-3.0507,-3.0641,-2.9592,-3.0112,-3.0925,-3.1557,-3.3338,-3.603,-4.0078,-4.2682,-4.5066,-4.776,-4.8012,-4.7833,-4.7519,-4.7046,-4.671,-4.671,-4.7096,-4.6818,-4.5494,-4.6486,-4.6747,-4.5905,-4.6422,-4.6479,-4.5911,-4.4536,-4.3453,-4.2692,-4.2557,-4.2185,-4.1593,-4.1457,-4.139,-4.1373,-4.0612,-4.0299,-4.0282,-4.0163,-4.0096,-4.0096,-3.996,-3.9174,-3.8142,-3.8616,-3.7669,-3.6073,-3.6738,-3.6536,-3.5926,-3.5926,-3.5907,-3.5946,-3.6395,-3.6738,-3.6958,-3.6731,-3.6397,-3.6042,-3.5954,-3.5302,-3.4488,-3.3795,-3.2999,-3.2172,-3.1323,-3.0505,-2.9777,-2.9313,-2.9097,-2.9017,-2.9055,-2.9067,-2.9156,-2.9404,-2.9342,-2.9064,-2.8502,-2.7733,-2.6921,-2.6106,-2.6057,-2.5849,-2.5186,-2.5082,-2.5103,-2.5256,-2.6231,-2.6524,-2.5808,-2.6428,-2.6755,-2.6621,-2.5769,-2.5635,-2.6365,-2.5827,-2.5885,-2.6601,-2.6601,-2.6678,-2.6813,-2.6678,-2.6678,-3.3932,-3.4125,-3.4003,-3.3389,-3.2822,-3.2007,-3.0409,-3.0307,-3.0253,-2.8994,-2.9511,-3.0249,-3.0432,-3.245,-3.4834,-3.7021,-4.0169,-4.3075,-4.5195,-4.623,-4.6741,-4.68,-4.6516,-4.6145,-4.5813,-4.5632,-4.5133,-4.4119,-4.4172,-4.4402,-4.4655,-4.5131,-4.4941,-4.3902,-4.3569,-4.3064,-4.2303,-4.2286,-4.1931,-4.1204,-4.1204,-4.1001,-4.0612,-4.0265,-4.0096,-4.0096,-4.0096,-4.0096,-4.0079,-3.969,-3.9106,-3.843,-3.8007,-3.7178,-3.6214,-3.618,-3.5943,-3.56,-3.56,-3.56,-3.5644,-3.5898,-3.5907,-3.5858,-3.6274,-3.6023,-3.5505,-3.5158,-3.4818,-3.428,-3.3037,-3.2517,-3.2046,-3.1042,-3.0025,-2.9229,-2.9044,-2.9005,-2.9005,-2.9005,-2.9005,-2.9051,-2.9178,-2.8841,-2.831,-2.7567,-2.6777,-2.5976,-2.5167,-2.5064,-2.4997,-2.482,-2.4862,-2.5068,-2.5485,-2.6097,-2.6454,-2.6493,-2.6559,-2.6551,-2.6454,-2.5606,-2.5343,-2.5765,-2.5362,-2.5395,-2.5923,-2.5817,-2.5822,-2.5923,-2.5738,-2.5689,-3.6345,-3.668,-3.6463,-3.5558,-3.4666,-3.3373,-3.1068,-3.0525,-3.0067,-2.8727,-2.9197,-2.9792,-2.9792,-3.1655,-3.337,-3.4007,-3.7228,-4.0419,-4.2602,-4.4002,-4.5129,-4.619,-4.6067,-4.5618,-4.4945,-4.4287,-4.3569,-4.2722,-4.2102,-4.2328,-4.3582,-4.3477,-4.2959,-4.1953,-4.2439,-4.2408,-4.1819,-4.1844,-4.1525,-4.0967,-4.0967,-4.0646,-4.0096,-4.0096,-4.0096,-4.0096,-4.0096,-4.0096,-4.0062,-3.9462,-3.914,-3.887,-3.7726,-3.7083,-3.6728,-3.6096,-3.5735,-3.56,-3.56,-3.56,-3.56,-3.56,-3.5216,-3.4914,-3.5925,-3.5814,-3.518,-3.4286,-3.4322,-3.4179,-3.2187,-3.1777,-3.1568,-3.0332,-2.939,-2.8779,-2.8851,-2.8863,-2.8905,-2.8975,-2.9005,-2.895,-2.8767,-2.8227,-2.753,-2.6722,-2.5925,-2.5172,-2.4548,-2.43,-2.433,-2.4639,-2.4708,-2.4983,-2.5631,-2.5863,-2.6275,-2.6949,-2.6509,-2.6132,-2.599,-2.5317,-2.4955,-2.4955,-2.4955,-2.5036,-2.5182,-2.503,-2.5036,-2.5195,-2.491,-2.4862,-3.9067,-3.9538,-3.9495,-3.9407,-3.7765,-3.5843,-3.4567,-3.2746,-3.0973,-2.9849,-2.9714,-2.9792,-2.9792,-3.0021,-3.1047,-3.3662,-3.4915,-3.725,-4.2204,-4.2963,-4.3826,-4.6045,-4.5244,-4.4242,-4.3544,-4.2925,-4.2051,-4.0771,-4.0068,-4.0323,-4.1841,-4.0803,-4.0432,-4.1082,-4.0643,-4.0376,-4.031,-4.0294,-4.0282,-4.0197,-4.0197,-4.018,-4.0096,-4.0096,-4.0096,-4.0096,-4.0096,-4.0096,-4.0096,-4.0028,-3.9605,-3.8988,-3.8836,-3.7997,-3.6795,-3.6728,-3.6231,-3.56,-3.56,-3.56,-3.56,-3.56,-3.5549,-3.5537,-3.5633,-3.5638,-3.5282,-3.3859,-3.3825,-3.3723,-3.1762,-3.0553,-2.9482,-2.7983,-2.7813,-2.8075,-2.8394,-2.8458,-2.8565,-2.8929,-2.9005,-2.8767,-2.8044,-2.7842,-2.753,-2.6722,-2.5925,-2.5374,-2.5301,-2.4658,-2.4209,-2.4256,-2.4428,-2.4555,-2.463,-2.4828,-2.4958,-2.5059,-2.4998,-2.496,-2.4939,-2.4863,-2.4825,-2.4825,-2.4825,-2.4832,-2.4854,-2.4832,-2.4832,-2.4854,-2.4818,-2.4811,-3.9803,-4.0674,-4.0916,-4.0916,-3.8978,-3.6632,-3.5124,-3.2804,-3.0708,-2.9942,-2.9792,-2.9792,-2.9792,-2.9792,-3.0187,-3.1318,-3.3008,-3.5195,-3.8077,-3.9799,-4.1557,-4.3693,-4.3464,-4.303,-4.2776,-4.2545,-4.1856,-4.0502,-3.9409,-3.9078,-3.9657,-3.9708,-3.9477,-3.8952,-3.9223,-3.9161,-3.8728,-3.9154,-3.9368,-3.9368,-3.9876,-4.0096,-4.007,-3.961,-3.9636,-4.007,-3.9584,-3.9385,-3.9462,-3.9926,-3.9673,-3.8954,-3.8514,-3.7973,-3.7347,-3.6417,-3.5853,-3.56,-3.56,-3.56,-3.5515,-3.5081,-3.4945,-3.4945,-3.4945,-3.4945,-3.4641,-3.3136,-3.2876,-3.2738,-3.152,-3.0376,-2.9279,-2.8207,-2.794,-2.794,-2.8061,-2.8102,-2.8161,-2.8313,-2.811,-2.781,-2.7483,-2.7243,-2.6796,-2.5999,-2.5613,-2.5227,-2.475,-2.4392,-2.419,-2.419,-2.4266,-2.4321,-2.4321,-2.4503,-2.4615,-2.4615,-2.4731,-2.4746,-2.4623,-2.4615,-2.4615,-2.4615,-2.4615,-2.4678,-2.4804,-2.4678,-2.4678,-2.4797,-2.4543,-2.4503,-3.9321,-4.066,-4.1398,-4.1544,-3.9499,-3.7039,-3.5629,-3.2865,-3.0457,-2.9905,-2.9792,-2.9792,-2.9792,-2.9792,-2.9895,-3.0177,-3.1856,-3.371,-3.5367,-3.7341,-3.921,-4.0759,-4.1258,-4.1284,-4.0685,-4.0716,-4.0471,-3.9873,-3.8751,-3.8018,-3.7838,-3.8427,-3.8302,-3.7318,-3.7886,-3.7961,-3.7456,-3.8189,-3.858,-3.858,-3.9385,-3.9636,-3.9428,-3.9059,-3.897,-3.9104,-3.8728,-3.8638,-3.874,-3.9235,-3.9259,-3.892,-3.8193,-3.777,-3.7449,-3.6366,-3.5785,-3.5566,-3.5346,-3.5261,-3.5143,-3.4404,-3.4167,-3.4134,-3.3914,-3.3998,-3.3914,-3.2649,-3.1989,-3.1481,-3.0734,-2.9789,-2.8819,-2.8063,-2.7716,-2.7574,-2.771,-2.7722,-2.7698,-2.7582,-2.7317,-2.6918,-2.6446,-2.622,-2.5818,-2.5024,-2.4976,-2.4842,-2.4263,-2.419,-2.419,-2.419,-2.419,-2.419,-2.419,-2.4339,-2.4419,-2.4419,-2.4534,-2.4569,-2.4428,-2.4419,-2.4419,-2.4419,-2.4419,-2.4478,-2.4615,-2.4478,-2.4486,-2.4615,-2.4321,-2.4275,-3.7607,-3.9513,-4.0946,-4.147,-3.9499,-3.728,-3.6707,-3.3476,-3.0457,-2.9905,-2.9792,-2.9792,-2.9792,-2.9792,-3.0101,-3.1044,-3.1655,-3.2856,-3.5252,-3.6292,-3.701,-3.7506,-3.8664,-3.8664,-3.6674,-3.6713,-3.7296,-3.8336,-3.7793,-3.715,-3.6537,-3.654,-3.654,-3.651,-3.658,-3.6615,-3.66,-3.7427,-3.7806,-3.7822,-3.8553,-3.8525,-3.7851,-3.858,-3.8144,-3.6874,-3.7535,-3.7887,-3.8011,-3.7967,-3.8345,-3.892,-3.8193,-3.7449,-3.6812,-3.6795,-3.6282,-3.5498,-3.4759,-3.4506,-3.4387,-3.366,-3.3423,-3.3288,-3.2547,-3.2831,-3.3271,-3.2513,-3.1241,-2.9956,-2.9213,-2.8416,-2.7621,-2.6877,-2.6725,-2.6808,-2.7225,-2.7319,-2.7215,-2.6882,-2.6805,-2.6309,-2.4695,-2.47,-2.4642,-2.3848,-2.4004,-2.4208,-2.419,-2.419,-2.419,-2.419,-2.419,-2.419,-2.419,-2.4199,-2.4199,-2.4199,-2.4218,-2.4218,-2.4199,-2.4199,-2.4199,-2.4199,-2.4199,-2.4199,-2.4199,-2.4199,-2.4199,-2.4218,-2.4199,-2.419,-3.5794,-3.6479,-3.6947,-3.791,-3.6336,-3.4481,-3.4292,-3.2085,-3.0005,-2.9829,-2.9792,-2.9792,-2.9792,-2.9792,-2.9895,-3.0177,-3.0914,-3.1937,-3.3349,-3.408,-3.5124,-3.6817,-3.8173,-3.8304,-3.657,-3.7313,-3.7588,-3.6833,-3.6763,-3.6686,-3.6492,-3.6058,-3.5818,-3.5818,-3.5838,-3.5831,-3.5831,-3.66,-3.6964,-3.6994,-3.7761,-3.8035,-3.7761,-3.6991,-3.6699,-3.6758,-3.6003,-3.5964,-3.6429,-3.6446,-3.6862,-3.7378,-3.6166,-3.5589,-3.5305,-3.4758,-3.4087,-3.3512,-3.3684,-3.3744,-3.3626,-3.2882,-3.2666,-3.2513,-3.1765,-3.2053,-3.2374,-3.114,-3.0463,-2.9785,-2.8518,-2.7993,-2.7604,-2.6877,-2.6691,-2.6606,-2.6227,-2.614,-2.5965,-2.5347,-2.4996,-2.4658,-2.4138,-2.3889,-2.3741,-2.3707,-2.3606,-2.3599,-2.3827,-2.366,-2.3599,-2.3827,-2.366,-2.3703,-2.4161,-2.419,-2.419,-2.419,-2.419,-2.419,-2.419,-2.3986,-2.3865,-2.3865,-2.3621,-2.3522,-2.3522,-2.3522,-2.3522,-2.3522,-2.3522,-2.3522,-3.4585,-3.4985,-3.5263,-3.621,-3.4798,-3.3208,-3.3208,-3.1436,-2.9792,-2.9792,-2.9792,-2.9792,-2.9792,-2.9792,-2.9934,-3.0279,-3.0833,-3.1468,-3.2258,-3.3184,-3.4335,-3.5977,-3.6069,-3.5924,-3.5668,-3.5863,-3.574,-3.5138,-3.5389,-3.5558,-3.5558,-3.5502,-3.5504,-3.5504,-3.5504,-3.5504,-3.5504,-3.5943,-3.6059,-3.583,-3.6854,-3.6951,-3.6154,-3.5759,-3.5461,-3.5133,-3.4514,-3.451,0.0,-3.4946,-3.5235,-3.5527,-3.4376,-3.375,-3.3459,-3.297,-3.253,-3.2174,-3.2271,-3.2298,-3.2225,-3.1721,-3.1385,-3.1036,-3.0278,-3.0715,-3.1207,-3.0023,-2.9482,-2.9007,-2.8043,-2.7587,-2.7199,-2.6454,-2.6285,-2.6082,-2.5338,-2.5186,-2.4966,-2.4237,-2.3872,-2.3618,-2.3344,-2.3167,-2.3099,-2.33,-2.3247,-2.3288,-2.3471,-2.3335,-2.3288,-2.35,-2.3317,-2.3369,-2.3795,-2.3937,-2.4006,-2.4006,-2.4006,-2.3947,-2.3827,-2.361,-2.3511,-2.3511,-2.3311,-2.32,-2.32,-2.32,-2.32,-2.32,-2.32,-2.32,0.0,-3.4734,-3.5325,-3.5733,-3.4438,-3.305,-3.2972,-3.1332,0.0,-2.9792,-2.9792,-2.9792,-2.9792,-2.9792,-3.0113,-3.097,-3.1106,-3.1316,-3.192,-3.3309,-3.4416,-3.486,-3.2919,-3.2249,-3.397,-3.2901,-3.2503,-3.3472,-3.3775,-3.3959,-3.4095,-3.4905,-3.5409,-3.5429,-3.5429,-3.5429,-3.5429,-3.5429,-3.5085,-3.4444,-3.5768,-3.5386,-3.3545,-3.4788,-3.4331,-3.2527,-3.306,-3.3395,-3.3543,-3.3377,-3.3412,-3.3485,-3.2693,-3.2022,-3.147,-3.1446,-3.1414,-3.1294,-3.0644,-3.0387,-3.0319,-3.0146,-2.9663,-2.9028,-2.8286,-2.8948,-2.9798,-2.9036,-2.8312,-2.7755,-2.7619,-2.7114,-2.6437,-2.571,-2.5524,-2.5321,-2.4575,-2.4423,-2.4203,-2.346,-2.3325,-2.3105,-2.2429,-2.2548,-2.2751,-2.2712,-2.2947,-2.3129,-2.3153,-2.3159,-2.3129,-2.3153,-2.3159,-2.3141,-2.3189,-2.3488,-2.3671,-2.3671,-2.3671,-2.3533,-2.3212,-2.3177,-2.3165,-2.3165,-2.3159,-2.3117,-2.3093,-2.3117,-2.3117,-2.3093,-2.3117,-2.3147,-3.3818,0.0,-3.3138,-3.2535,-3.2,-3.1489,0.0,-3.0188,-2.9792,-2.9792,-2.9792,-2.9792,-2.9792,-2.9792,-2.9856,-3.0113,-3.0139,-3.0586,-3.1806,-3.3052,-3.3607,-3.2952,-3.3109,-3.2761,-3.1628,-3.2535,-3.3129,-3.2842,-3.2889,-3.3567,-3.5067,-3.4643,-3.4457,-3.4741,-3.4758,-3.4758,-3.4758,-3.4758,-3.4414,-3.3724,-3.4074,-3.3953,-3.3484,-3.3322,-3.2961,-3.2452,-3.1577,-3.1555,-3.2024,-3.096,-3.1161,-3.1966,-3.0758,-3.0217,-3.0064,-3.0007,-2.967,-2.9257,-2.9573,-2.9323,-2.8795,-2.8253,-2.7976,-2.77,-2.6965,-2.765,-2.8406,-2.7261,-2.7348,-2.7449,-2.5893,-2.5665,-2.5676,-2.4931,-2.4762,-2.4558,-2.3831,-2.3661,-2.3427,-2.2699,-2.2564,-2.2499,-2.233,-2.238,-2.248,-2.2656,-2.259,-2.2598,-2.2784,-2.263,-2.2581,-2.2797,-2.263,-2.2699,-2.3153,-2.3259,-2.3323,-2.3323,-2.3323,-2.3288,-2.32,-2.296,-2.2822,-2.2822,-2.262,-2.2337,-2.1989,-2.2337,-2.2337,-2.1989,-2.2351,-2.2508,-3.2558,-3.2357,-3.1924,-3.1852,-3.118,-3.0419,-2.9934,-2.9792,-2.9792,-2.9792,-2.9792,-2.9792,-2.9792,-2.9993,-3.0093,-2.9829,-3.0206,-3.0895,-3.1962,-3.2388,-3.2519,-3.2219,-3.2271,-3.1895,-3.071,-3.1357,-3.171,-3.1331,-3.1491,-3.2206,-3.3624,-3.3369,-3.3459,-3.4038,-3.4354,-3.4354,-3.4023,-3.4054,-3.3694,-3.3051,-3.335,-3.3185,-3.2557,-3.2198,-3.1854,-3.1539,-3.0522,-3.0319,-3.064,-2.9904,-2.9859,-3.0151,-2.9418,-2.8943,-2.8654,-2.8314,-2.7939,-2.7636,-2.7651,-2.7581,-2.7405,-2.6725,-2.6509,-2.6387,-2.5665,-2.5915,-2.6362,-2.5914,-2.5749,-2.5539,-2.4955,-2.4813,-2.4676,-2.4123,-2.4,-2.3797,-2.3054,-2.2902,-2.2784,-2.2381,-2.2296,-2.2296,-2.2296,-2.2296,-2.2349,-2.2487,-2.2385,-2.2349,-2.2487,-2.2402,-2.2363,-2.25,-2.2388,-2.2429,-2.276,-2.2786,-2.2845,-2.296,-2.2972,-2.2928,-2.2798,-2.2409,-2.2099,-2.1912,-2.1792,-2.1584,-2.1322,-2.1584,-2.1584,-2.1322,-2.1584,-2.1706,-3.118,-3.1187,-3.1428,-3.2182,-3.1259,-3.0073,-2.9843,-2.9792,-2.9792,-2.9792,-2.9663,-2.9573,-2.9753,-3.005,-3.0121,-2.9867,-3.0696,-3.1587,-3.2139,-3.1813,-3.1662,-3.2039,-3.121,-3.0583,-3.0507,-3.0068,-2.9869,-2.9998,-3.0227,-3.0829,-3.1903,-3.2103,-3.2628,-3.3603,-3.4024,-3.3872,-3.3167,-3.3378,-3.311,-3.2333,-3.2931,-3.2557,-3.1346,-3.1346,-3.0972,-3.0328,-2.9699,-2.9457,-2.9457,-2.9352,-2.8978,-2.8442,-2.8442,-2.8049,-2.7375,-2.6821,-2.6527,-2.6348,-2.5689,-2.5788,-2.6083,-2.5355,-2.5145,-2.5101,-2.4472,-2.4205,-2.4245,-2.48,-2.4183,-2.3518,-2.4232,-2.4013,-2.3539,-2.3137,-2.3027,-2.2862,-2.2226,-2.2092,-2.2092,-2.2092,-2.2092,-2.2092,-2.2092,-2.2092,-2.212,-2.218,-2.2194,-2.2223,-2.2296,-2.2296,-2.2296,-2.2296,-2.2296,-2.2296,-2.2296,-2.2237,-2.2284,-2.2525,-2.2538,-2.2412,-2.2106,-2.172,-2.1353,-2.1023,-2.0991,-2.0959,-2.0894,-2.0959,-2.0959,-2.0894,-2.0959,-2.0991,-3.097,-3.1268,-3.1363,-3.1418,-3.1549,-3.1356,-3.0073,-2.9792,-2.9792,-2.9792,-2.9028,-2.8648,-2.9624,-2.9089,-2.8785,-2.9675,-3.0696,-3.1587,-3.2139,-3.2139,-3.1938,-3.1562,-3.0984,-3.0432,-2.9967,-2.9842,-3.0139,-3.0932,-3.0506,-3.124,-3.35,-3.2676,-3.28,-3.4307,-3.335,-3.239,-3.1569,-3.2865,-3.2886,-3.1645,-3.1765,-3.1391,-3.0657,-3.0657,-3.0313,-2.9711,-2.9041,-2.8742,-2.8712,-2.8139,-2.7839,-2.775,-2.775,-2.7345,-2.6746,-2.6632,-2.6243,-2.5674,-2.4993,-2.4822,-2.4792,-2.41,-2.3874,-2.3881,-2.3775,-2.3369,-2.3088,-2.3664,-2.3935,-2.3836,-2.292,-2.2526,-2.2198,-2.1536,-2.1375,-2.1342,-2.1214,-2.1197,-2.1197,-2.1197,-2.1197,-2.1197,-2.1197,-2.1197,-2.1323,-2.1658,-2.1703,-2.1838,-2.2254,-2.2296,-2.2296,-2.2296,-2.2296,-2.2296,-2.2296,-2.1928,-2.1733,-2.1776,-2.1759,-2.1612,-2.1213,-2.1118,-2.1055,-2.0991,-2.0991,-2.0813,-2.0416,-2.0813,-2.0797,-2.0416,-2.0813,-2.0991,-2.9589,-2.9769,-2.987,-2.9149,-3.0561,-3.1839,-3.0891,-2.9957,-2.9325,-2.9325,-2.8229,-2.7412,-2.7919,-2.7988,-2.8535,-3.0283,-3.0504,-3.0736,-3.1642,-3.1524,-3.1148,-3.0595,-3.0319,-3.0068,-2.9817,-2.9792,-2.9972,-3.0419,-3.0348,-3.0655,-3.1453,-3.1579,-3.1797,-3.2232,-3.2422,-3.2139,-3.1382,-3.2422,-3.2258,-3.0866,-3.1278,-3.1137,-3.0492,-3.0163,-2.9654,-2.9011,-2.8364,-2.8064,-2.8049,-2.772,-2.76,-2.7555,-2.721,-2.6881,-2.6497,-2.5794,-2.5091,-2.4477,-2.4178,-2.4073,-2.4007,-2.3699,-2.3595,-2.3595,-2.3595,-2.34,-2.3182,-2.3137,-2.2722,-2.231,-2.23,-2.1711,-2.111,-2.1022,-2.0991,-2.0991,-2.0991,-2.0991,-2.0991,-2.0991,-2.0991,-2.0991,-2.0991,-2.0991,-2.1055,-2.1244,-2.1275,-2.1354,-2.1569,-2.16,-2.1675,-2.1899,-2.1736,-2.1691,-2.1899,-2.1522,-2.1275,-2.1275,-2.1275,-2.1086,-2.0633,-2.0616,-2.0532,-2.0294,-2.0294,-2.0191,-1.9965,-2.0191,-2.0191,-1.9982,-2.0191,-2.0294,-2.8347,-2.8397,-2.8484,-2.7392,-2.9139,-3.0989,-3.0746,-2.9552,-2.8556,-2.8761,-2.7432,-2.6318,-2.6598,-2.7166,-2.8175,-2.9986,-2.9827,-2.9815,-3.0898,-3.0773,-3.0457,-3.0043,-2.988,-2.9792,-2.9792,-2.9792,-2.9792,-2.9792,-3.0036,-3.0006,-2.9654,-3.049,-3.0904,-3.0746,-3.1722,-3.199,-3.1442,-3.1975,-3.1708,-3.0584,-3.1056,-3.0913,-3.0268,-2.9639,-2.8981,-2.8323,-2.7824,-2.76,-2.76,-2.76,-2.751,-2.7315,-2.6806,-2.6408,-2.5989,-2.4799,-2.4036,-2.3595,-2.3595,-2.3595,-2.3595,-2.3595,-2.3595,-2.3595,-2.3595,-2.3595,-2.3475,-2.2868,-2.1844,-2.1098,-2.1744,-2.1062,-2.0261,-2.0615,-2.0698,-2.0698,-2.0698,-2.0698,-2.0698,-2.0698,-2.0698,-2.0698,-2.0698,-2.0698,-2.0731,-2.0829,-2.0845,-2.0878,-2.0991,-2.0991,-2.1118,-2.143,-2.1181,-2.1086,-2.1275,-2.1007,-2.0797,-2.0698,-2.0698,-2.0532,-2.0176,-2.0158,-2.0017,-1.9708,-1.9708,-1.9708,-1.9708,-1.9708,-1.9708,-1.9708,-1.9708,-1.9708,-2.8136,-2.812,-2.8042,-2.7408,-2.7479,-2.7836,-2.8454,-2.7916,-2.7446,-2.8277,-2.6844,-2.5796,-2.6847,-2.6789,-2.6805,-2.7448,-2.8354,-2.9189,-2.9816,-3.0314,-3.0608,-3.0557,-3.0105,-2.9792,-2.9792,-2.9792,-2.9792,-2.9792,-2.9611,-2.9706,-3.0306,-3.0336,-3.0875,-3.2046,-3.1737,-3.1442,-3.1213,-3.1457,-3.1526,-3.1409,-3.0853,-3.0253,-2.9651,-2.8966,-2.8293,-2.766,-2.7615,-2.76,-2.76,-2.76,-2.724,-2.6686,-2.6617,-2.5839,-2.4664,-2.3939,-2.364,-2.3595,-2.3595,-2.3595,-2.3595,-2.3595,-2.3595,-2.3595,-2.3595,-2.3595,-2.3475,-2.2868,-2.2194,-2.15,-2.097,-2.0284,-1.9747,-1.9782,-1.9782,-1.9782,-1.9782,-1.9782,-1.9782,-1.9782,-1.9782,-1.9782,-1.9782,-1.9782,-1.9927,-2.0297,-2.0348,-2.0516,-2.0943,-2.0991,-2.1007,-2.1039,-2.1007,-2.0845,-2.0433,-2.0365,-2.0193,-1.9818,-1.9782,-1.9782,-1.9747,-1.9729,-1.9744,-1.9708,-1.9708,-1.9708,-1.9708,-1.9708,-1.9708,-1.9708,-1.9708,-1.9708,-2.729,-2.6754,-2.6193,-2.5334,-2.5117,-2.5816,-2.8419,-2.7973,-2.7076,-2.7385,-2.6293,-2.5254,-2.5402,-2.507,-2.5222,-2.6497,-2.7042,-2.7517,-2.8141,-2.8442,-2.8662,-2.9027,-2.8849,-2.9028,-2.974,-2.9792,-2.9792,-2.9792,-2.9958,-2.9715,-2.9021,-2.9685,-3.014,-3.0193,-3.0574,-3.0954,-3.1368,-3.1038,-3.0896,-3.0896,-3.0627,-2.9968,-2.8966,-2.8712,-2.8218,-2.76,-2.76,-2.736,-2.6986,-2.6986,-2.6572,-2.5944,-2.5516,-2.4784,-2.3954,-2.3684,-2.3595,-2.3595,-2.3595,-2.3595,-2.3595,-2.3595,-2.3362,-2.3047,-2.3047,-2.2742,-2.2278,-2.1635,-2.1276,-2.1017,-2.0763,-2.0198,-1.9708,-1.9708,-1.9708,-1.9708,-1.9708,-1.9708,-1.9708,-1.9708,-1.9708,-1.9708,-1.9708,-1.9708,-1.9747,-1.9894,-1.9927,-1.9997,-2.0156,-2.0191,-2.0294,-2.0533,-2.0566,-2.0382,-1.9947,-1.9927,-1.9856,-1.9708,-1.9708,-1.9708,-1.9708,-1.9708,-1.9708,-1.9708,-1.9708,-1.9548,-1.9207,-1.9207,-1.9024,-1.8708,-1.8708,-1.8708,-2.6678,-2.5594,-2.4517,-2.3752,-2.3691,-2.4526,-2.7377,-2.7037,-2.6203,-2.6644,-2.5752,-2.4727,-2.4297,-2.3867,-2.393,-2.5091,-2.561,-2.5966,-2.646,-2.6808,-2.7118,-2.7347,-2.7648,-2.8186,-2.8989,-2.9199,-2.9327,-2.9503,-2.9468,-2.8949,-2.7894,-2.8769,-2.8993,-2.8361,-2.9178,-2.9925,-3.0524,-2.9852,-2.9514,-2.9533,-2.9103,-2.8828,-2.8592,-2.8368,-2.7929,-2.7285,-2.7285,-2.6911,-2.6273,-2.6273,-2.5899,-2.5217,-2.4545,-2.4014,-2.3595,-2.3595,-2.3595,-2.3595,-2.3595,-2.3486,-2.3289,-2.3118,-2.2763,-2.2336,-2.2171,-2.1917,-2.156,-2.0882,-2.0703,-2.0643,-2.0453,-2.0034,-1.9708,-1.9708,-1.9708,-1.9708,-1.9708,-1.9708,-1.9708,-1.9708,-1.9708,-1.9708,-1.9708,-1.9708,-1.9708,-1.9708,-1.9708,-1.9708,-1.9708,-1.9708,-1.9818,-2.0072,-2.0106,-2.0,-1.9711,-1.9708,-1.9708,-1.9708,-1.9708,-1.9708,-1.9708,-1.9708,-1.9708,-1.9708,-1.953,-1.9262,-1.8893,-1.8727,-1.8458,-1.8106,-1.8106,-1.8106,-2.6483,-2.4819,-2.3101,-2.3091,-2.3467,-2.4014,-2.492,-2.4727,-2.4795,-2.6103,-2.5322,-2.4287,-2.3867,-2.3437,-2.3091,-2.3091,-2.4049,-2.4787,-2.4777,-2.5755,-2.6281,-2.5829,-2.6674,-2.7311,-2.749,-2.7841,-2.8298,-2.8838,-2.7896,-2.7281,-2.7268,-2.7527,-2.7426,-2.691,-2.7721,-2.8238,-2.8396,-2.7636,-2.7341,-2.7459,-2.6118,-2.6569,-2.8562,-2.7874,-2.72,-2.6572,-2.6572,-2.6198,-2.56,-2.5576,-2.5187,-2.453,-2.3864,-2.3595,-2.3595,-2.3595,-2.3595,-2.3595,-2.3595,-2.3187,-2.2602,-2.2084,-2.1802,-2.1585,-2.1037,-2.1248,-2.1525,-2.0868,-2.0688,-2.0524,-1.9869,-1.9708,-1.9708,-1.9708,-1.9708,-1.9708,-1.9708,-1.9708,-1.9708,-1.9708,-1.9708,-1.9708,-1.9708,-1.9708,-1.9708,-1.9708,-1.9708,-1.9708,-1.9708,-1.9708,-1.9708,-1.9708,-1.9708,-1.969,-1.969,-1.969,-1.969,-1.969,-1.969,-1.969,-1.9708,-1.9708,-1.969,-1.969,-1.9169,-1.8893,-1.8874,-1.8361,-1.8086,-1.8086,-1.8086,-1.8086,-2.5504,-2.4456,-2.3525,-2.3169,-2.3691,-2.4297,-2.4551,-2.4746,-2.499,-2.5381,-2.4668,-2.3935,-2.3809,-2.3437,-2.3091,-2.3091,-2.3387,-2.3527,-2.3228,-2.3475,-2.3794,-2.4159,-2.4454,-2.5234,-2.6714,-2.6973,-2.7409,-2.8262,-2.7682,-2.7153,-2.6763,-2.6409,-2.6252,-2.6316,-2.66,-2.7012,-2.7621,-2.6566,-2.605,-2.6062,-2.4823,-2.4996,-2.6389,-2.5314,-2.5241,-2.5875,-2.5462,-2.5118,-2.4859,-2.4403,-2.4088,-2.3879,-2.3684,-2.3595,-2.3595,-2.3595,-2.3595,-2.353,-2.3098,-2.2607,-2.2025,-2.1405,-2.0589,-1.9831,-1.9669,-1.942,-1.9196,-1.9372,-1.9424,-1.9474,-1.9647,-1.9708,-1.9708,-1.9708,-2.0049,-2.0273,-1.9813,-2.0064,-2.0258,-1.9798,-1.9708,-1.9708,-1.9708,-1.9708,-1.9708,-1.9708,-1.9708,-1.9708,-1.9708,-1.9708,-1.9708,-1.9708,-1.9369,-1.9151,-1.9151,-1.8798,-1.8574,-1.8574,-1.8574,-1.8912,-1.9672,-1.935,-1.9151,-1.9151,-1.8612,-1.8165,-1.7767,-1.7605,-1.7353,-1.6972,-1.6972,-1.6972,-2.4999,-2.4165,-2.3516,-2.3418,-2.3916,-2.4414,-2.4414,-2.4756,-2.5067,-2.4844,-2.4268,-2.3789,-2.3789,-2.3437,-2.3091,-2.3091,-2.2955,-2.2818,-2.273,-2.2471,-2.2399,-2.2798,-2.3066,-2.3681,-2.4986,-2.5269,-2.5797,-2.6808,-2.6388,-2.5985,-2.5837,-2.5473,-2.528,-2.5286,-2.526,-2.544,-2.5745,-2.4741,-2.4282,-2.4327,-2.3083,-2.2996,-2.3947,-2.3796,-2.3978,-2.4423,-2.4066,-2.3888,-2.3843,-2.3687,-2.3595,-2.358,-2.3325,-2.3385,-2.3543,-2.3038,-2.2884,-2.2841,-2.2208,-2.1468,-2.0684,-2.0059,-1.9366,-1.8705,-1.846,-1.8255,-1.8185,-1.8496,-1.8574,-1.865,-1.8987,-1.9062,-1.9169,-1.9603,-1.9842,-1.987,-1.9476,-1.9712,-1.9874,-1.9461,-1.9548,-1.9708,-1.9708,-1.9708,-1.9708,-1.9708,-1.9708,-1.9708,-1.9708,-1.9708,-1.9621,-1.9406,-1.9095,-1.8817,-1.8593,-1.8302,-1.8106,-1.8106,-1.8106,-1.84,-1.9043,-1.8746,-1.8574,-1.8574,-1.8066,-1.7626,-1.7312,-1.7097,-1.6816,-1.65,-1.65,-1.65,-2.466,-2.382,-2.3115,-2.3647,-2.4102,-2.4322,-2.4127,-2.4547,-2.4824,-2.4394,-2.4023,-2.3779,-2.374,-2.3408,-2.3081,-2.3042,-2.2721,-2.2617,-2.2877,-2.2314,-2.1807,-2.1768,-2.2209,-2.259,-2.2794,-2.3149,-2.377,-2.472,-2.4423,-2.4333,-2.4608,-2.468,-2.4469,-2.3866,-2.3853,-2.3633,-2.3232,-2.2502,-2.2263,-2.2405,-2.1204,-2.091,-2.1471,-2.2751,-2.3066,-2.2539,-2.2578,-2.2603,-2.2649,-2.3209,-2.345,-2.3448,-2.2801,-2.2906,-2.3286,-2.2011,-2.1628,-2.165,-2.0974,-1.9999,-1.8936,-1.8385,-1.8135,-1.7952,-1.74,-1.7565,-1.7967,-1.8007,-1.8027,-1.8046,-1.8086,-1.8106,-1.8361,-1.9332,-1.9232,-1.8893,-1.8836,-1.8879,-1.8893,-1.8836,-1.9262,-1.9603,-1.9566,-1.9584,-1.9603,-1.9566,-1.9548,-1.9566,-1.9621,-1.9584,-1.9387,-1.8949,-1.8817,-1.8554,-1.8066,-1.7987,-1.7947,-1.7947,-1.7947,-1.7947,-1.7947,-1.8007,-1.8027,-1.8027,-1.7504,-1.7229,-1.7229,-1.6731,-1.65,-1.65,-1.65,-1.65,-2.3714,-2.2774,-2.2381,-2.3535,-2.4102,-2.3886,-2.1868,-2.2796,-2.3935,-2.3461,-2.3613,-2.3682,-2.334,-2.3159,-2.2984,-2.2705,-2.2568,-2.2305,-2.1687,-2.1453,-2.124,-2.0928,-2.0987,-2.1334,-2.2109,-2.2279,-2.2624,-2.3309,-2.3863,-2.3883,-2.318,-2.3808,-2.3715,-2.2711,-2.2673,-2.2434,-2.1909,-2.134,-2.1062,-2.1085,-2.0355,-2.0064,-2.0207,-2.0502,-2.0847,-2.124,-2.1708,-2.1922,-2.1922,-2.2063,-2.2423,-2.2794,-2.1701,-2.1699,-2.2127,-2.0897,-2.0463,-2.0376,-1.9723,-1.9044,-1.8385,-1.7779,-1.7248,-1.6845,-1.6718,-1.6752,-1.693,-1.7353,-1.7463,-1.7565,-1.7987,-1.8106,-1.8165,-1.84,-1.8764,-1.8915,-1.838,-1.8699,-1.8915,-1.8366,-1.8708,-1.8949,-1.8516,-1.8798,-1.893,-1.8516,-1.8438,-1.8593,-1.9024,-1.8688,-1.8554,-1.8874,-1.8165,-1.7605,-1.7483,-1.7097,-1.6837,-1.6837,-1.6837,-1.6837,-1.6837,-1.725,-1.7463,-1.7463,-1.6951,-1.668,-1.668,-1.6552,-1.65,-1.65,-1.65,-1.65,-2.3207,-2.2342,-2.1771,-2.2719,-2.2825,-2.2447,-2.1508,-2.168,-2.188,-2.1491,-2.2494,-2.3408,-2.314,-2.2925,-2.2721,-2.2549,-2.2168,-2.1816,-2.1582,-2.1182,-2.0908,-2.0889,-2.0732,-2.07,-2.0956,-2.0974,-2.1135,-2.1441,-2.1874,-2.1924,-2.1383,-2.213,-2.2194,-2.1432,-2.1736,-2.1656,-2.1131,-2.083,-2.0553,-2.0277,-1.9949,-1.9798,-1.9798,-1.9798,-2.0003,-2.0333,-2.0721,-2.0897,-2.0897,-2.1203,-2.136,-2.1407,-2.0679,-2.0678,-2.0904,-1.9663,-1.9214,-1.9157,-1.8511,-1.7924,-1.7402,-1.7071,-1.676,-1.65,-1.65,-1.65,-1.6552,-1.6837,-1.6909,-1.6972,-1.725,-1.7333,-1.7333,-1.7333,-1.7806,-1.8133,-1.7794,-1.799,-1.8133,-1.7781,-1.8165,-1.8438,-1.8165,-1.8341,-1.8419,-1.8145,-1.8106,-1.8204,-1.8477,-1.8283,-1.8125,-1.8145,-1.7626,-1.7188,-1.693,-1.6398,-1.6073,-1.6073,-1.581,-1.5634,-1.5634,-1.6179,-1.6629,-1.6909,-1.6637,-1.65,-1.65,-1.65,-1.65,-1.65,-1.65,-1.6358,-2.2553,-2.1973,-2.1329,-2.1391,-2.1221,-2.1023,-2.1005,-2.0505,-1.9851,-1.9279,-2.0953,-2.2501,-2.2501,-2.2168,-2.1907,-2.1798,-2.1142,-2.0742,-2.1059,-2.0657,-2.0458,-2.0785,-2.0605,-2.0312,-1.9951,-1.9844,-1.9756,-1.9665,-1.9799,-1.9828,-1.9678,-2.0473,-2.067,-2.0086,-2.0844,-2.0974,-2.0353,-2.0487,-2.0302,-1.9798,-1.9798,-1.9798,-1.9798,-1.9798,-1.9748,-1.9673,-1.9786,-1.9766,-1.9722,-2.0223,-2.0242,-1.9907,-1.9587,-1.959,-1.9657,-1.8384,-1.7943,-1.793,-1.7413,-1.6923,-1.65,-1.65,-1.65,-1.65,-1.65,-1.65,-1.65,-1.65,-1.65,-1.65,-1.65,-1.65,-1.65,-1.65,-1.6837,-1.7146,-1.7146,-1.7146,-1.7146,-1.7146,-1.7524,-1.7847,-1.7947,-1.7887,-1.7827,-1.7827,-1.7827,-1.7867,-1.7947,-1.7887,-1.7686,-1.7353,-1.7209,-1.6951,-1.6389,-1.5886,-1.5565,-1.5454,-1.4971,-1.4698,-1.4698,-1.5186,-1.5688,-1.6173,-1.6281,-1.6324,-1.6324,-1.6238,-1.6194,-1.6194,-1.6194,-1.592,-2.0833,-2.1014,-2.1085,-1.939,-2.0409,-2.0997,-1.7794,-1.8355,-1.9279,-1.8149,-1.9047,-1.9988,-1.9988,-1.9737,-1.9433,-1.9015,-1.8659,-1.8294,-1.7973,-1.866,-1.9222,-1.9277,-1.9716,-1.998,-1.9922,-1.958,-1.9206,-1.8803,-1.9475,-1.9572,-1.8807,-1.9969,-2.0059,-1.8799,-1.9801,-1.9933,-1.8967,-1.9587,-1.9874,-1.9798,-1.9798,-1.9798,-1.9798,-1.9798,-1.956,-1.9108,-1.9132,-1.8865,-1.8447,-1.8528,-1.8825,-1.9145,-1.8138,-1.8052,-1.8382,-1.7179,-1.673,-1.673,-1.6656,-1.6563,-1.65,-1.65,-1.65,-1.65,-1.65,-1.65,-1.65,-1.65,-1.65,-1.65,-1.65,-1.65,-1.65,-1.65,-1.6552,-1.6616,-1.6616,-1.6616,-1.6616,-1.6616,-1.6659,-1.6858,-1.7333,-1.7013,-1.671,-1.671,-1.671,-1.6879,-1.7353,-1.6993,-1.6858,-1.725,-1.6879,-1.6367,-1.5764,-1.5654,-1.5387,-1.4858,-1.4744,-1.4698,-1.4698,-1.4766,-1.4858,-1.4926,-1.5454,-1.572,-1.572,-1.5197,-1.4926,-1.4926,-1.4926,-1.4915,-1.9753,-1.903,-1.8698,-1.7971,-1.804,-1.8079,-1.725,-1.7265,-1.7304,-1.6756,-1.6933,-1.7674,-1.9227,-1.9079,-1.8649,-1.844,-1.7945,-1.7524,-1.7318,-1.7747,-1.8191,-1.8572,-1.9058,-1.9335,-1.9195,-1.9463,-1.9258,-1.8315,-1.8834,-1.8825,-1.7981,-1.887,-1.8928,-1.7802,-1.9046,-1.9392,-1.8727,-1.9423,-1.9798,-1.9798,-1.9798,-1.9798,-1.9798,-1.9798,-1.9522,-1.8983,-1.8669,-1.8254,-1.7739,-1.7739,-1.7708,-1.7624,-1.7473,-1.7362,-1.7235,-1.6705,-1.65,-1.65,-1.65,-1.65,-1.65,-1.65,-1.65,-1.65,-1.65,-1.65,-1.65,-1.65,-1.65,-1.65,-1.65,-1.65,-1.65,-1.65,-1.65,-1.65,-1.65,-1.65,-1.65,-1.65,-1.65,-1.6573,-1.6816,-1.6377,-1.6008,-1.6008,-1.6008,-1.5952,-1.5862,-1.5918,-1.6083,-1.6318,-1.583,-1.5511,-1.5588,-1.4971,-1.448,-1.4213,-1.3884,-1.3681,-1.3681,-1.4014,-1.419,-1.419,-1.4778,-1.5096,-1.5096,-1.4835,-1.4698,-1.4698,-1.4698,-1.4514,-1.9256,-1.7709,-1.6754,-1.7041,-1.6483,-1.6077,-1.6911,-1.6425,-1.5758,-1.5684,-1.5545,-1.6024,-1.7979,-1.7833,-1.7455,-1.7541,-1.6933,-1.6486,-1.6486,-1.6723,-1.7073,-1.7586,-1.8079,-1.8452,-1.8537,-1.8923,-1.8889,-1.8208,-1.8325,-1.812,-1.7422,-1.7908,-1.7883,-1.7092,-1.8331,-1.8854,-1.8592,-1.9406,-1.9798,-1.9798,-1.9798,-1.9798,-1.9798,-1.966,-1.9371,-1.897,-1.8418,-1.7802,-1.7162,-1.7162,-1.6911,-1.6538,-1.6999,-1.6898,-1.65,-1.65,-1.65,-1.65,-1.65,-1.65,-1.65,-1.65,-1.65,-1.65,-1.65,-1.65,-1.65,-1.65,-1.65,-1.65,-1.65,-1.638,-1.6259,-1.6259,-1.6151,-1.6129,-1.6423,-1.65,-1.65,-1.65,-1.65,-1.6445,-1.6303,-1.5908,-1.5543,-1.5387,-1.5365,-1.5208,-1.4766,-1.5096,-1.5365,-1.5365,-1.4971,-1.4812,-1.5107,-1.4318,-1.3732,-1.3576,-1.3152,-1.2905,-1.2905,-1.3324,-1.3576,-1.3576,-1.4014,-1.4317,-1.4468,-1.4317,-1.4247,-1.4247,-1.4247,-1.399,-1.9435,-1.7971,-1.6415,-1.6746,-1.6974,-1.6813,-1.5773,-1.5678,-1.5752,-1.5478,-1.5404,-1.5363,-1.523,-1.4926,-1.4805,-1.5133,-1.4679,-1.425,-1.425,-1.5137,-1.582,-1.5838,-1.6405,-1.7211,-1.8222,-1.7621,-1.7549,-1.8498,-1.8217,-1.7852,-1.7402,-1.7448,-1.7233,-1.6741,-1.7492,-1.8012,-1.831,-1.9298,-1.9798,-1.9798,-1.9798,-1.9798,-1.9786,-1.9271,-1.9033,-1.897,-1.8418,-1.7576,-1.6538,-1.6538,-1.6525,-1.65,-1.6525,-1.6525,-1.65,-1.65,-1.65,-1.65,-1.65,-1.65,-1.65,-1.65,-1.65,-1.65,-1.65,-1.65,-1.65,-1.65,-1.65,-1.65,-1.65,-1.6073,-1.5654,-1.5654,-1.5208,-1.5119,-1.625,-1.65,-1.65,-1.65,-1.65,-1.6315,-1.5742,-1.561,-1.541,-1.4835,-1.4744,-1.4744,-1.4698,-1.4721,-1.4744,-1.4744,-1.4732,-1.4491,-1.3933,-1.3839,-1.3552,-1.2968,-1.2929,-1.2905,-1.2905,-1.2929,-1.2954,-1.2954,-1.2968,-1.3286,-1.3839,-1.3262,-1.2992,-1.2992,-1.2992,-1.2968,-2.0109,-1.8044,-1.5992,-1.6279,-1.59,-1.5396,-1.5206,-1.5197,-1.5244,-1.5137,-1.497,-1.4863,-1.4995,-1.4723,-1.4556,-1.4663,-1.4342,-1.4088,-1.4088,-1.4454,-1.4823,-1.5257,-1.5749,-1.6269,-1.6775,-1.7714,-1.8194,-1.8055,-1.8548,-1.8643,-1.8178,-1.793,-1.7588,-1.7168,-1.7562,-1.8043,-1.8538,-1.8917,-1.9333,-1.9798,-1.9798,-1.9798,-1.9786,-1.9246,-1.8807,-1.8468,-1.7915,-1.7451,-1.7049,-1.6651,-1.65,-1.65,-1.65,-1.65,-1.65,-1.65,-1.65,-1.65,-1.65,-1.65,-1.65,-1.65,-1.65,-1.6423,-1.603,-1.5908,-1.5842,-1.5444,-1.5622,-1.5908,-1.5908,-1.5764,-1.5499,-1.5096,-1.4858,-1.4812,-1.5242,-1.5332,-1.5332,-1.5332,-1.5332,-1.5265,-1.505,-1.471,-1.4365,-1.4143,-1.412,-1.399,-1.3586,-1.3873,-1.412,-1.412,-1.3789,-1.361,-1.3802,-1.3443,-1.3128,-1.2905,-1.2905,-1.2905,-1.2905,-1.2905,-1.2905,-1.2905,-1.2905,-1.3017,-1.3214,-1.3017,-1.2905,-1.2905,-1.2905,-1.2905,-2.1275,-1.9156,-1.7001,-1.635,-1.5595,-1.4991,-1.4851,-1.4941,-1.4981,-1.4881,-1.4656,-1.4549,-1.4649,-1.4509,-1.4409,-1.4502,-1.4355,-1.4229,-1.4229,-1.4322,-1.4559,-1.5006,-1.5189,-1.5489,-1.5991,-1.7352,-1.8135,-1.7934,-1.8625,-1.8945,-1.8617,-1.7935,-1.7383,-1.6985,-1.7379,-1.791,-1.8553,-1.8664,-1.8965,-1.9437,-1.9495,-1.9395,-1.9153,-1.8672,-1.838,-1.8166,-1.7413,-1.7087,-1.7061,-1.6672,-1.65,-1.65,-1.65,-1.638,-1.6194,-1.6194,-1.6086,-1.591,-1.591,-1.591,-1.5932,-1.6129,-1.6064,-1.5854,-1.5654,-1.5454,-1.5208,-1.4812,-1.4994,-1.5343,-1.5543,-1.5454,-1.5096,-1.4294,-1.4095,-1.4095,-1.4095,-1.441,-1.4698,-1.4698,-1.4698,-1.4629,-1.4422,-1.4073,-1.3732,-1.3529,-1.3505,-1.3348,-1.2954,-1.3238,-1.3505,-1.3505,-1.3152,-1.3055,-1.3457,-1.3128,-1.2905,-1.2905,-1.2905,-1.2905,-1.2905,-1.2905,-1.2905,-1.2905,-1.2905,-1.2905,-1.2905,-1.2905,-1.2905,-1.2905,-1.2905,-1.2905,0.0,0.0,0.0,-1.7058,-1.6277,-1.5826,-1.4742,-1.4767,-1.4901,-1.4569,-1.4502,-1.4422,-1.4093,-1.4088,-1.4182,-1.4426,-1.4479,-1.4479,-1.4529,-1.4783,-1.5008,-1.5008,-1.471,-1.4907,-1.5991,-1.6457,-1.7128,-1.8196,-1.8486,-1.8592,-1.8617,-1.7408,-1.6543,-1.6105,-1.6807,-1.7515,-1.8247,-1.8503,-1.8623,-1.8664,-1.8843,-1.856,-1.7882,-1.7525,-1.7677,-1.8116,-1.6999,-1.65,-1.65,-1.65,-1.65,-1.65,-1.6466,-1.6129,-1.561,-1.5588,-1.5208,-1.4698,-1.4698,-1.4698,-1.4789,-1.5387,-1.5186,-1.4812,-1.5365,-1.5141,-1.4675,-1.4652,-1.4663,-1.4812,-1.5387,-1.5096,-1.4363,-1.3176,-1.2905,-1.2905,-1.2905,-1.3823,-1.4663,-1.4663,-1.4663,-1.4468,-1.3862,-1.3768,-1.3576,-1.2992,-1.2905,-1.2905,-1.2905,-1.2905,-1.2905,-1.2905,-1.2905,-1.2905,-1.2905,-1.2881,-1.2881,-1.2905,-1.2856,-1.2856,-1.2881,-1.2856,-1.2832,-1.2832,-1.2832,-1.2832,-1.2832,-1.2881,-1.2905,-1.2905,-1.2905,-1.2881,-2.6145,0.0,0.0,0.0,0.0,0.0,-1.5245,-1.465,-1.4309,-1.4222,-1.4208,-1.3913,-1.2954,-1.3512,-1.392,-1.3349,-1.398,-1.4596,-1.481,-1.4955,-1.5008,-1.5008,-1.4934,-1.497,-1.5266,-1.5868,-1.6739,-1.7869,-1.8207,-1.8592,-1.9085,-1.79,-1.6887,-1.6114,-1.6297,-1.6614,-1.6985,-1.7071,-1.7236,-1.7478,-1.7534,-1.7524,-1.7445,-1.693,-1.7025,-1.7564,-1.6835,-1.65,-1.65,-1.65,-1.65,-1.6457,-1.603,-1.5742,-1.5543,-1.5096,-1.4835,-1.4698,-1.4698,-1.4698,-1.4721,-1.4903,-1.4835,-1.4652,-1.4388,-1.4179,-1.3956,-1.3515,-1.3718,-1.4097,-1.4249,-1.4167,-1.3849,-1.3079,-1.2905,-1.2905,-1.2905,-1.3152,-1.3406,-1.3406,-1.3406,-1.3334,-1.3176,-1.3152,-1.3079,-1.2929,-1.2905,-1.2905,-1.2905,-1.2905,-1.2905,-1.2905,-1.2905,-1.2905,-1.2905,-1.2403,-1.232,-1.2881,-1.195,-1.1609,-1.208,-1.1633,-1.1384,-1.1384,-1.1384,-1.1384,-1.1384,-1.2412,-1.2905,-1.2905,-1.2905,-1.2608,-2.7822,-2.6037,-2.4041,-2.1946,0.0,0.0,-1.6378,-1.5135,-1.4185,-1.3763,-1.3359,-1.2746,-1.1636,-1.2021,-1.2432,-1.2124,-1.2682,-1.3619,-1.4961,-1.5251,-1.5324,-1.5324,-1.5217,-1.5189,-1.5189,-1.5733,-1.6565,-1.7719,-1.8131,-1.8432,-1.8754,-1.7715,-1.6797,-1.6114,-1.5919,-1.6047,-1.6492,-1.6322,-1.6356,-1.6523,-1.6439,-1.6269,-1.6075,-1.6068,-1.6279,-1.664,-1.6286,-1.6117,-1.6107,-1.5854,-1.5898,-1.6051,-1.5454,-1.5073,-1.4824,-1.4434,-1.4177,-1.3954,-1.3954,-1.3954,-1.4001,-1.4236,-1.4154,-1.3931,-1.3826,-1.3613,-1.3348,-1.2992,-1.3324,-1.3732,-1.3481,-1.3624,-1.3637,-1.3041,-1.2905,-1.2905,-1.2905,-1.2905,-1.2905,-1.2905,-1.2642,-1.2452,-1.2452,-1.2197,-1.2024,-1.2024,-1.2024,-1.2024,-1.2024,-1.2024,-1.2024,-1.2024,-1.2024,-1.2024,-1.2024,-1.1625,-1.1575,-1.1999,-1.125,-1.099,-1.1366,-1.1015,-1.0788,-1.0788,-1.0788,-1.0788,-1.0788,-1.1891,-1.2452,-1.2452,-1.2452,-1.2064,-2.8714,-2.7954,-2.7078,-2.3474,-2.1484,0.0,-1.798,-1.6142,-1.4534,-1.3498,-1.2587,-1.1662,-1.0435,-1.0393,-1.063,-1.0868,-1.1136,-1.22,-1.4876,-1.5423,-1.5635,-1.5778,-1.5605,-1.5444,-1.5444,-1.58,-1.6536,-1.7735,-1.8193,-1.8286,-1.8008,-1.7165,-1.6523,-1.6105,-1.5635,-1.5719,-1.6379,-1.5994,-1.575,-1.5698,-1.5401,-1.4944,-1.4356,-1.5085,-1.5432,-1.5499,-1.5499,-1.5499,-1.5454,-1.4858,-1.496,-1.5432,-1.4835,-1.426,-1.3802,-1.3732,-1.3348,-1.2905,-1.2905,-1.2905,-1.2992,-1.3529,-1.3334,-1.2992,-1.3552,-1.3334,-1.2905,-1.2905,-1.3286,-1.3576,-1.3041,-1.331,-1.3552,-1.3041,-1.2905,-1.2905,-1.2905,-1.2905,-1.2881,-1.2798,-1.2236,-1.1789,-1.169,-1.1191,-1.0788,-1.0788,-1.0788,-1.0788,-1.0788,-1.0788,-1.0788,-1.0788,-1.0788,-1.0788,-1.0788,-1.0737,-1.0712,-1.0788,-1.0661,-1.061,-1.0695,-1.0618,-1.0593,-1.0593,-1.0593,-1.061,-1.0686,-1.1366,-1.1665,-1.1591,-1.1665,-1.1341,-3.0536,-2.975,-2.8424,-2.6565,-2.4196,0.0,-1.9513,-1.7509,-1.577,-1.4565,-1.4173,-1.3253,-1.0677,-1.0959,-1.1185,-0.9857,-1.0591,-1.1976,-1.3927,-1.4232,-1.4657,-1.5683,-1.5731,-1.5698,-1.5698,-1.5609,-1.6267,-1.7989,-1.8735,-1.8778,-1.8022,-1.7165,-1.6523,-1.6105,-1.5635,-1.5468,-1.5604,-1.5216,-1.482,-1.4463,-1.4066,-1.3899,-1.3918,-1.4082,-1.4411,-1.488,-1.488,-1.488,-1.4835,-1.4213,-1.4329,-1.4812,-1.4213,-1.3909,-1.3732,-1.3262,-1.2992,-1.2905,-1.2905,-1.2905,-1.2929,-1.3041,-1.3002,-1.2929,-1.3041,-1.2992,-1.2905,-1.2905,-1.2968,-1.3065,-1.2929,-1.2992,-1.3041,-1.2929,-1.2905,-1.2905,-1.2905,-1.2905,-1.2715,-1.2129,-1.1888,-1.1641,-1.1091,-1.0889,-1.0788,-1.0788,-1.0788,-1.0788,-1.0788,-1.0788,-1.0788,-1.0788,-1.0788,-1.0788,-1.0788,-1.032,-1.0244,-1.0771,-0.9788,-0.9439,-0.9961,-0.9484,-0.9185,-0.9185,-0.9185,-0.9465,-0.9987,-1.0669,-1.0712,-1.0192,-1.0737,-1.0644,-3.0637,-3.0376,-2.9895,-2.8137,-2.6301,0.0,0.0,-2.0728,-1.8988,-1.7527,-1.6034,-1.4315,-1.2062,-1.093,-1.0019,-0.9022,-0.9042,-0.9785,-1.1489,-1.2989,-1.4118,-1.48,-1.5391,-1.5784,-1.5784,-1.5565,-1.6142,-1.7851,-1.8976,-1.9326,-1.8682,-1.7832,-1.707,-1.6416,-1.5967,-1.5635,-1.541,-1.4775,-1.4328,-1.4104,-1.3496,-1.3239,-1.3348,-1.3661,-1.3956,-1.426,-1.426,-1.426,-1.419,-1.36,-1.3539,-1.3776,-1.3467,-1.3348,-1.331,-1.3017,-1.2905,-1.2905,-1.2905,-1.2905,-1.2905,-1.2905,-1.2905,-1.2905,-1.2905,-1.2905,-1.2905,-1.2905,-1.2905,-1.2905,-1.2905,-1.2905,-1.2905,-1.2905,-1.2608,-1.2344,-1.2344,-1.2098,-1.1642,-1.0948,-1.0788,-1.0686,-1.0364,-1.0012,-0.9814,-0.9814,-0.9814,-0.9814,-0.9814,-0.9814,-0.9814,-0.9814,-0.9814,-0.9814,-0.9814,-0.9484,-0.9439,-0.9788,-0.9185,-0.8956,-0.929,-0.8982,-0.8804,-0.8804,-0.8804,-0.8956,-0.9309,-0.964,-0.9814,-0.9814,-1.0141,-0.9943,-3.0233,-3.0553,-3.1015,-2.9161,-2.7976,-2.6954,0.0,0.0,0.0,-2.086,-1.8519,-1.6197,-1.4432,-1.1991,-1.003,-0.9293,-0.8502,-0.8404,-0.9507,-1.1989,-1.3749,-1.385,-1.4968,-1.5718,-1.5771,-1.5744,-1.6296,-1.765,-1.8955,-1.9513,-1.9189,-1.8428,-1.7617,-1.6726,-1.6299,-1.588,-1.5391,-1.4533,-1.4104,-1.4094,-1.3281,-1.2905,-1.2929,-1.3396,-1.3637,-1.3637,-1.3637,-1.3637,-1.36,-1.3104,-1.2905,-1.2905,-1.2905,-1.2905,-1.2905,-1.2905,-1.2905,-1.2905,-1.2905,-1.2905,-1.2905,-1.2905,-1.2905,-1.2905,-1.2905,-1.2798,-1.2691,-1.27,-1.2593,-1.2486,-1.2486,-1.2486,-1.2486,-1.2486,-1.2039,-1.1616,-1.1616,-1.1191,-1.0593,-0.9935,-0.984,-0.9836,-0.9647,-0.9159,-0.8804,-0.8804,-0.8804,-0.8804,-0.8804,-0.8804,-0.8804,-0.8804,-0.8804,-0.8804,-0.8804,-0.8804,-0.8804,-0.8804,-0.8804,-0.8804,-0.8804,-0.8804,-0.8804,-0.8804,-0.8864,-0.8864,-0.8804,-0.8864,-0.9142,-0.9614,-0.9614,-0.9309,-3.0218,-3.0757,-3.1059,-3.0284,-2.9146,-2.7968,-2.6994,0.0,-2.4406,-2.3103,0.0,-2.0758,-1.8267,0.0,0.0,-1.2337,-1.1546,-1.1053,-1.0377,-1.193,-1.3239,-1.3666,-1.4735,-1.5545,-1.5758,-1.6412,-1.7033,-1.7566,-1.8394,-1.8791,-1.8699,-1.8237,-1.7617,-1.6726,-1.6299,-1.588,-1.5391,-1.4533,-1.4104,-1.4094,-1.3281,-1.2905,-1.2905,-1.2968,-1.2992,-1.2992,-1.2992,-1.2992,-1.2992,-1.2929,-1.2905,-1.2905,-1.2905,-1.2905,-1.2905,-1.2905,-1.2905,-1.2905,-1.2905,-1.2905,-1.2905,-1.2905,-1.2905,-1.2905,-1.2905,-1.2452,-1.1922,-1.1925,-1.1484,-1.1049,-1.1049,-1.1049,-1.1049,-1.1049,-1.0965,-1.0914,-1.0914,-1.0838,-1.0593,-0.9935,-1.0026,-0.995,-0.9083,-0.8857,-0.8804,-0.8804,-0.8804,-0.8804,-0.8804,-0.8804,-0.8804,-0.8804,-0.8804,-0.8804,-0.8804,-0.8804,-0.8804,-0.8804,-0.8804,-0.8804,-0.8804,-0.8804,-0.8804,-0.8804,-0.9031,-0.9038,-0.8804,-0.9038,-0.9085,-0.891,-0.891,-0.8883,-3.1646,-3.2038,-3.2296,-3.1636,-3.0733,-2.9836,-2.9086,-2.8505,-2.7859,-2.6973,0.0,0.0,0.0,0.0,0.0,0.0,-1.4962,-1.4115,-1.3701,-1.4351,-1.4536,-1.3634,-1.4631,-1.5511,-1.5751,-1.7134,-1.8033,-1.7935,-1.932,-1.982,-1.9046,-1.8848,-1.8242,-1.7148,-1.668,-1.624,-1.5791,-1.466,-1.4104,-1.4094,-1.3281,-1.2905,-1.2905,-1.2905,-1.2905,-1.2905,-1.2905,-1.2905,-1.2905,-1.2905,-1.2905,-1.2905,-1.2905,-1.2905,-1.2905,-1.2905,-1.2905,-1.2905,-1.2905,-1.2905,-1.2832,-1.2393,-1.2261,-1.2187,-1.1792,-1.1475,-1.1216,-1.1225,-1.1023,-1.0788,-1.0788,-1.0788,-1.0788,-1.0788,-1.0651,-1.0514,-1.0514,-1.0177,-0.9785,-0.9497,-0.9435,-0.9341,-0.9079,-0.9198,-0.9259,-0.9058,-0.9031,-0.8971,-0.8831,-0.8804,-0.8804,-0.8804,-0.8804,-0.8804,-0.8804,-0.8804,-0.8804,-0.8804,-0.8804,-0.8804,-0.8804,-0.8944,-0.9031,-0.9031,-0.9317,-0.9439,-0.9312,-0.9237,-0.9151,-0.9031,-0.8858,-0.8804,-3.154,-3.1958,-3.2471,-3.2135,-3.1614,-3.1125,-3.0908,-3.0688,-3.0485,-3.0223,-2.8984,0.0,0.0,0.0,-2.2025,-2.0482,0.0,-1.7755,-1.7478,-1.7415,-1.6605,-1.4463,-1.4949,-1.5731,-1.6271,-1.7636,-1.8556,-1.8664,-2.0043,-2.0408,-1.9365,-1.9287,-1.8701,-1.7422,-1.6921,-1.6514,-1.6095,-1.4785,-1.4104,-1.4094,-1.3281,-1.2905,-1.2905,-1.2905,-1.2905,-1.2905,-1.2905,-1.2905,-1.2905,-1.2905,-1.2905,-1.2905,-1.2905,-1.2905,-1.2905,-1.2905,-1.2905,-1.2905,-1.2905,-1.2774,-1.2501,-1.1972,-1.169,-1.1441,-1.0939,-1.0661,-1.0542,-1.0542,-1.0389,-1.0236,-1.0236,-1.0236,-1.0236,-1.0236,-1.0113,-0.9966,-0.9906,-0.9528,-0.9211,-0.9211,-0.9044,-0.9018,-0.9384,-0.9497,-0.9486,-0.9244,-0.9211,-0.9111,-0.8844,-0.8804,-0.8804,-0.8804,-0.8804,-0.8804,-0.8804,-0.8878,-0.8898,-0.8898,-0.8851,-0.8804,-0.8804,-0.9058,-0.9211,-0.9211,-0.9613,-0.9766,-0.9715,-0.9466,-0.9291,-0.9204,-0.8911,-0.8851,-2.8628,-2.9486,-3.0566,-3.1247,-3.1316,-3.1376,-3.2087,-3.1678,-3.1374,-3.2046,-3.2087,-3.1776,-3.0971,-2.9617,-2.7782,-2.53,-2.3522,0.0,0.0,-2.0688,-1.9326,-1.6546,-1.5968,-1.6285,-1.7498,-1.7677,-1.8342,-1.9835,-2.0018,-1.9832,-1.9338,-1.9287,-1.8701,-1.7422,-1.6921,-1.6514,-1.6095,-1.4785,-1.4104,-1.4094,-1.3281,-1.2905,-1.2905,-1.2905,-1.2905,-1.2905,-1.2905,-1.2905,-1.2905,-1.2905,-1.2905,-1.2905,-1.2905,-1.2905,-1.2905,-1.2905,-1.2905,-1.2905,-1.2905,-1.2427,-1.1839,-1.1814,-1.1366,-1.0838,-1.0813,-1.0338,-0.984,-0.984,-0.9361,-0.8857,-0.8857,-0.8857,-0.8857,-0.8857,-0.9052,-0.9158,-0.8904,-0.9038,-0.9211,-0.9211,-0.9204,-0.9377,-0.9957,-0.9597,-0.9224,-0.9211,-0.9211,-0.9111,-0.8844,-0.8804,-0.8804,-0.8804,-0.8804,-0.8804,-0.8804,-0.9038,-0.9198,-0.9198,-0.8938,-0.8804,-0.8804,-0.9058,-0.9211,-0.9211,-0.9777,-0.9967,-0.9715,-0.9702,-0.9519,-0.9204,-0.8911,-0.8931,-2.9235,-2.9816,-3.0595,-3.1238,-3.1007,-3.0786,-3.1435,-3.1004,-3.0818,-3.2056,-3.189,-3.1848,-3.2932,-3.1698,-3.0396,-2.9879,-2.8297,-2.7136,0.0,-2.5459,-2.3192,-2.0463,-1.8764,-1.7832,-1.8016,-1.8734,-1.9307,-1.9561,-2.0118,-2.009,-1.9346,-1.9287,-1.8828,-1.7832,-1.7077,-1.6629,-1.6514,-1.4903,-1.4104,-1.4094,-1.3281,-1.2905,-1.2905,-1.2905,-1.2905,-1.2881,-1.2369,-1.2452,-1.2847,-1.2369,-1.2452,-1.2856,-1.2369,-1.2476,-1.2905,-1.2905,-1.2905,-1.2905,-1.2905,-1.2427,-1.174,-1.1291,-1.0686,-1.0064,-0.9614,-0.9309,-0.9133,-0.9133,-0.8982,-0.8804,-0.8804,-0.8924,-0.9064,-0.9064,-0.9291,-0.9506,-0.9412,-0.9466,-0.9532,-0.9532,-0.9344,-0.9397,-0.9983,-0.9793,-0.9599,-0.9764,-0.9659,-0.9426,-0.9104,-0.8898,-0.8804,-0.8804,-0.8951,-0.9064,-0.9064,-0.9365,-0.9532,-0.9532,-0.9439,-0.9385,-0.9385,-0.9666,-0.979,-0.979,-0.9983,-1.0167,-1.0291,-0.9673,-0.9411,-0.9519,-0.9031,-0.8938,-2.8194,-2.8615,-2.9287,-3.0184,-3.0,-2.9927,-3.1035,-3.0937,-3.0892,-3.2081,-3.2496,-3.288,-3.364,-3.3236,-3.2715,-3.2517,-3.1361,-3.0525,0.0,-2.8559,-2.6282,-2.4194,-2.1595,-1.9653,-1.8913,-2.0175,-2.0796,-2.0098,-2.0684,-2.0556,-1.9346,-1.9287,-1.8896,-1.8037,-1.7145,-1.6697,-1.6697,-1.5128,-1.426,-1.4104,-1.3437,-1.3052,-1.2905,-1.2905,-1.2774,-1.2476,-1.1996,-1.1931,-1.2123,-1.1649,-1.1733,-1.2107,-1.1625,-1.1724,-1.2181,-1.2427,-1.2501,-1.2476,-1.223,-1.1683,-1.1015,-1.0593,-0.9987,-0.9361,-0.8929,-0.8804,-0.8804,-0.8804,-0.8804,-0.8804,-0.8804,-0.8998,-0.9211,-0.9211,-0.9466,-0.9653,-0.9552,-0.9613,-0.9715,-0.9715,-0.9526,-0.9557,-1.0174,-1.0033,-0.99,-1.0057,-0.996,-0.9733,-0.9404,-0.9232,-0.9118,-0.9118,-0.9285,-0.9411,-0.9517,-0.9633,-0.9726,-0.9833,-0.974,-0.9715,-0.9715,-0.9866,-1.0013,-1.0114,-1.0083,-1.0214,-1.0432,-0.9726,-0.9417,-0.9512,-0.9031,-0.8938]},{"header":{"parameterUnit":"m.s-1","parameterCategory":1,"la1":30.6,"la2":29.2853,"lo1":-89.7004,"lo2":-87.6739,"dy":0.0162,"dx":0.0183,"nx":112,"ny":82,"refTime":"2024-05-01T00:00:00:Z","depth":0,"parameterNumber":3,"parameterNumberName":"V-component_of_WINDS"},"data":[0.0,0.0,0.0,0.0,0.0,0.0,0.0,0.0,0.0,0.0,0.0,0.0,0.0,0.0,0.0,0.0,0.0,0.0,0.0,0.0,0.0,0.0,0.0,0.0,0.0,0.0,0.0,0.0,0.0,0.0,0.0,0.0,0.0,0.0,0.0,0.0,0.0,0.0,0.0,0.0,0.0,0.0,0.0,0.0,0.0,0.0,0.0,0.0,0.0,0.0,0.0,0.0,0.0,0.0,0.0,0.0,0.0,0.0,0.0,0.0,0.0,0.0,0.0,0.0,0.0,0.0,0.0,0.0,0.0,0.0,0.0,0.0,0.0,0.0,0.0,0.0,0.0,0.0,0.0,0.0,0.0,0.0,0.0,0.0,0.0,0.0,0.0,0.0,0.0,0.0,0.3923,0.3415,-0.1727,-0.5045,-0.4918,-0.8011,-1.0553,-1.1917,0.0,0.0,0.0,0.0,0.0,0.0,0.0,0.0,0.0,0.0,0.0,0.0,0.0,0.0,0.0,0.0,0.0,0.0,0.0,0.0,0.0,0.0,0.0,0.0,0.0,0.0,0.0,0.0,0.0,0.0,0.0,0.0,0.0,0.0,0.0,0.0,0.0,0.0,0.0,0.0,0.0,0.0,0.0,0.0,0.0,0.0,0.0,0.0,0.0,0.0,0.0,0.0,0.0,0.0,0.0,0.0,0.0,0.0,0.0,0.0,0.0,0.0,0.0,0.0,0.0,0.0,0.0,0.0,0.0,0.0,0.0,0.0,0.0,0.0,0.0,0.0,0.0,0.0,0.0,0.0,0.0,0.0,0.0,0.0,0.0,0.0,0.0,0.0,0.0,0.0,0.0,0.0,0.0,0.0,0.0,0.0,0.0,0.0,0.0,0.0,0.0,0.0,0.0,0.0,0.2891,0.0801,-0.2789,-0.5067,-0.5055,-0.791,-1.0362,-1.2057,0.0,0.0,0.0,0.0,0.0,0.0,0.0,0.0,0.0,0.0,0.0,0.0,0.0,0.0,0.0,0.0,0.0,0.0,0.0,0.0,0.0,0.0,0.0,0.0,0.0,0.0,0.0,0.0,0.0,0.0,0.0,0.0,0.0,0.0,0.0,0.0,0.0,0.0,0.0,0.0,0.0,0.0,0.0,0.0,0.0,0.0,0.0,0.0,0.0,0.0,0.0,0.0,0.0,0.0,0.0,0.0,0.0,0.0,0.0,0.0,0.0,0.0,0.0,0.0,0.0,0.0,0.0,0.0,0.0,0.0,0.0,0.0,0.0,0.0,0.0,0.0,0.0,0.0,0.0,0.0,0.0,0.0,0.0,0.0,0.0,0.0,0.0,0.0,0.0,0.0,0.0,0.0,0.0,0.0,0.0,0.0,0.0,0.0,0.0,0.0,0.0,0.0,0.0,0.4302,0.2032,0.0183,-0.2904,-0.4877,-0.4897,-0.7676,-1.0103,-1.1803,-1.1358,0.0,0.0,0.0,0.0,0.0,0.0,0.0,0.0,0.0,0.0,0.0,0.0,0.0,0.0,0.0,0.0,0.0,0.0,0.0,0.0,0.0,0.0,0.0,0.0,0.0,0.0,0.0,0.0,0.0,0.0,0.0,0.0,0.0,0.0,0.0,0.0,0.0,0.0,0.0,0.0,0.0,0.0,0.0,0.0,0.0,0.0,0.0,0.0,0.0,0.0,0.0,0.0,0.0,0.0,0.0,0.0,0.0,0.0,0.0,0.0,0.0,0.0,0.0,0.0,0.0,0.0,0.0,0.0,0.0,0.0,0.0,0.0,0.0,0.0,0.0,0.0,0.0,0.0,0.0,0.0,0.0,0.0,0.0,0.0,0.0,0.0,0.0,0.0,0.0,0.0,0.0,0.0,0.0,0.0,0.0,0.0,0.0,0.0,0.0,0.0,0.0,0.0,0.2846,0.1539,0.0119,-0.2801,-0.4673,-0.4693,-0.7366,-0.9691,-1.1203,-1.0792,0.0,0.0,0.0,0.0,0.0,0.0,0.0,0.0,0.0,0.0,0.0,0.0,0.0,0.0,0.0,0.0,0.0,0.0,0.0,0.0,0.0,0.0,0.0,0.0,0.0,0.0,0.0,0.0,0.0,0.0,0.0,0.0,0.0,0.0,0.0,0.0,0.0,0.0,0.0,0.0,0.0,0.0,0.0,0.0,0.0,0.0,0.0,0.0,0.0,0.0,0.0,0.0,0.0,0.0,0.0,0.0,0.0,0.0,0.0,0.0,0.0,0.0,0.0,0.0,0.0,0.0,0.0,0.0,0.0,0.0,0.0,0.0,0.0,0.0,0.0,0.0,0.0,0.0,0.0,0.0,0.0,0.0,0.0,0.0,0.0,0.0,0.0,0.0,0.0,0.0,0.0,0.0,0.0,0.0,0.0,0.0,0.0,0.0,0.0,0.0,0.0,0.0,0.2687,0.1644,0.0176,-0.2726,-0.4561,-0.4685,-0.7081,-0.9019,-1.0032,-1.02,0.0,0.0,0.0,0.0,0.0,0.0,0.0,0.0,0.0,0.0,0.0,0.0,0.0,0.0,0.0,0.0,0.0,0.0,0.0,0.0,0.0,0.0,0.0,0.0,0.0,0.0,0.0,0.0,0.0,0.0,0.0,0.0,0.0,0.0,0.0,0.0,0.0,0.0,0.0,0.0,0.0,0.0,0.0,0.0,0.0,0.0,0.0,0.0,0.0,0.0,0.0,0.0,0.0,0.0,0.0,0.0,0.0,0.0,0.0,0.0,0.0,0.0,0.0,0.0,0.0,0.0,0.0,0.0,0.0,0.0,0.0,0.0,0.0,0.0,0.0,0.0,0.0,0.0,0.0,0.0,0.0,0.0,0.0,0.0,0.0,0.0,0.0,0.0,0.0,0.0,0.0,0.0,0.0,0.0,0.0,0.0,0.0,0.0,0.0,0.0,0.0,0.0,0.1464,0.0274,-0.1121,-0.3067,-0.4707,-0.5621,-0.7425,-0.8848,-0.9661,0.0,0.0,0.0,0.0,0.0,0.0,0.0,0.0,0.0,0.0,0.0,0.0,0.0,0.0,0.0,0.0,0.0,0.0,0.0,0.0,0.0,0.0,0.0,0.0,0.0,0.0,0.0,0.0,0.0,0.0,0.0,0.0,0.0,0.0,0.0,0.0,0.0,0.0,0.0,0.0,0.0,0.0,0.0,0.0,0.0,0.0,0.0,0.0,0.0,0.0,0.0,0.0,0.0,0.0,0.0,0.0,0.0,0.0,0.0,0.0,0.0,0.0,0.0,0.0,0.0,0.0,0.0,0.0,0.0,0.0,0.0,0.0,0.0,0.0,0.0,0.0,0.0,0.0,0.0,0.0,0.0,0.0,0.0,0.0,0.0,0.0,0.0,0.0,0.0,0.0,0.0,0.0,0.0,0.0,0.0,0.0,0.0,0.0,0.0,0.0,0.0,0.0,0.1721,0.0713,-0.0532,-0.1837,-0.328,-0.4699,-0.6202,-0.7476,-0.8418,-0.8858,0.0,0.0,0.0,0.0,0.0,0.0,0.0,0.0,0.0,0.0,0.0,0.0,0.0,0.0,0.0,0.0,0.0,0.0,0.0,0.0,0.0,0.0,0.0,0.0,0.0,0.0,0.0,0.0,0.0,0.0,0.0,0.0,0.0,0.0,0.0,0.0,0.0,0.0,0.0,0.0,0.0,0.0,0.0,0.0,0.0,0.0,0.0,0.0,0.0,0.0,0.0,0.0,0.0,0.0,0.0,0.0,0.0,0.0,0.0,0.0,0.0,0.0,0.0,0.0,0.0,0.0,0.0,0.0,0.0,0.0,0.0,0.0,0.0,0.0,0.0,0.0,0.0,0.0,0.0,0.0,0.0,0.0,0.0,0.0,0.0,0.0,0.0,0.0,0.0,0.0,0.0,0.0,0.0,0.0,0.0,0.0,0.0,0.0,0.0,0.0,0.0,0.0,0.1565,0.0644,-0.0522,-0.1856,-0.3236,-0.4625,-0.6188,-0.7094,-0.76,0.0,0.0,0.0,0.0,0.0,0.0,0.0,0.0,0.0,0.0,0.0,0.0,0.0,0.0,0.0,0.0,0.0,0.0,0.0,0.0,0.0,0.0,0.0,0.0,0.0,0.0,0.0,0.0,0.0,0.0,0.0,0.0,0.0,0.0,0.0,0.0,0.0,0.0,0.0,0.0,0.0,0.0,0.0,0.0,0.0,0.0,0.0,0.0,0.0,0.0,0.0,0.0,0.0,0.0,0.0,0.0,0.0,0.0,0.0,0.0,0.0,0.0,0.0,0.0,0.0,0.0,0.0,0.0,0.0,0.0,0.0,0.0,0.0,0.0,0.0,0.0,0.0,0.0,0.0,0.0,0.0,0.0,0.0,0.0,0.0,0.0,0.0,0.0,0.0,0.0,0.0,0.0,0.0,0.0,0.0,0.0,0.0,0.0,0.0,0.0,0.0,0.0,0.0,0.0453,-0.0631,-0.1932,-0.3266,-0.4622,-0.5987,-0.7399,-0.7661,-0.7658,-0.7451,0.0,0.0,0.0,0.0,0.0,0.0,0.0,0.0,0.0,0.0,0.0,0.0,0.0,0.0,0.0,0.0,0.0,0.0,0.0,0.0,0.0,0.0,0.0,0.0,0.0,0.0,0.0,0.0,0.0,0.0,0.0,0.0,0.0,0.0,0.0,0.0,0.0,0.0,0.0,0.0,0.0,0.0,0.0,0.0,0.0,0.0,0.0,0.0,0.0,0.0,0.0,0.0,0.0,0.0,0.0,0.0,0.0,0.0,0.0,0.0,0.0,0.0,0.0,0.0,0.0,0.0,0.0,0.0,0.0,0.0,0.0,0.0,0.0,0.0,0.0,0.0,0.0,0.0,0.0,0.0,0.0,0.0,0.0,0.0,0.0,0.0,0.0,0.0,0.0,0.0,0.0,0.0,0.0,0.0,0.0,0.0,0.0,0.0,0.0,0.0,0.0,0.0,0.0,-0.1193,-0.2486,-0.3775,-0.5115,-0.644,-0.7722,-0.7723,-0.7509,-0.7214,0.0,0.0,0.0,0.0,0.0,0.0,0.0,0.0,0.0,0.0,0.0,0.0,0.0,0.0,0.0,0.0,0.0,0.0,0.0,0.0,0.0,0.0,0.0,0.0,0.0,0.0,0.0,0.0,0.0,0.0,0.0,0.0,0.0,0.0,0.0,0.0,0.0,0.0,0.0,0.0,0.0,0.0,0.0,0.0,0.0,0.0,0.0,0.0,0.0,0.0,0.0,0.0,0.0,0.0,0.0,0.0,0.0,0.0,0.0,0.0,0.0,0.0,0.0,0.0,0.0,0.0,0.0,0.0,0.0,0.0,0.0,0.0,0.0,0.0,0.0,0.0,0.0,0.0,0.0,0.0,0.0,0.0,0.0,0.0,0.0,0.0,0.0,0.0,0.0,0.0,0.0,0.0,0.0,0.0,0.0,0.0,0.0,0.0,0.0,0.0,0.0,0.0,-0.0134,-0.1319,-0.2633,-0.385,-0.5162,-0.6432,-0.7513,-0.7458,-0.7244,-0.6906,0.0,0.0,0.0,0.0,0.0,0.0,0.0,0.0,0.0,0.0,0.0,0.0,0.0,0.0,0.0,0.0,0.0,0.0,0.0,0.0,0.0,0.0,0.0,0.0,0.0,0.0,0.0,0.0,0.0,0.0,0.0,0.0,0.0,0.0,0.0,0.0,0.0,0.0,0.0,0.0,0.0,0.0,0.0,0.0,0.0,0.0,0.0,0.0,0.0,0.0,0.0,0.0,0.0,0.0,0.0,0.0,0.0,0.0,0.0,0.0,0.7635,0.7571,0.0,0.0,0.0,0.0,0.0,0.0,0.0,0.0,0.0,0.0,0.0,0.0,0.0,0.0,0.0,0.0,0.0,0.0,0.0,0.0,0.0,0.0,0.0,0.0,0.0,0.0,0.0,0.0,0.0,0.0,0.0,0.0,0.0,0.0,0.0,0.0,0.0,0.0,0.0,0.0,-0.131,-0.2579,-0.3867,-0.5104,-0.6398,-0.7297,-0.7557,-0.7458,-0.7244,-0.6906,-0.6702,0.0,0.0,0.0,0.0,0.0,0.0,0.0,0.0,0.0,0.0,0.0,0.0,0.0,0.0,0.0,0.0,0.0,0.0,0.0,0.0,0.0,0.0,0.0,0.0,0.0,0.0,0.0,0.0,0.0,0.0,0.0,0.0,0.0,0.0,0.0,0.0,0.0,0.0,0.0,0.0,0.0,0.0,0.0,0.0,0.0,0.0,0.0,0.0,0.0,0.0,0.0,0.0,0.0,0.0,0.0,0.0,0.0,0.0,0.0,0.89,0.815,0.0,0.0,0.0,0.0,0.0,0.0,0.0,0.0,0.0,0.0,0.0,0.0,0.0,0.0,0.0,0.0,0.0,0.0,0.0,0.0,0.0,0.0,0.0,0.0,0.0,0.0,0.0,0.0,0.0,0.0,0.0,0.0,0.0,0.0,0.0,0.0,0.0,0.0,0.0,0.0,-0.0835,-0.2624,-0.4024,-0.4574,-0.636,-0.7461,-0.7387,-0.7305,-0.7166,-0.69,-0.6712,0.0,0.0,0.0,0.0,0.0,0.0,0.0,0.0,0.0,0.0,0.0,0.0,0.0,0.0,0.0,0.0,0.0,0.0,0.0,0.0,0.0,0.0,0.0,0.0,0.0,0.0,0.0,0.0,0.0,0.0,0.0,0.0,0.0,0.0,0.0,0.0,0.0,0.0,0.0,0.0,0.0,0.0,0.0,0.0,0.0,0.0,0.0,0.0,0.0,0.0,0.0,0.0,0.0,1.383,1.3293,1.2941,1.2009,1.2263,1.3249,1.0502,0.9113,0.8804,0.8743,0.0,0.0,0.0,0.0,0.0,0.0,0.0,0.0,0.0,0.0,0.0,0.0,0.0,0.0,0.0,0.0,0.0,0.0,0.0,0.0,0.0,0.0,0.2956,0.0866,0.0185,0.0,0.0,0.0,0.0,0.0,0.0,0.0,0.0,0.0,0.0,0.0,0.0,0.0,-0.0309,-0.23,-0.3783,-0.3863,-0.5764,-0.7022,-0.7031,-0.7045,-0.6997,-0.6856,-0.677,-0.663,0.0,0.0,0.0,0.0,0.0,0.0,0.0,0.0,0.0,0.0,0.0,0.0,0.0,0.0,0.0,0.0,0.0,0.0,0.0,0.0,0.0,0.0,0.0,0.0,0.0,0.0,0.0,0.0,0.0,0.0,0.0,0.0,1.917,1.9301,0.0,0.0,0.0,0.0,0.0,0.0,0.0,0.0,0.0,0.0,0.0,0.0,0.0,1.516,1.5315,1.4293,1.3811,1.3826,1.3925,1.3854,1.3564,1.3525,1.3627,1.3787,1.3347,0.0,1.0737,1.0403,0.0,0.0,0.0,0.0,0.0,0.0,0.0,0.0,0.0,0.0,0.0,0.0,0.0,0.0,0.0,0.0,0.0,0.0,0.0,0.0,0.0,0.0,0.3528,0.208,0.0825,0.0,0.0,0.0,0.0,0.0,0.0,0.0,0.0,0.0,0.0,0.0,0.0,0.0,-0.1564,-0.2664,-0.3833,-0.4783,-0.5187,-0.5756,-0.6676,-0.6878,-0.6849,-0.6742,-0.6712,-0.663,-0.6518,-0.6186,0.0,0.0,0.0,0.0,0.0,0.0,0.0,0.0,0.0,0.0,0.0,0.0,0.0,0.0,0.0,0.0,0.0,0.0,0.0,0.0,0.0,0.0,0.0,0.0,0.0,0.0,0.0,0.0,0.0,2.1479,2.0786,1.9026,1.8663,1.7931,0.0,0.0,0.0,0.0,0.0,0.0,0.0,0.0,0.0,1.7194,1.6891,1.6774,1.6774,1.6569,1.6484,1.6375,1.6694,1.6676,1.6381,1.5731,1.5902,1.6656,1.5851,1.4965,1.3949,1.2742,1.1102,0.9352,0.0,0.0,0.0,0.0,0.76,0.7611,0.7692,0.7675,0.7755,0.843,0.0,0.0,0.0,0.0,0.0,0.0,0.0,0.705,0.5809,0.5138,0.4305,0.2367,0.1434,0.082,0.0145,0.0,0.0,0.0,0.0,0.0,0.0,0.0,0.0,0.0,0.0,-0.0738,-0.0767,-0.1798,-0.2708,-0.3189,-0.3859,-0.4667,-0.5696,-0.5961,-0.6288,-0.6795,-0.6749,-0.6671,-0.6603,-0.5758,-0.5755,0.0,0.0,0.0,0.0,0.0,0.0,0.0,0.0,0.0,0.0,0.0,0.0,0.0,0.0,0.0,0.0,0.0,0.0,0.0,0.0,0.0,0.0,0.0,0.0,0.0,0.0,0.0,0.0,2.319,2.2649,1.9941,2.0268,1.9692,0.0,0.0,0.0,0.0,0.0,0.0,1.7534,1.7695,1.7883,1.8036,1.8317,1.8437,1.8364,1.8671,1.8791,1.8718,1.8931,1.8925,1.8718,1.7812,1.7925,1.8861,1.7799,1.7083,1.6624,1.4909,1.2675,1.0393,1.0293,0.9221,0.7767,0.7726,0.7712,0.7729,0.7831,0.7845,0.7942,0.8851,0.8361,0.7671,0.8746,0.0,0.0,0.0,0.0,0.6974,0.6123,0.5668,0.5011,0.3205,0.2258,0.157,0.0667,0.0237,0.0,0.0,0.0,0.0,0.0,0.0,0.0,0.0,-0.0243,-0.0323,-0.0043,-0.1032,-0.1755,-0.1741,-0.2545,-0.3615,-0.494,-0.52,-0.5773,-0.6847,-0.682,-0.6614,-0.6322,-0.5319,-0.491,-0.5249,0.0,0.0,0.0,0.0,0.0,0.0,0.0,0.0,0.0,0.0,0.0,0.0,0.0,0.0,0.0,0.0,0.0,0.0,0.0,0.0,0.0,0.0,0.0,0.0,0.0,0.0,0.0,0.0,0.0,2.3841,2.3789,0.0,0.0,0.0,0.0,1.762,1.7542,1.7809,1.839,1.8437,1.8698,1.9259,1.9559,1.9579,1.9299,1.9593,1.9599,1.9325,1.9397,1.9397,1.9325,1.9274,1.9128,1.8925,1.8811,1.8486,1.7792,1.6532,1.3959,1.0852,1.0497,0.9501,0.8218,0.8072,0.7968,0.7968,0.7975,0.7884,0.7834,0.8019,0.7869,0.779,0.8795,0.818,0.0,0.0,0.7248,0.736,0.7314,0.6438,0.5536,0.5442,0.3558,0.1761,0.1713,0.0797,0.0,0.0,0.0,0.0,0.0,0.0,0.0,0.0,-0.0853,-0.1137,-0.0122,-0.0958,-0.1625,-0.1625,-0.1677,-0.2579,-0.4736,-0.5051,-0.563,-0.6833,-0.6879,-0.6378,-0.5233,-0.4991,-0.4356,-0.3274,-0.3055,0.0,0.0,0.0,0.0,0.0,0.0,0.0,0.0,0.0,0.0,0.0,0.0,0.0,0.0,0.0,0.0,0.0,0.0,0.0,0.0,0.0,0.0,0.0,0.0,0.0,0.0,0.0,0.0,2.4581,2.5335,0.0,2.216,2.1247,2.0623,2.0095,1.9395,1.9105,1.9319,1.9512,1.9706,1.992,2.0027,1.994,1.9646,1.9746,1.9659,1.9424,1.9424,1.9424,1.9424,1.9424,1.9205,1.8925,1.8925,1.8535,1.7935,1.7488,1.5898,1.3661,1.3542,1.2429,1.0919,1.0847,1.069,1.0534,1.0534,1.0485,1.0395,1.0165,0.9469,0.8732,0.8909,0.8103,0.7095,0.7095,0.7136,0.7221,0.7221,0.6895,0.6385,0.5657,0.4792,0.37,0.215,0.1456,0.0951,0.0136,0.0,0.0,0.0,0.0,0.0,0.0,-0.0321,-0.044,-0.0041,-0.0319,-0.0554,-0.0568,-0.0565,-0.1439,-0.3563,-0.3987,-0.4831,-0.6521,-0.6091,-0.5493,-0.5002,-0.3569,-0.2821,-0.2981,-0.2253,-0.2278,0.0,0.0,0.0,0.0,0.0,0.0,0.0,0.0,0.0,0.0,0.0,0.0,0.0,0.0,0.0,0.0,0.0,0.0,0.0,0.0,0.0,0.0,0.0,0.0,0.0,2.6934,2.7646,2.5792,2.7088,2.7096,2.4523,2.3714,2.3159,2.271,2.1496,2.0802,2.0907,2.0571,2.0428,2.0528,2.0528,2.0341,1.9953,1.9947,1.9746,1.9424,1.9424,1.9319,1.9219,1.9325,1.9098,1.8582,1.8738,1.8437,1.7889,1.7889,1.7112,1.5968,1.5401,1.4059,1.2475,1.2409,1.1939,1.1268,1.1268,1.1458,1.1768,1.1863,1.0945,0.975,0.9551,0.8667,0.7621,0.7228,0.7095,0.7095,0.7095,0.7095,0.6918,0.616,0.5672,0.4868,0.286,0.2102,0.1427,0.022,0.0,0.0,0.0,0.0,0.0,0.0,0.0,0.0,0.0,0.0,0.0,0.0,0.0,-0.0714,-0.2491,-0.2848,-0.3731,-0.5409,-0.4861,-0.4315,-0.3887,-0.2418,-0.1711,-0.1912,-0.1455,-0.1425,-0.1794,0.0,0.0,0.0,0.0,0.0,0.0,0.0,0.0,0.0,0.0,0.0,0.0,0.0,0.0,0.0,0.0,0.0,0.0,0.0,0.0,0.0,0.0,0.0,2.6484,2.7539,2.8203,2.7845,2.9209,2.9154,2.6491,2.6895,2.6747,2.5286,2.372,2.2939,2.3195,2.1649,2.0877,2.1159,2.1109,2.0828,2.0241,2.0173,1.994,1.9352,1.9352,1.9199,1.8918,1.9205,1.8871,1.8009,1.835,1.8136,1.7582,1.7569,1.7569,1.743,1.5885,1.4206,1.272,1.2561,1.1543,1.0194,1.0186,1.0773,1.1739,1.2717,1.2018,1.0766,1.0633,0.9792,0.8627,0.7445,0.7095,0.7095,0.7095,0.7095,0.7095,0.7095,0.6248,0.5134,0.3924,0.2723,0.1503,0.0297,0.0044,0.0,0.0,0.0,0.0,0.0,0.0,0.0,0.0,0.0,0.0,0.0,0.0,-0.0502,-0.1693,-0.1781,-0.233,-0.3508,-0.3357,-0.2829,-0.1819,-0.1623,-0.1057,-0.0039,-0.0694,-0.0703,0.0,0.0,0.0,0.0,0.0,0.0,0.0,0.0,0.0,0.0,0.0,0.0,0.0,0.0,0.0,0.0,0.0,0.0,0.0,0.0,0.0,0.0,2.6562,2.7451,2.7386,2.8672,2.9629,2.9512,3.0215,3.0383,2.968,2.8695,2.7916,2.7553,2.5987,2.5133,2.523,2.3671,2.2872,2.2897,2.1727,2.0828,2.0241,2.0173,1.9833,1.9045,1.9045,1.8891,1.8611,1.8698,1.8484,1.7995,1.8075,1.7943,1.7562,1.7407,1.732,1.7261,1.6814,1.6183,1.5538,1.5319,1.4795,1.4196,1.3956,1.3391,1.29,1.378,1.2525,1.0648,1.0626,0.9792,0.8627,0.7445,0.7095,0.7095,0.7095,0.7095,0.7095,0.7095,0.6874,0.6266,0.4988,0.3841,0.2731,0.1392,0.0552,0.0,0.0,0.0,0.0,0.0,0.0,0.0,0.0,0.0,0.0,0.0,0.0,-0.0469,-0.158,-0.1725,-0.2217,-0.3188,-0.2576,-0.2041,-0.1658,-0.0881,-0.0306,0.0,-0.0187,-0.0219,0.0,0.0,0.0,0.0,0.0,0.0,0.0,0.0,0.0,0.0,0.0,0.0,0.0,0.0,0.0,0.0,0.0,0.0,0.0,0.0,0.0,0.0,2.7744,2.8525,2.8701,2.958,3.0273,3.0459,3.0723,3.0889,3.0889,3.002,2.9471,2.9471,2.7931,2.7013,2.7013,2.5505,2.4294,2.3636,2.2654,2.1493,2.0234,2.0114,1.9673,1.8925,1.8804,1.8591,1.831,1.8437,1.8257,1.7862,1.7935,1.7802,1.744,1.7266,1.7125,1.7018,0.0,0.0,0.0,0.0,1.5534,1.569,1.4873,1.4316,1.4,1.439,1.3392,1.1869,1.0913,1.0139,0.9274,0.7577,0.7095,0.7095,0.7095,0.7095,0.7095,0.7095,0.7051,0.6676,0.5376,0.4597,0.3777,0.2488,0.1366,0.0,0.0671,0.028,0.0,0.0,0.0,0.0,0.0,0.0,0.0,0.0,0.0,-0.0268,-0.0888,-0.0986,0.0,0.0,0.0,-0.0998,-0.0945,-0.0341,0.0,0.0,0.0,0.0,0.0,0.0,0.0,0.0,0.0,0.0,0.0,0.0,0.0,0.0,0.0,0.0,0.0,0.0,0.0,0.0,0.0,0.0,0.0,0.0,0.0,0.0,2.9082,2.9785,3.0215,3.0273,3.043,3.084,3.0889,3.0889,3.0889,3.0889,3.0889,3.0889,2.953,2.8664,2.8664,2.7142,0.0,0.0,0.0,2.2494,2.0241,1.9913,1.9459,1.8871,1.8577,1.8283,1.7949,1.8237,1.8043,1.7549,1.7789,1.7595,1.7146,1.7119,1.6874,1.6613,1.6647,1.648,1.6089,1.4647,1.4829,1.5543,1.4105,0.0,0.0,1.4569,1.4295,1.3695,1.1472,1.0778,1.0346,0.8097,0.7401,0.7309,0.7291,0.716,0.7068,0.7051,0.695,0.6593,0.5496,0.5076,0.4554,0.3469,0.2452,0.1721,0.1606,0.0678,0.0,0.0,0.0,0.0,0.0,0.0,0.0,0.0,0.0,0.0,0.0,0.0,0.0,0.0,0.0,0.0,0.0,0.0,0.0,0.0,0.0,0.0,0.0,0.0,0.0,0.0,0.0,0.0,0.0,0.0,0.0,0.0,0.0,0.0,0.0,0.0,0.0,0.0,0.0,0.0,0.0,0.0,0.0,2.8691,2.9512,3.0234,3.0693,3.0752,3.0791,3.0879,3.0889,3.0889,3.0889,3.0889,3.0889,3.0889,3.0577,3.0392,3.0392,2.8852,2.7202,2.5558,2.4024,2.2209,2.0234,1.9713,1.9152,1.8571,1.8277,0.0,1.7662,1.7541,1.74,1.728,1.7041,1.6901,1.6774,1.654,1.6266,1.6025,1.6266,1.6172,1.5858,1.5553,1.5436,1.5391,1.4865,1.4665,1.4556,1.4262,1.4135,1.3822,1.2419,1.1986,0.0,1.0308,0.9274,0.8507,0.84,0.769,0.6896,0.6814,0.6763,0.6625,0.6295,0.5517,0.4748,0.4313,0.3364,0.2371,0.1522,0.0622,0.0,0.0,0.0,0.0,0.0,0.0,0.0,0.0,0.0,0.0,0.0,0.0,0.0,0.0,0.0,0.0,0.0,0.0,0.0,0.0,0.0,0.0,0.0,0.0,0.0,0.0,0.0,0.0,0.0,0.0,0.0,0.0,0.0,0.0,0.0,0.0,0.0,0.0,0.0,3.1714,3.104,0.0,3.0429,3.0221,3.0576,3.0859,3.0889,3.0889,3.0889,3.0889,3.0889,3.0889,3.0889,3.0889,3.0889,3.0889,3.0889,3.0889,3.0889,3.0089,2.8455,2.5901,2.482,2.2947,2.002,1.9432,1.8925,1.8484,1.8029,1.7736,1.7582,1.7481,1.742,1.7414,1.7208,1.6974,1.6673,1.6233,1.5965,1.5798,1.5992,1.5959,1.5784,1.5784,1.5645,1.5378,1.5231,1.489,1.4496,1.4349,1.4208,1.3864,1.2681,1.2285,1.2066,1.0913,1.0183,0.96,0.8987,0.8298,0.7623,0.6957,0.6698,0.6546,0.6436,0.5911,0.5372,0.5172,0.4289,0.3368,0.2849,0.1984,0.1062,0.0154,0.0,0.0,0.0,0.0,0.0,0.0,0.0,0.0,0.0,0.0,0.0,0.0,0.0,0.0,0.0,0.0,0.0,0.0,0.0,0.0,0.0,0.0,0.0,0.0,0.0,0.0,0.0,0.0,0.0,0.0,0.0,0.0,0.0,3.4645,3.4727,3.5156,3.4881,3.4532,3.44,3.3595,3.2752,3.2205,3.1741,3.1396,3.1064,3.0947,3.0889,3.0889,3.0889,3.0889,3.0889,3.0889,3.0889,3.0889,3.0889,3.0889,3.0889,3.0889,2.9411,2.6118,2.5602,2.3909,2.0725,1.9493,1.8883,1.8906,1.809,1.7642,1.7582,1.7522,1.7502,1.7548,1.7382,1.7027,1.65,1.6025,1.5784,1.5784,1.5784,1.5784,1.5784,1.5784,1.5645,1.5391,1.5331,1.4963,1.4509,1.4456,1.4282,1.3899,1.288,1.2554,1.2342,1.1449,1.0985,1.057,0.968,0.9018,0.8325,0.7301,0.677,0.6429,0.6286,0.6118,0.5939,0.5796,0.5078,0.4395,0.418,0.3478,0.2386,0.0784,0.0368,0.0253,0.0255,0.0107,0.0,0.0,0.0,0.0,0.0,0.0,0.0,0.0,0.0,0.0,0.0,0.0,0.0,0.0,0.0,0.0,0.0,0.0,0.0,0.0,0.0,0.0,3.7017,3.6828,3.7709,3.856,3.8194,3.8309,0.0,3.9605,3.8198,3.9715,3.8454,3.7215,3.7696,3.5869,3.4242,3.4171,3.2673,3.1504,3.1455,3.1123,3.0889,3.0889,3.0889,3.0889,3.0889,3.0889,3.0889,3.0889,3.0889,3.0889,3.0889,3.0889,2.9898,2.7615,2.6013,2.4713,2.3803,2.0551,1.9424,2.0444,1.878,1.7849,1.7575,1.7367,1.7246,1.7219,1.6697,1.6233,1.5919,1.5804,1.5784,1.5784,1.5784,1.5784,1.5784,1.5784,1.5645,1.5357,1.5149,1.4796,1.4476,1.4222,1.4115,1.4035,1.3602,1.3434,1.3441,1.3311,1.2372,1.141,1.1381,0.9742,0.803,0.7758,0.7002,0.6282,0.6088,0.6003,0.5909,0.5667,0.5509,0.5155,0.4169,0.3915,0.3507,0.2533,0.1677,0.1168,0.1159,0.0463,0.0,0.0,0.0,0.0,0.0,0.0,0.0,0.0,0.0,0.0,0.0,0.0,0.0,0.0,0.0,0.0,0.0,0.0,0.0,0.0,0.0,0.0,4.0982,4.0322,4.0257,4.0635,4.1043,4.1482,4.1918,4.1312,4.0708,4.0765,4.0795,4.034,3.8916,3.7576,3.627,3.5121,3.3205,3.1807,3.1553,3.1152,3.0889,3.0889,3.0889,3.0889,3.0889,3.0889,3.0889,3.0889,3.0889,3.0889,3.0889,3.0635,2.9575,2.7564,2.6522,2.5391,2.3997,2.2331,2.165,2.1832,2.0125,1.912,1.8708,1.7866,1.736,1.7217,1.7302,1.6863,1.6072,1.5899,1.5784,1.5784,1.5784,1.5784,1.5784,1.5784,1.5645,1.5378,1.5257,1.491,1.4496,1.4382,1.4222,1.4062,1.3941,1.3901,1.3868,1.3646,1.3175,1.2547,1.1772,1.0745,0.9673,0.8961,0.7884,0.697,0.6795,0.6223,0.5711,0.5532,0.5491,0.5352,0.4907,0.4825,0.4691,0.4317,0.3054,0.1916,0.1385,0.0998,0.055,0.007,0.0,0.0,0.0,0.0,0.0,0.0,0.0,0.0,0.0,0.0,0.0,0.0,0.0,0.0,0.0,0.0,0.0,0.0,0.0,0.0,4.2791,4.2407,4.2141,4.2585,4.351,4.4142,4.3471,4.3265,4.2943,4.1998,4.2412,4.2294,3.9989,3.9066,3.8017,3.6135,3.4223,3.2713,3.1818,3.1328,3.1025,3.0898,3.0889,3.0889,3.0889,3.0889,3.0889,3.0889,3.0889,3.083,3.0703,3.0381,2.9412,2.7789,2.7036,2.6129,2.4902,2.3855,2.327,2.3119,2.1549,2.057,2.0128,1.9022,1.8203,1.7641,1.7987,1.7366,1.6181,1.6293,1.6339,1.6339,1.6339,1.6339,1.6292,1.592,1.5698,1.5491,1.5331,1.4997,1.4616,1.4449,1.4255,1.4075,1.3988,1.3908,1.3801,1.354,1.3367,1.3035,1.2095,1.1471,1.0885,1.006,0.8849,0.7765,0.7392,0.6588,0.5847,0.5489,0.5395,0.5395,0.5395,0.5395,0.5395,0.5395,0.4284,0.3111,0.2177,0.1608,0.1074,0.0437,0.0135,0.0,0.0,0.0,0.0,0.0,0.0,0.0,0.0,0.0,0.0,0.0,0.0,0.0,0.0,0.0257,0.0359,0.0366,0.0637,0.074,4.0859,4.1708,4.2701,4.4702,4.543,4.5974,4.732,4.6418,4.511,4.4366,4.3224,4.2175,4.1377,4.0403,3.9194,3.7601,3.6059,3.4436,3.244,3.1777,3.1348,3.0947,3.0889,3.0889,3.0889,3.0889,3.0889,3.0889,3.0889,3.0693,3.0244,3.0205,2.9805,2.891,2.7456,2.6966,2.7581,2.4664,2.3572,2.4236,2.273,2.1911,2.1634,2.113,2.0097,1.8648,1.8264,1.7237,1.5933,1.7138,1.7638,1.7638,1.7638,1.7638,1.7505,1.6251,1.5771,1.5684,1.517,1.5008,1.4901,1.4282,1.4095,1.4035,1.37,1.342,1.324,1.3227,1.2799,1.2405,1.2685,1.1803,1.0795,1.0757,0.9738,0.8483,0.7495,0.7064,0.6581,0.5589,0.5395,0.5395,0.5395,0.5395,0.5395,0.5395,0.5359,0.499,0.4048,0.2376,0.1273,0.1274,0.0504,0.0,0.0,0.0,0.0,0.0,0.0,0.0,0.0,0.0,0.0,0.0,0.0,0.0,0.0,0.0858,0.1257,0.1291,0.2183,0.2611,4.302,4.4555,4.6055,4.6602,4.7564,4.8247,4.7824,4.7701,4.704,4.4815,4.3101,4.1659,4.0533,3.8812,3.764,3.7857,3.6939,3.5951,3.5285,3.4198,3.3189,3.2461,3.1748,3.1201,3.0918,3.0889,3.0889,3.0889,3.0605,3.0361,3.0205,2.9658,2.9219,2.8926,2.8144,2.7741,2.7718,2.6682,2.604,2.5688,2.3966,2.2645,2.1727,2.1865,2.1224,1.9958,2.0167,1.9458,1.8303,1.8726,1.891,1.8818,1.8002,1.8187,1.8772,1.7498,1.694,1.655,1.54,1.5008,1.4908,1.4318,1.4088,1.4068,1.3968,1.3728,1.346,1.346,1.306,1.2656,1.2757,1.2293,1.1805,1.1805,1.0683,0.9563,0.9235,0.7884,0.6664,0.6342,0.5782,0.5395,0.5395,0.5395,0.5395,0.5395,0.4855,0.435,0.4048,0.29,0.2087,0.2087,0.1828,0.1665,0.1665,0.1726,0.1764,0.1667,0.165,0.1612,0.1457,0.1469,0.1447,0.1474,0.1596,0.1583,0.1461,0.1974,0.2184,0.2092,0.2513,0.2711,4.481,4.642,4.7903,4.8301,4.8861,4.915,4.8556,4.8232,4.7375,4.5021,4.2995,4.1221,3.9741,3.8233,3.7217,3.7198,3.7064,3.6792,3.6453,3.5408,3.4576,3.4213,3.2938,3.1963,3.174,3.1228,3.082,3.0654,3.0361,3.0059,2.9756,2.9219,2.8779,2.8476,2.8203,2.7793,2.7268,2.7258,2.6855,2.6152,2.4835,2.3794,2.315,2.311,2.2454,2.1302,2.1317,2.0621,1.9534,1.9988,2.0124,2.0079,1.9268,1.9451,1.9988,1.8772,1.7865,1.7071,1.6017,1.5277,1.4723,1.4242,1.4088,1.4088,1.4088,1.3881,1.358,1.3473,1.3133,1.2757,1.2656,1.2445,1.2305,1.2305,1.1417,1.0481,1.017,0.8813,0.7535,0.7209,0.6465,0.5881,0.5881,0.5591,0.5395,0.5395,0.4888,0.4483,0.4483,0.3593,0.2953,0.2953,0.2608,0.2405,0.2405,0.2533,0.2575,0.2408,0.2468,0.2413,0.2203,0.2188,0.2214,0.2204,0.2384,0.2437,0.2296,0.282,0.3066,0.3034,0.3383,0.3612,4.6083,4.7261,4.8256,4.9692,4.9341,4.8857,4.948,4.8147,4.6342,4.5004,4.286,4.0703,3.9007,3.8595,3.7855,3.6006,3.6718,3.7188,3.6318,3.5669,3.5535,3.6106,3.4428,3.3268,3.3191,3.1872,3.0799,3.0309,3.0213,2.9805,2.8965,2.8896,2.8506,2.7748,2.7718,2.7307,2.6396,2.6367,2.6133,2.5645,2.5273,2.5293,2.5625,2.4795,2.3718,2.2626,2.178,2.0755,1.9761,2.0935,2.1373,2.1355,2.1328,2.1319,2.1194,2.0,1.863,1.7281,1.7014,1.5857,1.4469,1.4267,1.413,1.413,1.4173,1.3909,1.3533,1.332,1.3038,1.2703,1.2412,1.2325,1.2298,1.2285,1.1844,1.1176,1.0331,0.9693,0.9043,0.8221,0.7372,0.6752,0.6719,0.6009,0.5458,0.5385,0.5382,0.5382,0.5382,0.4493,0.3866,0.3858,0.2927,0.2329,0.2329,0.2524,0.2538,0.2334,0.2518,0.2545,0.2347,0.2327,0.2317,0.232,0.251,0.2619,0.2606,0.3444,0.3927,0.4064,0.4771,0.5209,4.7076,4.8356,4.9401,4.9318,4.9504,4.9572,4.9008,4.7968,4.6576,4.4469,4.1313,3.8328,3.6617,3.6553,3.6774,3.6785,3.8768,4.0178,3.9964,3.9169,3.8266,3.7235,3.6002,3.5066,3.4781,3.3417,3.22,3.145,3.0378,2.9492,2.8945,2.8623,2.8213,2.7738,2.7718,2.7307,2.6396,2.6064,2.5684,2.5234,2.5174,2.5127,2.5215,2.4346,2.3809,2.3453,2.2907,2.2448,2.2227,2.2501,2.2451,2.2117,2.1548,2.1484,2.1627,2.0717,1.9817,1.897,1.8917,1.6981,1.4599,1.5119,1.4734,1.425,1.5061,1.4356,1.3394,1.3761,1.3166,1.2505,1.2879,1.2645,1.2245,1.2067,1.1697,1.1295,1.0875,0.9995,0.9242,0.9011,0.8253,0.747,0.6817,0.6527,0.6094,0.5303,0.5189,0.5189,0.5189,0.4841,0.4589,0.4482,0.4231,0.4062,0.4062,0.4297,0.4329,0.4077,0.4216,0.4213,0.4077,0.3972,0.3949,0.405,0.4114,0.4147,0.4154,0.4565,0.4744,0.4684,0.4971,0.512,4.7931,4.9031,4.985,4.9152,4.9306,4.9299,4.8105,4.6829,4.5384,4.3397,4.0198,3.7383,3.6231,3.6197,3.6435,3.6687,3.85,4.0049,4.0551,3.9935,3.9253,3.8867,3.7479,3.6516,3.6294,3.4692,3.3387,3.2706,3.074,2.9297,2.8672,2.8252,2.7822,2.7393,2.7197,2.6787,2.6113,2.5664,2.5322,2.5116,2.4873,2.4785,2.4756,2.4092,2.3789,2.3769,2.3286,2.3091,2.3081,2.2896,2.2682,2.2434,2.1802,2.1716,2.1831,2.1395,2.0546,1.9616,1.9616,1.7888,1.5789,1.626,1.5894,1.5319,1.5617,1.4906,1.4062,1.4272,1.3523,1.2788,1.3276,1.2852,1.2231,1.1973,1.1643,1.1349,1.1056,1.0406,0.9754,0.937,0.8909,0.8285,0.7437,0.7136,0.6849,0.6238,0.6067,0.5955,0.5908,0.5254,0.4785,0.4701,0.4658,0.4644,0.4684,0.4904,0.4935,0.4802,0.487,0.485,0.4697,0.4573,0.4532,0.4617,0.4657,0.4691,0.4691,0.4857,0.4901,0.4887,0.4931,0.4941,4.8277,4.8946,4.9359,4.8762,4.8572,4.8152,4.6774,4.5045,4.3339,4.1885,3.9287,3.7094,3.6534,3.6575,3.6579,3.6279,3.7326,3.8579,3.9634,3.9396,3.9421,4.03,3.8802,3.77,3.77,3.5802,3.4373,3.3926,3.146,2.957,2.8754,2.8261,2.7639,2.6943,2.6465,2.6006,2.5518,2.5176,2.4998,2.494,2.4512,2.4336,2.4316,2.3896,2.3701,2.3682,2.3257,2.3091,2.3062,2.2701,2.2529,2.2402,2.209,2.1865,2.1719,2.1777,2.0923,1.9747,1.9747,1.8864,1.7698,1.7577,1.7199,1.6707,1.6261,1.5749,1.5277,1.4984,1.4162,1.3448,1.3852,1.3164,1.2353,1.209,1.1757,1.1384,1.1028,1.0767,1.0364,0.9626,0.9466,0.9204,0.8318,0.7927,0.7695,0.754,0.7289,0.7072,0.6934,0.5801,0.497,0.4948,0.4762,0.4682,0.479,0.4858,0.488,0.486,0.4877,0.483,0.4697,0.4573,0.4498,0.4518,0.4631,0.467,0.4691,0.4691,0.4758,0.4887,0.4752,0.4762,4.6445,4.6755,4.6835,4.673,4.6259,4.5646,4.4853,4.2967,4.1033,3.9719,3.794,3.6208,3.4741,3.5595,3.6584,3.6805,3.8179,3.9522,4.0253,4.0287,4.0136,3.9873,3.9128,3.8677,3.8677,3.6795,3.52,3.436,3.2701,3.1531,3.0963,2.9931,2.8482,2.6573,2.5713,2.5088,2.4648,2.457,2.4355,2.4014,2.3935,2.3896,2.3887,2.3447,2.3208,2.3198,2.313,2.3091,2.3091,2.3013,2.2617,2.2021,2.2295,2.1748,2.0879,2.1211,2.0935,2.0429,2.0429,2.0264,1.9874,1.8997,1.8017,1.7332,1.8164,1.7556,1.6568,1.6385,1.5304,1.4374,1.5091,1.4135,1.2917,1.2775,1.2402,1.1804,1.0887,1.0626,1.0561,1.0396,1.0364,1.011,0.9236,0.9041,0.8678,0.7804,0.7431,0.7214,0.7087,0.6739,0.6445,0.628,0.5704,0.5336,0.5368,0.498,0.4677,0.458,0.466,0.4718,0.4694,0.4573,0.4549,0.4679,0.4583,0.4593,0.4691,0.4691,0.4704,0.4728,0.4704,0.4704,4.4421,4.4372,4.4514,4.5123,4.4764,4.4053,4.3227,4.1619,3.9784,3.8043,3.677,3.5732,3.4931,3.5724,3.6547,3.6699,3.754,3.853,3.9374,3.931,3.922,3.927,3.9032,3.8806,3.8442,3.7283,3.6223,3.5489,3.4511,3.3081,3.1195,2.973,2.8219,2.6706,2.5664,2.4863,2.4424,2.4414,2.4209,2.3789,2.3789,2.3672,2.3447,2.3188,2.3091,2.3091,2.3091,2.3091,2.3081,2.2857,2.2578,2.2187,2.1943,2.1465,2.0908,2.0889,2.0752,2.0605,2.0605,2.0605,2.0527,2.0001,1.9293,1.8716,1.8933,1.8355,1.7557,1.729,1.6329,1.5442,1.598,1.5163,1.3976,1.3097,1.2131,1.122,1.0715,1.0593,1.0593,1.0593,1.0593,1.0466,1.0047,0.9825,0.9507,0.8824,0.8475,0.8221,0.7995,0.7933,0.7553,0.668,0.6285,0.6105,0.6207,0.5637,0.5262,0.527,0.4922,0.4861,0.5262,0.5122,0.5041,0.5125,0.5045,0.4879,0.46,0.496,0.4932,0.46,0.5354,0.549,4.2367,4.2103,4.2317,4.3232,4.3001,4.2333,4.1323,4.0142,3.8745,3.6769,3.5894,3.5504,3.5504,3.5937,3.6338,3.6468,3.6824,3.7444,3.8443,3.8335,3.8374,3.8844,3.8655,3.8278,3.7713,3.7161,3.6558,3.5927,3.5328,3.382,3.1158,2.9533,2.8233,2.731,2.5879,2.498,2.4633,2.4281,2.3975,2.3652,2.3652,2.3467,2.3091,2.3091,2.3091,2.3091,2.3091,2.3091,2.3071,2.2783,2.2598,2.2441,2.1726,2.1356,2.1151,2.084,2.0683,2.0605,2.0605,2.0605,2.0605,2.0605,2.0332,1.9955,1.9506,1.9093,1.8705,1.8182,1.7347,1.6624,1.6845,1.6061,1.4888,1.3505,1.2136,1.1083,1.0895,1.0863,1.0807,1.0618,1.0593,1.0573,1.0506,1.0274,1.002,0.9726,0.9404,0.9131,0.8904,0.8844,0.8348,0.7182,0.6939,0.6899,0.7048,0.6389,0.6006,0.6129,0.5484,0.5376,0.5941,0.5816,0.5733,0.5733,0.5733,0.5464,0.4952,0.5492,0.5464,0.4983,0.6095,0.6285,4.0279,4.0147,4.019,4.0276,4.0146,3.9634,3.8391,3.7836,3.7241,3.5889,3.5569,3.5504,3.5504,3.5541,3.5794,3.6415,3.7035,3.7741,3.8504,3.8684,3.8774,3.8894,3.7965,3.7123,3.6619,3.6019,3.5207,3.4211,3.3621,3.2945,3.2033,3.0817,2.9646,2.85,2.6457,2.5352,2.5311,2.3913,2.3198,2.3149,2.3149,2.314,2.3091,2.3091,2.3091,2.3091,2.3091,2.3091,2.3091,2.3052,2.2808,2.251,2.2422,2.1882,2.119,2.1151,2.0918,2.0605,2.0605,2.0605,2.0605,2.0605,2.0576,2.0518,2.0469,2.0421,2.0217,1.9401,1.8461,1.7742,1.7833,1.6589,1.5103,1.4258,1.3415,1.2573,1.1834,1.1679,1.1469,1.0744,1.0593,1.0506,1.0207,1.0134,1.002,0.9726,0.9404,0.9204,0.9178,0.8944,0.8752,0.8619,0.7996,0.7595,0.7618,0.6944,0.6542,0.6539,0.6465,0.6455,0.6537,0.6517,0.6507,0.6507,0.6507,0.648,0.6399,0.648,0.648,0.6399,0.6534,0.6561,3.8521,3.8514,3.8827,3.8827,3.8387,3.7934,3.7749,3.7241,3.6596,3.5684,3.5504,3.5504,3.5504,3.5504,3.558,3.5869,3.5396,3.5349,3.6371,3.5835,3.5729,3.6744,3.6471,3.6107,3.5893,3.5621,3.5044,3.3985,3.3068,3.2429,3.2185,3.1023,2.9883,2.8823,2.7273,2.6291,2.6061,2.4764,2.4125,2.4125,2.343,2.3091,2.3135,2.38,2.3757,2.3135,2.3844,2.3606,2.2783,2.2994,2.2847,2.249,2.2236,2.1924,2.1562,2.1025,2.0752,2.0605,2.0605,2.0605,2.0556,2.0254,2.0176,2.0176,2.0176,2.0176,2.0,1.9131,1.86,1.8288,1.8061,1.6708,1.5282,1.4762,1.3778,1.2917,1.2604,1.2512,1.2428,1.2128,1.15,1.099,1.086,1.0288,0.9753,0.9431,0.9291,0.9151,0.8978,0.8878,0.8804,0.8804,0.8533,0.8374,0.8374,0.7696,0.7262,0.7262,0.6858,0.6804,0.7235,0.7262,0.7262,0.7262,0.7262,0.7047,0.6588,0.7047,0.7047,0.6615,0.7503,0.7696,3.7641,3.7586,3.7851,3.8068,3.7483,3.6958,3.7137,3.6822,3.6297,3.5639,3.5504,3.5504,3.5504,3.5504,3.5392,3.51,3.4387,3.4154,3.4983,3.4068,3.3935,3.5666,3.5238,3.5027,3.5601,3.5238,3.4565,3.3458,3.2516,3.1901,3.175,3.091,3.0127,2.9419,2.8098,2.7265,2.6964,2.588,2.5294,2.5294,2.4135,2.3757,2.4102,2.4585,2.447,2.3846,2.4377,2.3968,2.2934,2.2824,2.2666,2.2471,2.2051,2.1807,2.1621,2.0996,2.0713,2.0586,2.0458,2.041,2.0341,1.9863,1.9727,1.9707,1.958,1.9629,1.958,1.8802,1.8422,1.813,1.7744,1.664,1.5566,1.5158,1.4351,1.3636,1.3403,1.3334,1.3248,1.2898,1.2162,1.1565,1.1328,1.0494,0.9749,0.9419,0.9214,0.9011,0.8831,0.8804,0.8804,0.8804,0.8804,0.8804,0.8804,0.8321,0.8023,0.8023,0.753,0.7482,0.7996,0.8023,0.8023,0.8023,0.8023,0.7777,0.7262,0.7777,0.775,0.7262,0.8315,0.8507,3.7854,3.7496,3.7274,3.7917,3.7483,3.6715,3.6072,3.6214,3.6297,3.5639,3.5504,3.5504,3.5504,3.5504,3.5166,3.4177,3.4545,3.5003,3.5099,3.4365,3.4513,3.6457,3.4585,3.3907,3.5883,3.4687,3.3361,3.2311,3.1712,3.1173,3.0658,3.0593,3.0593,3.0568,2.8967,2.8096,2.8084,2.7005,2.6472,2.6483,2.5336,2.5378,2.6442,2.5294,2.5068,2.5521,2.4609,2.4136,2.3867,2.2476,2.2139,2.2471,2.2051,2.1621,2.12,2.119,2.0947,2.0546,2.0068,1.9922,1.9853,1.9434,1.9297,1.9219,1.8744,1.8955,1.9209,1.8724,1.8037,1.7295,1.6824,1.6406,1.5987,1.5518,1.5391,1.5167,1.4362,1.4183,1.3829,1.2643,1.2393,1.2163,1.1417,1.074,1.0176,0.9848,0.9244,0.8811,0.8804,0.8804,0.8804,0.8804,0.8804,0.8804,0.8804,0.8778,0.8778,0.8778,0.8785,0.8785,0.8778,0.8778,0.8778,0.8778,0.8778,0.8778,0.8778,0.8778,0.8778,0.8785,0.8778,0.8804,3.6186,3.6799,3.7353,3.6769,3.6336,3.6019,3.5822,3.579,3.5759,3.5549,3.5504,3.5504,3.5504,3.5504,3.5392,3.51,3.4636,3.4098,3.3495,3.3563,3.3919,3.4634,3.475,3.5099,3.6016,3.4041,3.2675,3.2587,3.1538,3.0783,3.062,3.0256,3.0055,3.0055,2.9543,2.9275,2.9275,2.8148,2.7602,2.7562,2.6502,2.6141,2.6502,2.6507,2.6177,2.5619,2.574,2.4775,2.3152,2.3668,2.2978,2.1743,2.2985,2.2727,2.1635,2.1404,2.1042,2.0486,1.9742,1.9482,1.9414,1.8984,1.8812,1.8724,1.834,1.8506,1.8691,1.7978,1.7588,1.7239,1.6465,1.6202,1.5977,1.5518,1.541,1.5245,1.4725,1.4601,1.4393,1.3691,1.2977,1.2395,1.2167,1.1298,1.0446,0.988,1.002,0.9987,0.9536,0.9891,0.9987,0.9536,0.9891,0.9788,0.8883,0.8804,0.8804,0.8804,0.8804,0.8804,0.8804,0.9237,0.9491,0.9491,0.9935,1.0167,1.0167,1.0167,1.0167,1.0167,1.0167,1.0167,3.4964,3.5913,3.6676,3.6131,3.5877,3.569,3.569,3.561,3.5504,3.5504,3.5504,3.5504,3.5504,3.5504,3.5359,3.4986,3.4394,3.3894,3.3551,3.3768,3.4111,3.4441,3.5523,3.6002,3.5512,3.4107,3.3183,3.3055,3.1655,3.0842,3.0842,3.0188,2.9792,2.9792,2.9792,2.9792,2.9792,2.9106,2.8618,2.8373,2.7521,2.7094,2.712,2.7254,2.6904,2.6235,2.6245,2.5304,0.0,2.4187,2.3377,2.2092,2.3187,2.2926,2.1884,2.1668,2.1378,2.0994,2.0263,2.0035,1.9893,1.9107,1.8718,1.8464,1.8058,1.8048,1.8018,1.7334,1.7021,1.6789,1.6232,1.5968,1.5703,1.5273,1.5176,1.5059,1.4629,1.4541,1.4414,1.3958,1.3335,1.2824,1.2674,1.1836,1.1049,1.0618,1.0686,1.0644,1.0236,1.0542,1.0644,1.0218,1.0534,1.0466,0.9614,0.9309,0.9185,0.9185,0.9185,0.9283,0.9536,0.9961,1.0192,1.0192,1.0593,1.0788,1.0788,1.0788,1.0788,1.0788,1.0788,1.0788,0.0,3.4734,3.5248,3.5889,3.5817,3.5597,3.5669,3.5571,0.0,3.5504,3.5504,3.5504,3.5504,3.5504,3.518,3.4245,3.4095,3.4326,3.4911,3.4871,3.5022,3.5707,3.6721,3.6611,3.472,3.4746,3.4477,3.3399,3.2051,3.1254,3.1106,3.0343,2.9844,2.9729,2.9729,2.9729,2.9729,2.9729,2.944,2.8838,2.8324,2.8084,2.8085,2.7548,2.7308,2.7233,2.6238,2.5683,2.5392,2.4139,2.345,2.3175,2.2945,2.2474,2.1933,2.1968,2.1945,2.1811,2.1308,2.113,2.0886,1.9671,1.8943,1.8448,1.7977,1.7653,1.7334,1.6933,1.647,1.6105,1.6107,1.5733,1.5264,1.4844,1.4736,1.4619,1.4153,1.4065,1.3938,1.3545,1.3467,1.334,1.2949,1.2338,1.1875,1.1823,1.1316,1.0939,1.0889,1.0922,1.0939,1.0889,1.0922,1.0914,1.0813,1.0244,0.9865,0.9865,0.9865,1.0141,1.0762,1.0838,1.0864,1.0864,1.0922,1.0965,1.1015,1.0965,1.0965,1.1015,1.0965,1.0948,3.2092,0.0,3.3429,3.4285,3.4466,3.4591,0.0,3.5502,3.5504,3.5504,3.5504,3.5504,3.5504,3.5504,3.5424,3.518,3.5133,3.5108,3.5016,3.5834,3.6756,3.7657,3.7259,3.6705,3.6065,3.4662,3.3492,3.2842,3.2461,3.1646,3.0216,3.0582,3.0351,2.9151,2.9101,2.9101,2.9101,2.9101,2.8813,2.8298,2.8151,2.8114,2.8097,2.7529,2.7292,2.7231,2.6146,2.5213,2.4518,2.4517,2.3588,2.2383,2.3762,2.3502,2.2348,2.2458,2.2256,2.1798,2.0997,2.0437,1.993,1.9236,1.8914,1.8728,1.8317,1.7956,1.775,1.7873,1.7048,1.6088,1.5984,1.5459,1.4824,1.4358,1.426,1.4143,1.3724,1.3627,1.3525,1.3105,1.3027,1.3023,1.2925,1.2759,1.2461,1.1888,1.2138,1.2206,1.1641,1.2064,1.2197,1.1616,1.2064,1.1974,1.0889,1.0661,1.0568,1.0568,1.0568,1.0644,1.0788,1.1291,1.1566,1.1566,1.2123,1.2638,1.3082,1.2638,1.2638,1.3082,1.2613,1.2412,3.2629,3.2855,3.3276,3.3345,3.4027,3.4839,3.5359,3.5504,3.5504,3.5504,3.5504,3.5504,3.5504,3.5744,3.5863,3.5549,3.5998,3.6414,3.6525,3.6931,3.7491,3.8312,3.737,3.661,3.6518,3.521,3.4229,3.3968,3.3257,3.2206,3.0811,3.051,2.9798,2.8561,2.8762,2.8762,2.8549,2.8512,2.8273,2.7733,2.7984,2.7846,2.7379,2.7077,2.6788,2.6465,2.5611,2.4938,2.4481,2.4705,2.4018,2.298,2.4035,2.3753,2.2742,2.2573,2.2323,2.1982,2.1265,2.0549,1.9865,1.9372,1.9171,1.904,1.8604,1.8357,1.816,1.8019,1.7043,1.6036,1.5936,1.5429,1.4754,1.3998,1.3821,1.3704,1.3311,1.3223,1.3154,1.2954,1.2905,1.2905,1.2905,1.2905,1.2774,1.2369,1.2632,1.2774,1.2369,1.2642,1.2749,1.2344,1.2666,1.2593,1.1816,1.1767,1.1609,1.1291,1.1266,1.14,1.1742,1.2389,1.2856,1.3134,1.3518,1.3884,1.4213,1.3884,1.3884,1.4213,1.3884,1.3729,3.4027,3.4259,3.4223,3.3108,3.4113,3.5446,3.5487,3.5504,3.5504,3.5504,3.5587,3.5636,3.5537,3.6052,3.6298,3.5594,3.6582,3.7644,3.8302,3.7913,3.7734,3.8182,3.7195,3.6447,3.6357,3.5833,3.5439,3.5279,3.3941,3.27,3.1764,3.0266,2.9058,2.8259,2.8487,2.8485,2.814,2.8132,2.7783,2.719,2.7632,2.7318,2.6361,2.6361,2.6047,2.5448,2.4921,2.4662,2.4662,2.4575,2.4261,2.3866,2.3866,2.3484,2.292,2.2456,2.2259,2.2108,2.1556,2.0883,2.0196,1.9765,1.9557,1.9391,1.8991,1.8826,1.8646,1.8101,1.7051,1.6126,1.6115,1.5631,1.4888,1.3902,1.3666,1.3601,1.3256,1.3176,1.3176,1.3176,1.3176,1.3176,1.3176,1.3176,1.3128,1.3065,1.3041,1.2992,1.2905,1.2905,1.2905,1.2905,1.2905,1.2905,1.2905,1.2968,1.2769,1.2135,1.211,1.2423,1.3152,1.3671,1.4167,1.4686,1.4698,1.4744,1.4835,1.4744,1.4744,1.4835,1.4744,1.4698,3.4245,3.5419,3.6399,3.4286,3.443,3.5132,3.5446,3.5504,3.5504,3.5504,3.6006,3.6259,3.5619,3.6082,3.635,3.5602,3.6582,3.7644,3.8302,3.8302,3.8063,3.7614,3.6926,3.6267,3.5714,3.5564,3.5133,3.4279,3.3584,3.2633,3.1376,3.0139,2.9275,2.8787,2.7984,2.7847,2.8425,2.8193,2.7595,2.6612,2.6713,2.6399,2.5724,2.5724,2.5435,2.4876,2.4368,2.4117,2.4092,2.3559,2.3308,2.3233,2.3233,2.2895,2.2393,2.2347,2.202,2.1543,2.1018,2.0736,2.0528,1.9955,1.9768,1.973,1.9642,1.9307,1.9033,1.9378,1.8118,1.6729,1.6998,1.6179,1.515,1.4629,1.4519,1.4498,1.4444,1.4433,1.4433,1.4433,1.4433,1.4433,1.4433,1.4433,1.4247,1.3732,1.3661,1.3481,1.2978,1.2905,1.2905,1.2905,1.2905,1.2905,1.2905,1.3372,1.3613,1.3508,1.3498,1.3768,1.441,1.4514,1.4606,1.4698,1.4698,1.4949,1.5454,1.4949,1.4971,1.5454,1.4949,1.4698,3.5419,3.6436,3.7384,3.6809,3.6745,3.6788,3.657,3.6585,3.6619,3.6619,3.6956,3.713,3.6799,3.7651,3.8388,3.8328,3.8177,3.8041,3.7878,3.7569,3.712,3.6462,3.6133,3.5833,3.5534,3.5504,3.5326,3.4839,3.3779,3.273,3.1798,2.9968,2.8756,2.8267,2.763,2.7328,2.74,2.7569,2.749,2.7129,2.6714,2.6185,2.5586,2.531,2.4883,2.4343,2.3747,2.3496,2.3484,2.3208,2.3108,2.307,2.2782,2.2506,2.2234,2.1644,2.1054,2.0539,2.0288,2.02,2.0189,1.9886,1.9798,1.9798,1.9798,1.9635,1.9409,1.9371,1.8277,1.7158,1.7266,1.6397,1.5337,1.4823,1.4698,1.4698,1.4698,1.4698,1.4698,1.4698,1.4698,1.4698,1.4698,1.4698,1.4606,1.4329,1.4283,1.4201,1.3907,1.386,1.3742,1.342,1.3681,1.3752,1.342,1.3944,1.4283,1.4283,1.4283,1.456,1.5163,1.5186,1.5332,1.5678,1.5678,1.581,1.6095,1.581,1.581,1.6073,1.581,1.5678,3.6446,3.7344,3.8231,3.8758,3.8668,3.8439,3.8309,3.8081,3.7982,3.8341,3.837,3.8293,3.8075,3.8798,3.9592,4.0156,3.9225,3.8248,3.7733,3.7,3.6297,3.5804,3.5609,3.5504,3.5504,3.5504,3.5504,3.5504,3.3875,3.2745,3.2432,2.9832,2.8257,2.8112,2.7455,2.7082,2.6972,2.7069,2.7201,2.7417,2.6642,2.5996,2.5398,2.487,2.4318,2.3766,2.3296,2.3108,2.3108,2.3108,2.3032,2.2869,2.2443,2.2159,2.1807,2.0855,2.0214,1.9798,1.9798,1.9798,1.9798,1.9798,1.9798,1.9798,1.9798,1.9798,1.9698,1.9146,1.8329,1.7547,1.7373,1.6567,1.5688,1.522,1.5107,1.5107,1.5107,1.5107,1.5107,1.5107,1.5107,1.5107,1.5107,1.5107,1.5062,1.4926,1.4903,1.4858,1.4732,1.4698,1.4514,1.405,1.4422,1.456,1.4249,1.4641,1.4971,1.5107,1.5107,1.5332,1.5798,1.582,1.603,1.65,1.65,1.65,1.65,1.65,1.65,1.65,1.65,1.65,3.6584,3.8088,3.9495,3.8962,3.8792,3.9114,4.0543,3.9775,3.9198,4.0571,4.0365,3.9722,3.8972,3.8347,3.8192,3.8838,3.8231,3.7869,3.8421,3.7352,3.6477,3.6417,3.5878,3.5504,3.5504,3.5504,3.5504,3.5504,3.3469,3.249,3.3,2.9681,2.823,2.9236,2.7527,2.7152,2.8352,2.7165,2.6571,2.6589,2.5946,2.5385,2.4825,2.4305,2.374,2.3158,2.312,2.3108,2.3108,2.3108,2.2807,2.2343,2.2334,2.1681,2.0742,2.0087,1.9836,1.9798,1.9798,1.9798,1.9798,1.9798,1.9798,1.9798,1.9798,1.9798,1.9698,1.9146,1.8581,1.8041,1.7518,1.6907,1.6423,1.638,1.638,1.638,1.638,1.638,1.638,1.638,1.638,1.638,1.638,1.638,1.6173,1.561,1.5543,1.532,1.4766,1.4698,1.4675,1.4629,1.4675,1.4903,1.5432,1.5521,1.5776,1.6337,1.638,1.638,1.6423,1.6445,1.6457,1.65,1.65,1.65,1.65,1.65,1.65,1.65,1.65,1.65,3.7219,3.8656,4.0046,4.0249,4.0293,4.0522,4.1446,4.1278,4.1102,4.167,4.1976,4.1927,4.115,4.0414,3.9974,4.0127,3.9903,3.9482,3.8822,3.8262,3.7608,3.6656,3.6349,3.6006,3.5522,3.5504,3.5504,3.5504,3.3787,3.293,3.3311,3.0606,2.9042,2.9157,2.7894,2.7266,2.7267,2.6392,2.5925,2.5925,2.5699,2.5146,2.4305,2.4092,2.3678,2.3108,2.3108,2.2907,2.2594,2.2594,2.2297,2.1769,2.1458,2.0842,2.01,1.9874,1.9798,1.9798,1.9798,1.9798,1.9798,1.9798,1.9559,1.9296,1.9296,1.9083,1.8694,1.8154,1.7852,1.7674,1.7461,1.6948,1.65,1.65,1.65,1.65,1.65,1.65,1.65,1.65,1.65,1.65,1.65,1.65,1.6423,1.6182,1.6173,1.6086,1.5854,1.581,1.5678,1.5298,1.5253,1.5499,1.6117,1.6173,1.6259,1.65,1.65,1.65,1.65,1.65,1.65,1.65,1.65,1.6659,1.6993,1.6993,1.7167,1.7483,1.7483,1.7483,3.7661,3.8944,4.0204,4.0728,4.1035,4.1429,4.2258,4.2338,4.2446,4.3161,4.3177,4.2828,4.2083,4.1339,4.0828,4.0745,4.0491,3.9984,3.8953,3.8643,3.8018,3.6789,3.6441,3.6076,3.556,3.5108,3.4951,3.516,3.375,3.301,3.317,3.1123,2.9698,2.9114,2.8239,2.7301,2.6302,2.6122,2.5826,2.5447,2.5466,2.4949,2.3991,2.3803,2.3384,2.2844,2.2844,2.2531,2.2046,2.2046,2.1732,2.1207,2.0641,2.015,1.9798,1.9798,1.9798,1.9798,1.9798,1.9927,2.0067,1.9876,1.9571,1.9288,1.9061,1.8637,1.8091,1.7561,1.741,1.736,1.7162,1.681,1.65,1.65,1.65,1.65,1.65,1.65,1.65,1.65,1.65,1.65,1.65,1.65,1.65,1.65,1.65,1.65,1.65,1.65,1.6337,1.593,1.5886,1.6051,1.6466,1.65,1.65,1.65,1.65,1.65,1.65,1.65,1.65,1.65,1.668,1.693,1.7312,1.7463,1.7747,1.8106,1.8106,1.8106,3.7822,3.8957,4.0113,4.0096,4.0646,4.1593,4.3054,4.2828,4.2946,4.5213,4.3859,4.2066,4.1339,4.0595,4.0096,4.0096,3.9437,3.8908,3.8891,3.8274,3.7534,3.6802,3.6048,3.5592,3.5504,3.4304,3.38,3.4444,3.3245,3.2512,3.2497,3.1114,2.9996,2.9303,2.8456,2.7329,2.5906,2.663,2.6345,2.5107,2.5166,2.4776,2.3966,2.3389,2.2824,2.2297,2.2297,2.1983,2.1481,2.1509,2.1182,2.0629,2.0024,1.9798,1.9798,1.9798,1.9798,1.9798,1.9798,2.0245,2.0665,2.0016,1.989,1.9866,1.9193,1.8634,1.8102,1.7549,1.7398,1.726,1.6672,1.65,1.65,1.65,1.65,1.65,1.65,1.65,1.65,1.65,1.65,1.65,1.65,1.65,1.65,1.65,1.65,1.65,1.65,1.65,1.65,1.65,1.65,1.6522,1.6522,1.6522,1.6522,1.6522,1.6522,1.6522,1.65,1.65,1.6522,1.6522,1.7034,1.7312,1.7333,1.7847,1.8125,1.8125,1.8125,1.8125,3.8442,3.9714,4.0747,4.0231,4.1035,4.2083,4.2523,4.2861,4.3284,4.3961,4.2726,4.1457,4.1238,4.0595,4.0096,4.0096,3.9901,3.9546,3.9042,3.878,3.8171,3.6849,3.6512,3.5954,3.4893,3.4446,3.4075,3.383,3.2991,3.2288,3.1824,3.0921,2.9869,2.8656,2.8339,2.7729,2.6674,2.605,2.5544,2.5168,2.434,2.3824,2.3553,2.34,2.2727,2.176,2.2183,2.1834,2.0905,2.0476,2.0213,2.0037,1.9874,1.9798,1.9798,1.9798,1.9798,1.9875,2.0346,2.0311,2.0138,2.0402,1.9926,1.9193,1.8995,1.855,1.8019,1.7481,1.7336,1.7191,1.6633,1.65,1.65,1.65,1.6823,1.7011,1.6588,1.6835,1.6999,1.6575,1.65,1.65,1.65,1.65,1.65,1.65,1.65,1.65,1.65,1.65,1.65,1.65,1.6837,1.7055,1.7055,1.7415,1.7626,1.7626,1.7626,1.7291,1.6543,1.6858,1.7055,1.7055,1.7585,1.8046,1.8438,1.8593,1.8855,1.9225,1.9225,1.9225,3.8772,3.9823,4.073,4.0561,4.1424,4.2286,4.2286,4.2878,4.3308,4.3031,4.2033,4.1204,4.1204,4.0595,4.0096,4.0096,3.9859,3.9622,3.9469,3.892,3.8216,3.7295,3.6646,3.5948,3.5029,3.4463,3.3849,3.3179,3.2514,3.1734,3.0791,3.0357,2.9599,2.8455,2.8426,2.7763,2.6428,2.5957,2.5477,2.4918,2.4219,2.3761,2.3532,2.3435,2.2854,2.1942,2.1812,2.1368,2.0681,2.0053,1.9798,1.9786,1.9572,1.9623,1.9799,1.985,1.9849,1.9899,2.0574,2.0506,2.0193,2.0323,1.988,1.9243,1.8991,1.8536,1.8027,1.7706,1.7626,1.7544,1.7209,1.7126,1.7034,1.6595,1.6946,1.7273,1.6893,1.7098,1.7238,1.688,1.6659,1.65,1.65,1.65,1.65,1.65,1.65,1.65,1.65,1.65,1.6573,1.6795,1.7118,1.7394,1.7605,1.7907,1.8106,1.8106,1.8106,1.7807,1.7146,1.7442,1.7626,1.7626,1.8145,1.8574,1.8893,1.9114,1.9387,1.9708,1.9708,1.9708,3.8989,3.9644,4.0442,4.106,4.1745,4.2339,4.2428,4.284,4.2997,4.2252,4.161,4.1187,4.1119,4.0544,4.0079,4.0011,3.9453,3.9174,3.9723,3.865,3.777,3.7702,3.651,3.563,3.5523,3.4401,3.3401,3.2656,3.1973,3.1006,2.9654,2.9544,2.916,2.8442,2.8427,2.7487,2.5521,2.6115,2.578,2.4504,2.4501,2.4213,2.369,2.3508,2.3117,2.2539,2.1379,2.0894,2.0845,2.022,1.994,1.9851,1.9345,1.9434,1.98,1.995,1.9906,1.9882,2.0566,2.0709,2.053,1.9976,1.9834,1.9763,1.9156,1.8631,1.8243,1.8204,1.8185,1.8165,1.8125,1.8106,1.7847,1.6879,1.7052,1.7427,1.7374,1.7413,1.7427,1.7374,1.693,1.6595,1.6637,1.6616,1.6595,1.6637,1.6659,1.6637,1.6573,1.6616,1.6816,1.725,1.7394,1.7646,1.8145,1.8224,1.8263,1.8263,1.8263,1.8263,1.8263,1.8204,1.8185,1.8185,1.8688,1.8968,1.8968,1.946,1.9708,1.9708,1.9708,1.9708,3.9662,4.077,4.1653,4.1282,4.1745,4.2542,4.3504,4.2649,4.1457,4.0739,4.0899,4.1018,4.0426,4.0214,3.991,3.9326,3.9089,3.8633,3.7658,3.7252,3.6789,3.6157,3.5807,3.5419,3.4871,3.4554,3.386,3.2603,3.1956,3.0985,2.9602,2.9074,2.8263,2.7066,2.7021,2.6559,2.5595,2.5207,2.488,2.4578,2.4045,2.3754,2.3607,2.3585,2.3254,2.2628,2.1851,2.1496,2.1496,2.1352,2.1002,2.0569,2.0459,2.0146,1.9792,1.983,1.9804,1.9893,2.0513,2.0377,1.9976,2.0362,2.015,1.9723,1.9574,1.9442,1.9262,1.8855,1.8727,1.8631,1.8224,1.8106,1.8046,1.7807,1.816,1.8426,1.8023,1.8256,1.8426,1.8009,1.7483,1.725,1.7686,1.7415,1.7271,1.7686,1.7767,1.7605,1.7167,1.7504,1.7646,1.7333,1.8046,1.8593,1.8708,1.9114,1.9369,1.9369,1.9369,1.9369,1.9369,1.8949,1.8727,1.8727,1.9244,1.953,1.953,1.9639,1.9708,1.9708,1.9708,1.9708,3.9893,4.083,4.16,4.1626,4.2368,4.312,4.3139,4.2549,4.1808,4.1064,4.0791,4.0544,4.018,3.9808,3.9453,3.9056,3.8396,3.7787,3.7381,3.6688,3.6214,3.618,3.5819,3.5318,3.462,3.4564,3.3822,3.2089,3.1678,3.0736,2.9029,2.8389,2.7592,2.6525,2.6251,2.5809,2.5128,2.4769,2.444,2.4111,2.3774,2.3595,2.3595,2.3595,2.3421,2.3084,2.2124,2.1687,2.1687,2.1389,2.0899,2.0314,2.0365,2.0143,1.9794,1.9835,1.981,1.9838,2.0469,2.026,1.9757,2.0121,1.9974,1.9708,1.9708,1.9708,1.9639,1.9369,1.9281,1.9225,1.8949,1.8874,1.8874,1.8874,1.8887,1.8818,1.8548,1.8711,1.8818,1.8533,1.8046,1.7767,1.8046,1.7867,1.7787,1.8066,1.8106,1.8007,1.7727,1.7927,1.8086,1.8066,1.8574,1.9006,1.9262,1.9717,1.9982,1.9982,2.0191,2.0328,2.0328,1.9846,1.9471,1.9281,1.9566,1.9708,1.9708,1.9708,1.9708,1.9708,1.9708,1.98,3.9661,4.0364,4.1192,4.2323,4.315,4.3464,4.2712,4.263,4.2572,4.2061,4.1122,4.0385,4.0385,3.9788,3.9218,3.9122,3.7945,3.7229,3.77,3.6605,3.5977,3.6644,3.596,3.5182,3.4556,3.437,3.354,3.1701,3.1456,3.0533,2.8565,2.805,2.7368,2.6414,2.5971,2.5386,2.4581,2.447,2.4141,2.3595,2.3595,2.3595,2.3595,2.3595,2.3535,2.3394,2.2315,2.1809,2.1665,2.1171,2.0553,1.995,2.0019,1.9935,1.9786,1.9844,1.9797,1.9783,2.0343,2.0168,1.9708,1.9708,1.9708,1.9708,1.9708,1.9708,1.9708,1.9708,1.9708,1.9708,1.9708,1.9708,1.9708,1.9708,1.9369,1.9043,1.9043,1.9043,1.9043,1.9043,1.8669,1.8361,1.8263,1.8322,1.838,1.838,1.838,1.8341,1.8263,1.8322,1.8516,1.8855,1.8987,1.9244,1.9749,2.0106,2.0331,2.0416,2.0797,2.0991,2.0991,2.0616,2.0261,1.9927,1.9839,1.9803,1.9803,1.9874,1.9909,1.9909,1.9909,2.0104,3.8671,3.9836,4.1493,4.4067,4.3518,4.2694,4.4041,4.3111,4.2061,4.2498,4.2038,4.1556,4.1556,4.0918,4.0176,3.9532,3.8684,3.7928,3.7367,3.6722,3.6343,3.6446,3.5386,3.4607,3.4506,3.3914,3.3182,3.2242,3.1703,3.0721,2.9169,2.9124,2.8252,2.6295,2.6336,2.5744,2.4441,2.3973,2.3684,2.3595,2.3595,2.3595,2.3595,2.3595,2.331,2.2823,2.2649,2.2235,2.1694,2.1598,2.1184,2.0576,2.0592,2.0225,1.9712,1.9719,1.9718,1.9718,1.9806,1.9783,1.9708,1.9708,1.9708,1.9708,1.9708,1.9708,1.9708,1.9708,1.9708,1.9708,1.9708,1.9708,1.9708,1.9708,1.9639,1.9584,1.9584,1.9584,1.9584,1.9584,1.9548,1.935,1.8874,1.9188,1.9479,1.9479,1.9479,1.9332,1.8855,1.9207,1.935,1.8949,1.9332,1.9767,2.0177,2.0263,2.0466,2.0878,2.0959,2.0991,2.0991,2.0943,2.0878,2.0829,2.0416,2.0212,2.0212,2.0632,2.0829,2.0829,2.0829,2.0861,3.8664,3.9785,4.091,4.2595,4.2629,4.2464,4.3375,4.3138,4.2828,4.3087,4.2577,4.202,4.1827,4.0798,3.9878,3.9545,3.8483,3.758,3.7245,3.6999,3.6586,3.5867,3.5656,3.4972,3.3414,3.3711,3.3355,3.1802,3.1816,3.1253,2.9777,2.9478,2.853,2.6769,2.6214,2.5445,2.4405,2.3879,2.3595,2.3595,2.3595,2.3595,2.3595,2.3595,2.3266,2.2673,2.2298,2.1754,2.1141,2.1141,2.0733,2.0185,2.0548,2.0283,1.9696,1.9689,1.9708,1.9708,1.9708,1.9708,1.9708,1.9708,1.9708,1.9708,1.9708,1.9708,1.9708,1.9708,1.9708,1.9708,1.9708,1.9708,1.9708,1.9708,1.9708,1.9708,1.9708,1.9708,1.9708,1.9708,1.9708,1.9621,1.9387,1.9734,2.0035,2.0035,2.0035,2.0054,2.0076,2.0056,1.9949,1.9707,2.0126,2.0398,2.0314,2.0749,2.1118,2.1322,2.1584,2.1736,2.1736,2.1477,2.1337,2.1337,2.091,2.0682,2.0682,2.0894,2.0991,2.0991,2.0991,2.1118,3.8412,3.9428,4.0076,4.0888,4.1578,4.2156,4.2522,4.3068,4.3441,4.3239,4.2708,4.2155,4.1721,4.0527,3.9669,3.9866,3.8597,3.7578,3.7578,3.7451,3.7035,3.6057,3.6162,3.5446,3.327,3.3703,3.3386,3.1616,3.1819,3.1464,3.0176,2.973,2.8899,2.762,2.6671,2.5773,2.4898,2.4019,2.3595,2.3595,2.3595,2.3595,2.3595,2.343,2.3137,2.2658,2.1999,2.1216,2.0453,2.0453,2.0154,1.9753,2.0258,2.0139,1.9708,1.9708,1.9708,1.9708,1.9708,1.9708,1.9708,1.9708,1.9708,1.9708,1.9708,1.9708,1.9708,1.9708,1.9708,1.9708,1.9708,1.9782,1.9856,1.9856,1.9945,1.9962,1.9747,1.9708,1.9708,1.9708,1.9708,1.9729,1.9821,2.0089,2.0348,2.0466,2.0483,2.06,2.0943,2.0682,2.0483,2.0483,2.0797,2.091,2.065,2.1228,2.1658,2.1779,2.2106,2.2296,2.2296,2.1957,2.1779,2.1779,2.1477,2.1276,2.115,2.1276,2.1323,2.1323,2.1323,2.1492,3.7334,3.832,3.9265,4.0058,4.0852,4.1615,4.2187,4.293,4.3277,4.2525,4.2323,4.2067,4.1284,4.0459,4.013,4.0883,3.9655,3.8627,3.8627,3.8183,3.7842,3.7771,3.6738,3.5783,3.5191,3.394,3.2919,3.2283,3.1633,3.092,3.0142,3.007,2.9698,2.8922,2.8336,2.7473,2.621,2.448,2.3595,2.3595,2.3595,2.3595,2.358,2.3017,2.2733,2.2658,2.1999,2.0946,1.9753,1.9753,1.9738,1.9708,1.9738,1.9738,1.9708,1.9708,1.9708,1.9708,1.9708,1.9708,1.9708,1.9708,1.9708,1.9708,1.9708,1.9708,1.9708,1.9708,1.9708,1.9708,1.9708,1.9982,2.0263,2.0263,2.06,2.0714,1.9889,1.9708,1.9708,1.9708,1.9708,1.9836,2.0195,2.0297,2.0449,2.0894,2.0959,2.0959,2.0991,2.0975,2.0959,2.0959,2.0991,2.1134,2.1506,2.1567,2.1794,2.2237,2.2282,2.2296,2.2296,2.2282,2.2268,2.2268,2.2237,2.2003,2.1567,2.2017,2.2223,2.2223,2.2223,2.2237,3.5815,3.7202,3.849,3.9301,3.9981,4.0638,4.1356,4.1754,4.1882,4.1589,4.113,4.0836,4.1058,4.0451,3.9992,4.0286,3.9405,3.8707,3.8707,3.853,3.8118,3.7293,3.7215,3.6649,3.5169,3.5144,3.4765,3.3601,3.2951,3.229,3.1565,3.1055,3.0463,2.9736,2.8729,2.7196,2.5109,2.4431,2.3927,2.3595,2.3595,2.3595,2.358,2.2987,2.2463,2.2009,2.135,2.0797,2.0318,1.9887,1.9708,1.9708,1.9708,1.9708,1.9708,1.9708,1.9708,1.9708,1.9708,1.9708,1.9708,1.9708,1.9708,1.9747,2.0017,2.0089,2.0141,2.0448,2.0313,2.0089,2.0089,2.0177,2.0382,2.0682,2.0878,2.091,2.0599,2.0532,2.0532,2.0532,2.0532,2.0582,2.0715,2.0959,2.1197,2.1368,2.1384,2.1492,2.1796,2.1568,2.1384,2.1384,2.1645,2.1781,2.1613,2.1884,2.212,2.2296,2.2296,2.2296,2.2296,2.2296,2.2296,2.2296,2.2296,2.2209,2.2046,2.2209,2.2296,2.2296,2.2296,2.2296,3.3965,3.5559,3.709,3.7829,3.8842,3.9831,4.0529,4.0912,4.1022,4.0747,4.0267,3.9974,4.0249,3.9863,3.9588,3.9845,3.9441,3.9093,3.9093,3.935,3.92,3.834,3.8436,3.7978,3.6451,3.6278,3.5784,3.4636,3.3601,3.2814,3.2327,3.1142,3.0108,2.9345,2.836,2.6932,2.5073,2.46,2.422,2.3843,2.3492,2.3372,2.3495,2.25,2.1904,2.165,2.0752,2.0363,2.0333,1.9869,1.9708,1.9708,1.9708,1.9782,1.9909,1.9909,1.9997,2.0137,2.0137,2.0137,2.012,1.9962,2.0015,2.0156,2.0263,2.0416,2.06,2.091,2.078,2.05,2.0348,2.0416,2.0682,2.1291,2.1447,2.1447,2.1447,2.1213,2.0991,2.0991,2.0991,2.1039,2.1181,2.1414,2.1658,2.1809,2.1823,2.1943,2.2268,2.2032,2.1823,2.1823,2.2106,2.2163,2.1853,2.212,2.2296,2.2296,2.2296,2.2296,2.2296,2.2296,2.2296,2.2296,2.2296,2.2296,2.2296,2.2296,2.2296,2.2296,2.2296,2.2296,0.0,0.0,0.0,3.5662,3.7435,3.917,3.9694,4.0435,4.0802,4.0029,3.9845,3.9625,3.8851,3.8707,3.8964,3.9769,3.9916,3.9916,3.9918,4.0616,4.1095,4.1095,4.0414,3.9737,3.9208,3.7292,3.5909,3.5424,3.3522,3.2364,3.2327,3.0228,2.8653,2.7824,2.7359,2.6842,2.6302,2.5062,2.4435,2.4379,2.3269,2.297,2.3305,2.1546,2.1066,2.159,2.0258,1.9708,1.9708,1.9708,1.9708,1.9708,1.9711,1.9962,2.0297,2.0314,2.06,2.0991,2.0991,2.0991,2.0926,2.0466,2.0616,2.091,2.0483,2.0649,2.1007,2.1023,2.1039,2.091,2.0466,2.0682,2.1245,2.2092,2.2296,2.2296,2.2296,2.1646,2.1039,2.1039,2.1039,2.115,2.1552,2.1612,2.1779,2.2223,2.2296,2.2296,2.2296,2.2296,2.2296,2.2296,2.2296,2.2296,2.2296,2.231,2.231,2.2296,2.2324,2.2324,2.231,2.2324,2.2338,2.2338,2.2338,2.2338,2.2338,2.231,2.2296,2.2296,2.2296,2.231,3.0143,0.0,0.0,0.0,0.0,0.0,3.7614,3.854,3.9313,3.9074,3.9038,3.9019,3.8998,3.8829,3.9038,4.004,4.0031,4.0102,4.0689,4.0948,4.1095,4.1095,4.0893,4.0714,4.0562,3.9153,3.8043,3.7568,3.5638,3.4065,3.3139,3.1004,2.9176,2.7841,2.7666,2.7111,2.6092,2.5731,2.5078,2.4166,2.3859,2.3307,2.2581,2.1572,2.1071,2.0932,2.0064,1.9708,1.9708,1.9708,1.9708,1.9744,2.0017,2.0195,2.0348,2.0682,2.0894,2.0991,2.0991,2.0991,2.0975,2.0845,2.0894,2.1023,2.1181,2.1321,2.1491,2.184,2.169,2.1399,2.1275,2.1353,2.1583,2.2149,2.2296,2.2296,2.2296,2.2106,2.193,2.193,2.193,2.1974,2.2092,2.2106,2.2149,2.2282,2.2296,2.2296,2.2296,2.2296,2.2296,2.2296,2.2296,2.2296,2.2296,2.249,2.2514,2.231,2.2712,2.2845,2.2599,2.2832,2.2958,2.2958,2.2958,2.2958,2.2958,2.2508,2.2296,2.2296,2.2296,2.2398,2.7641,2.9172,3.0565,3.127,0.0,0.0,3.5527,3.654,3.7442,3.7558,3.7724,3.7956,3.8209,3.8417,3.8984,4.0285,4.0686,4.1,4.1528,4.1901,4.2103,4.2103,4.1809,4.159,4.159,4.0069,3.8906,3.8436,3.6464,3.4484,3.2564,3.0683,2.9093,2.7841,2.7503,2.6906,2.6013,2.5682,2.5126,2.4382,2.3586,2.2966,2.2433,2.1372,2.0742,2.0503,2.0112,1.9947,1.998,2.0156,2.0122,2.0,2.0416,2.0699,2.0878,2.1149,2.1369,2.1539,2.1539,2.1539,2.1508,2.1306,2.1385,2.1554,2.1598,2.1733,2.1943,2.2223,2.1957,2.1658,2.1838,2.1749,2.1718,2.2194,2.2296,2.2296,2.2296,2.2296,2.2296,2.2296,2.2402,2.2463,2.2463,2.2581,2.2673,2.2673,2.2673,2.2673,2.2673,2.2673,2.2673,2.2673,2.2673,2.2673,2.2673,2.2815,2.284,2.2686,2.3002,2.3105,2.2923,2.3093,2.32,2.32,2.32,2.32,2.32,2.2721,2.2463,2.2463,2.2463,2.263,2.4961,2.6125,2.7555,2.8539,3.0258,0.0,3.3375,3.4518,3.5415,3.5864,3.6297,3.6708,3.7156,3.7796,3.8825,4.0561,4.1561,4.2198,4.2449,4.3105,4.3548,4.3496,4.2873,4.2433,4.2433,4.063,3.9193,3.858,3.6389,3.3942,3.1348,2.9805,2.8619,2.7824,2.708,2.6487,2.6085,2.5288,2.4842,2.4759,2.2995,2.2313,2.2534,2.11,2.0433,2.0382,2.0382,2.0382,2.0416,2.0878,2.0781,2.0433,2.0894,2.1291,2.1613,2.1658,2.1943,2.2296,2.2296,2.2296,2.2223,2.1809,2.1974,2.2223,2.1794,2.1974,2.2296,2.2296,2.2003,2.1779,2.2194,2.1988,2.1794,2.2194,2.2296,2.2296,2.2296,2.2296,2.231,2.2335,2.2537,2.2708,2.2759,2.3009,2.32,2.32,2.32,2.32,2.32,2.32,2.32,2.32,2.32,2.32,2.32,2.3224,2.3236,2.32,2.3259,2.3282,2.3265,2.33,2.3311,2.3311,2.3311,2.3282,2.3247,2.2923,2.2772,2.281,2.2772,2.2935,2.4235,2.4091,2.4009,2.5264,2.7229,0.0,3.1151,3.2586,3.3915,3.5381,3.575,3.6288,3.7859,3.8063,3.8689,4.0859,4.1703,4.2464,4.3509,4.3801,4.3804,4.3531,4.3368,4.3276,4.3276,4.231,4.1034,3.9473,3.5893,3.3022,3.1295,2.9805,2.8619,2.7824,2.708,2.6657,2.6556,2.5832,2.5159,2.4553,2.3585,2.2682,2.1794,2.1479,2.1165,2.0862,2.0862,2.0862,2.0894,2.1322,2.1244,2.091,2.1322,2.1521,2.1658,2.2017,2.2223,2.2296,2.2296,2.2296,2.2282,2.2194,2.224,2.2282,2.2194,2.2223,2.2296,2.2296,2.2237,2.218,2.2282,2.2223,2.2194,2.2282,2.2296,2.2296,2.2296,2.2296,2.236,2.2573,2.2656,2.2784,2.3057,2.3153,2.32,2.32,2.32,2.32,2.32,2.32,2.32,2.32,2.32,2.32,2.32,2.3455,2.3488,2.323,2.3703,2.3886,2.361,2.3847,2.4006,2.4006,2.4006,2.3876,2.3599,2.3277,2.3236,2.3511,2.3224,2.3288,2.3244,2.2942,2.2477,2.304,2.426,0.0,0.0,2.8926,3.0166,3.1619,3.2337,3.3219,3.4908,3.5749,3.7068,3.9671,4.0787,4.1759,4.3064,4.3676,4.394,4.3756,4.3614,4.3515,4.3515,4.2763,4.1377,3.9171,3.5877,3.3474,3.2357,3.0886,2.9567,2.8433,2.7655,2.708,2.6691,2.5592,2.488,2.4491,2.3376,2.2531,2.1943,2.1703,2.1491,2.1291,2.1291,2.1291,2.1337,2.1764,2.1825,2.1676,2.1869,2.1943,2.1988,2.2209,2.2296,2.2296,2.2296,2.2296,2.2296,2.2296,2.2296,2.2296,2.2296,2.2296,2.2296,2.2296,2.2296,2.2296,2.2296,2.2296,2.2296,2.2296,2.2398,2.25,2.25,2.2634,2.2849,2.3147,2.32,2.3247,2.3414,2.3588,2.3692,2.3692,2.3692,2.3692,2.3692,2.3692,2.3692,2.3692,2.3692,2.3692,2.3692,2.3847,2.3886,2.3703,2.4006,2.4113,2.3966,2.4103,2.419,2.419,2.419,2.4113,2.3937,2.3785,2.3692,2.3692,2.3533,2.3639,2.2219,2.1844,2.1217,2.1236,2.1612,2.2418,0.0,0.0,0.0,2.7371,2.8449,2.9676,3.1306,3.2944,3.4977,3.78,3.9366,4.0624,4.1804,4.2867,4.3606,4.3759,4.3472,4.3331,4.3478,4.2677,4.1106,3.8618,3.6219,3.4402,3.3237,3.1918,3.0514,2.9044,2.823,2.7435,2.6725,2.5235,2.4491,2.4474,2.3004,2.2296,2.2282,2.1913,2.1718,2.1718,2.1718,2.1718,2.1764,2.2135,2.2296,2.2296,2.2296,2.2296,2.2296,2.2296,2.2296,2.2296,2.2296,2.2296,2.2296,2.2296,2.2296,2.2296,2.2296,2.2335,2.2374,2.2391,2.2429,2.2467,2.2467,2.2467,2.2467,2.2467,2.2643,2.2797,2.2797,2.3009,2.3311,2.3621,2.3829,2.3894,2.3803,2.4016,2.419,2.419,2.419,2.419,2.419,2.419,2.419,2.419,2.419,2.419,2.419,2.419,2.419,2.419,2.419,2.419,2.419,2.419,2.419,2.419,2.4355,2.4355,2.419,2.4355,2.421,2.3795,2.3795,2.3937,2.1405,2.0021,1.8616,1.9386,1.9659,2.032,2.2401,0.0,2.3621,2.5268,0.0,2.7547,2.9809,0.0,0.0,3.5578,3.7766,3.9356,3.9944,4.1096,4.2149,4.2854,4.2643,4.2708,4.3441,4.234,4.0743,3.8657,3.7096,3.5156,3.2551,3.1667,3.0514,2.9044,2.823,2.7435,2.6725,2.5235,2.4491,2.4474,2.3004,2.2296,2.2296,2.2237,2.2223,2.2223,2.2223,2.2223,2.2223,2.2282,2.2296,2.2296,2.2296,2.2296,2.2296,2.2296,2.2296,2.2296,2.2296,2.2296,2.2296,2.2296,2.2296,2.2296,2.2296,2.2463,2.266,2.2725,2.2908,2.3099,2.3099,2.3099,2.3099,2.3099,2.3117,2.3141,2.3141,2.3177,2.3311,2.3621,2.4281,2.4628,2.4212,2.417,2.419,2.419,2.419,2.419,2.419,2.419,2.419,2.419,2.419,2.419,2.419,2.419,2.419,2.419,2.419,2.419,2.419,2.419,2.419,2.419,2.4897,2.4915,2.419,2.4915,2.4877,2.4151,2.4151,2.4161,2.2056,2.0558,1.8787,1.8868,1.8741,1.8962,2.0366,2.071,2.1089,2.2334,0.0,0.0,0.0,0.0,0.0,0.0,3.3703,3.5268,3.6768,3.763,3.9271,4.2434,4.2493,4.2616,4.3423,4.2011,4.0503,3.924,3.7613,3.5574,3.3072,3.2645,3.1596,2.9702,2.889,2.8129,2.7351,2.5455,2.4491,2.4474,2.3004,2.2296,2.2296,2.2296,2.2296,2.2296,2.2296,2.2296,2.2296,2.2296,2.2296,2.2296,2.2296,2.2296,2.2296,2.2296,2.2296,2.2296,2.2296,2.2296,2.2338,2.2473,2.2523,2.2563,2.2773,2.289,2.2996,2.3014,2.3111,2.32,2.32,2.32,2.32,2.32,2.3714,2.418,2.418,2.4345,2.4526,2.466,2.4579,2.4574,2.4859,2.5273,2.5438,2.497,2.4897,2.4732,2.4263,2.419,2.419,2.419,2.419,2.419,2.419,2.419,2.419,2.419,2.419,2.419,2.419,2.4658,2.4897,2.4897,2.5686,2.5933,2.5585,2.5466,2.5227,2.4897,2.442,2.419,2.2445,2.1003,1.9222,1.9023,1.8483,1.8197,1.8941,1.9037,1.9142,1.9909,2.0342,0.0,0.0,0.0,2.5392,2.768,0.0,3.1223,3.2957,3.4178,3.6648,4.1414,4.2361,4.2785,4.3231,4.2057,4.0717,3.9461,3.8096,3.6162,3.3541,3.3406,3.2391,3.0176,2.9382,2.8602,2.7807,2.5609,2.4491,2.4474,2.3004,2.2296,2.2296,2.2296,2.2296,2.2296,2.2296,2.2296,2.2296,2.2296,2.2296,2.2296,2.2296,2.2296,2.2296,2.2296,2.2296,2.2296,2.2296,2.2349,2.2436,2.2634,2.2759,2.2885,2.3129,2.3259,2.3335,2.3335,2.3403,2.3471,2.3471,2.3471,2.3471,2.3471,2.4266,2.498,2.4751,2.5067,2.5393,2.5393,2.4934,2.486,2.587,2.6182,2.6062,2.5485,2.5393,2.5117,2.43,2.419,2.419,2.419,2.419,2.419,2.419,2.4392,2.453,2.453,2.4318,2.419,2.419,2.497,2.5393,2.5393,2.641,2.6833,2.6602,2.6007,2.5613,2.5374,2.4566,2.4318,2.1917,2.0646,1.9379,1.9763,1.8909,1.8115,1.8525,1.8335,1.8159,1.8595,1.8525,1.8671,1.9542,2.0834,2.2049,2.2981,2.5839,0.0,0.0,3.1183,3.4776,3.9338,4.2009,4.3267,4.277,4.2675,4.1562,3.8929,3.866,3.7103,3.358,3.3406,3.2391,3.0176,2.9382,2.8602,2.7807,2.5609,2.4491,2.4474,2.3004,2.2296,2.2296,2.2296,2.2296,2.2296,2.2296,2.2296,2.2296,2.2296,2.2296,2.2296,2.2296,2.2296,2.2296,2.2296,2.2296,2.2296,2.2296,2.2477,2.2682,2.2695,2.2923,2.3177,2.3189,2.3426,2.3682,2.3682,2.3917,2.417,2.417,2.417,2.417,2.417,2.4785,2.5162,2.4382,2.4832,2.5393,2.5393,2.5374,2.5852,2.7449,2.6458,2.5429,2.5393,2.5393,2.5117,2.43,2.419,2.419,2.419,2.419,2.419,2.419,2.4915,2.5356,2.5356,2.464,2.419,2.419,2.497,2.5393,2.5393,2.6953,2.7383,2.6602,2.6565,2.6153,2.5374,2.4566,2.4622,2.2281,2.1464,2.0443,1.9997,1.9375,1.8728,1.8287,1.79,1.7793,1.8461,1.8319,1.8157,1.8301,1.952,2.0599,2.097,2.2813,2.4649,0.0,2.9678,3.3354,3.6445,3.9673,4.138,4.0703,4.0291,3.9477,3.8082,3.7148,3.5691,3.3508,3.3406,3.2611,3.0886,2.9653,2.8874,2.8602,2.5879,2.4491,2.4474,2.3004,2.2296,2.2296,2.2296,2.2296,2.231,2.2487,2.2463,2.2307,2.2487,2.2463,2.2324,2.2487,2.245,2.2296,2.2296,2.2296,2.2296,2.2296,2.2477,2.2733,2.296,2.3247,2.3566,2.3795,2.3937,2.4026,2.4026,2.4103,2.419,2.419,2.4603,2.4989,2.4989,2.5613,2.6117,2.586,2.6007,2.619,2.619,2.576,2.5907,2.7523,2.6906,2.6374,2.6917,2.6539,2.5897,2.5099,2.453,2.419,2.419,2.4677,2.4989,2.4989,2.5731,2.619,2.619,2.5933,2.5786,2.5786,2.6557,2.699,2.699,2.7523,2.7934,2.818,2.6576,2.5944,2.6153,2.4814,2.464,2.2127,2.1514,2.0794,2.0599,1.9998,1.9435,1.944,1.8819,1.8516,1.9229,1.8715,1.7992,1.7605,1.8518,1.9271,1.9106,2.0561,2.2382,0.0,2.7699,3.0773,3.3072,3.7216,3.9742,3.9321,3.9172,3.8602,3.7403,3.6746,3.5515,3.3508,3.3406,3.273,3.1241,2.9771,2.8993,2.8993,2.6268,2.4762,2.4491,2.3274,2.255,2.2296,2.2296,2.2349,2.245,2.2621,2.2678,2.262,2.2802,2.2781,2.2651,2.2815,2.2764,2.2611,2.2477,2.2436,2.245,2.2584,2.2807,2.3093,2.3311,2.3599,2.3917,2.4123,2.419,2.419,2.419,2.419,2.419,2.419,2.4805,2.5393,2.5393,2.6007,2.6521,2.6245,2.641,2.6602,2.6602,2.6172,2.6347,2.7952,2.7567,2.72,2.7725,2.7365,2.6741,2.5925,2.5364,2.5052,2.5052,2.5511,2.5944,2.6237,2.6465,2.6722,2.7016,2.6759,2.6602,2.6602,2.7108,2.7512,2.7787,2.7798,2.8062,2.8565,2.6722,2.5962,2.6135,2.4814,2.464]}]]